GFSSE_sfc_wetblb_000.txt.gz
Wetbulb
74.19 76.27 75.93 76.51 77.17 78.86 78.68 78.81 79.39 79.32 79.09 79.14 79.06 78.43 79.12 78.96 79.01 78.93 79.35 79.95 79.37 79.44 78.78 78.20 78.17 78.31 78.30 78.30 77.96 77.66 77.22 77.03 76.99 76.80 77.36 76.62 75.64 74.96 74.78 74.88 74.79 74.37 74.87
75.91 76.58 77.41 77.40 78.44 79.35 79.11 79.20 79.11 79.01 78.90 79.19 78.93 78.94 78.97 79.07 78.26 78.34 78.75 79.20 79.24 78.81 77.95 78.09 78.12 78.04 78.24 78.20 77.91 77.62 77.62 77.42 77.20 76.90 76.82 76.32 76.08 75.32 75.59 74.88 74.96 75.30 74.90
75.12 76.69 77.09 78.69 79.17 79.08 79.21 78.83 78.87 78.73 79.06 79.25 79.30 79.16 78.96 78.96 78.52 78.55 79.00 78.75 78.70 78.20 77.99 77.87 77.81 77.81 77.56 77.58 77.66 77.70 77.58 76.87 76.72 76.82 76.30 75.34 75.55 75.47 76.01 75.39 74.57 75.05 74.86
75.93 76.64 77.45 77.73 78.65 79.09 79.13 79.28 79.25 78.54 78.78 79.38 79.27 79.17 79.28 78.88 78.70 78.68 78.17 78.19 78.28 78.14 77.76 77.51 77.48 77.62 77.21 77.10 77.04 76.62 76.65 76.91 77.12 76.61 75.96 74.93 74.86 75.29 75.26 74.78 74.07 74.39 73.60
76.36 76.93 78.24 78.57 79.10 79.13 78.93 79.35 78.85 78.86 79.18 79.01 78.91 79.10 78.92 78.67 78.62 78.26 77.92 77.98 77.90 77.62 77.59 77.48 77.37 77.23 76.76 76.60 76.37 76.07 75.51 76.09 76.23 75.93 75.86 76.16 76.16 74.97 75.53 75.08 73.98 74.84 73.88
77.79 78.37 77.41 78.08 79.14 79.36 79.69 78.94 78.37 78.42 79.11 79.45 79.36 79.07 78.54 78.04 78.04 77.96 77.93 77.90 77.62 77.43 77.29 77.10 76.98 76.65 76.18 76.21 76.25 75.87 75.79 75.73 74.99 76.24 76.68 75.36 76.11 75.75 75.39 75.29 73.88 74.51 74.14
76.78 78.22 78.43 78.77 79.30 79.04 79.75 78.71 78.83 78.26 78.48 79.07 78.74 78.00 77.98 77.82 77.68 77.60 77.21 77.16 77.10 77.04 76.79 76.73 76.57 76.31 76.31 75.95 76.11 75.92 75.62 75.29 76.48 77.08 76.55 75.96 76.70 76.24 75.26 75.50 74.30 73.08 73.92
77.17 78.06 78.63 78.23 78.97 79.36 78.84 78.42 79.47 79.16 78.60 79.06 78.64 77.92 77.85 77.74 77.51 77.26 76.91 76.96 76.71 76.40 76.21 76.15 76.13 75.98 76.13 76.32 76.20 76.18 76.24 75.79 75.78 75.72 76.67 77.54 76.36 75.79 75.48 74.62 75.13 73.08 72.70
77.10 77.15 78.25 78.41 78.78 78.74 78.98 78.58 79.11 79.18 78.59 78.69 78.24 77.98 77.67 77.75 77.53 77.21 77.04 76.49 76.15 75.92 75.95 76.12 76.43 75.93 75.92 76.48 76.73 76.32 75.41 76.20 76.61 76.53 75.59 76.58 76.46 76.06 75.59 75.15 75.10 73.68 73.81
76.11 76.05 77.11 77.84 78.07 78.49 78.30 78.38 77.98 78.06 78.15 77.87 77.75 77.72 77.74 77.67 77.34 77.54 76.95 77.10 76.63 76.48 76.98 77.07 77.63 76.60 76.29 75.93 75.88 76.15 76.23 76.15 76.11 77.00 75.79 76.17 76.93 76.02 75.48 75.63 74.62 74.77 73.46
75.49 76.57 77.54 77.51 77.94 78.30 78.14 78.00 77.90 77.74 77.64 77.35 77.38 77.29 77.46 76.63 77.75 77.58 78.08 76.71 76.57 76.93 76.99 77.13 77.29 77.37 76.75 76.70 75.79 75.29 75.65 75.95 76.86 77.28 77.08 75.18 76.00 75.78 75.94 75.50 75.01 75.06 74.37
74.52 75.43 76.36 76.97 77.57 78.10 77.28 78.36 77.98 77.32 76.74 76.72 77.19 78.00 77.10 77.64 78.19 77.82 77.74 76.68 77.13 77.26 77.38 77.51 76.65 76.89 75.84 75.67 76.54 75.51 75.81 75.86 75.88 76.06 76.57 76.00 75.76 75.45 76.01 75.74 75.77 74.25 75.09
74.67 75.37 76.30 77.20 77.87 77.32 77.22 77.45 77.18 77.24 77.09 77.28 78.42 78.37 78.11 77.67 77.72 77.24 76.59 77.08 77.02 77.33 76.11 76.89 76.71 76.21 75.03 75.32 75.41 75.32 75.01 75.26 75.06 76.89 77.15 75.51 76.06 75.50 75.67 75.80 75.96 75.33 74.10
74.05 74.91 76.40 77.51 77.90 78.17 77.58 76.91 77.02 76.86 77.02 76.64 77.13 78.66 78.60 76.77 76.57 76.37 76.04 76.19 76.36 75.93 75.78 75.92 75.93 75.90 75.90 75.35 75.48 75.49 74.91 75.04 75.08 75.99 77.44 75.99 76.23 75.63 75.42 75.95 76.02 75.20 74.80
73.74 75.07 76.04 77.31 77.43 77.92 78.06 77.00 76.70 76.75 76.23 76.32 76.61 77.27 77.39 76.44 76.17 76.24 76.87 76.29 75.54 75.93 76.09 76.49 75.93 75.76 75.68 74.74 74.79 74.79 74.33 74.59 74.81 75.46 76.10 76.54 76.65 76.31 75.59 76.21 75.97 75.43 74.53
73.87 74.54 76.22 77.14 77.87 77.92 78.60 78.39 78.33 77.22 77.51 76.81 76.34 76.64 77.86 77.29 76.31 75.93 76.49 75.58 75.60 75.90 76.81 76.11 77.37 75.79 75.38 75.15 74.38 74.69 74.45 74.63 75.11 75.61 75.57 76.36 76.39 76.86 76.35 75.86 75.99 75.83 75.09
75.20 75.74 76.04 77.02 77.59 77.23 77.35 78.13 77.82 77.22 76.67 76.27 76.23 77.42 77.63 78.31 77.21 77.62 75.66 75.26 76.20 76.02 75.98 75.81 76.16 75.86 75.25 75.08 74.76 74.81 74.83 74.93 74.99 75.56 75.91 75.62 76.06 76.55 76.99 76.45 77.05 77.04 76.29
76.19 76.68 77.50 77.56 77.31 77.15 77.67 78.50 77.51 77.20 76.87 76.12 75.75 75.93 76.83 77.58 77.49 77.35 74.44 74.84 75.79 76.03 74.96 74.62 76.19 74.23 74.60 74.20 74.12 74.25 74.33 74.48 74.82 75.25 75.52 75.30 75.32 74.93 76.73 77.04 77.15 77.24 76.34
76.22 76.92 77.60 77.98 77.40 77.31 77.92 77.94 77.53 77.81 76.80 76.70 76.48 77.53 77.52 77.54 77.43 77.16 76.53 74.27 75.88 74.42 74.11 73.71 74.05 74.40 74.90 74.67 73.63 73.72 74.13 73.81 74.20 73.99 74.26 74.72 75.41 75.29 75.08 76.53 76.48 76.91 76.38
77.30 77.84 77.85 77.56 78.04 78.50 77.95 78.31 79.42 79.05 80.04 79.94 79.10 77.06 77.64 77.37 77.01 77.01 75.73 75.68 75.82 74.20 73.40 73.42 74.56 74.56 73.93 73.41 72.78 72.36 73.05 73.52 73.78 73.59 73.62 74.32 74.74 74.92 75.28 75.58 76.83 76.17 76.65
76.42 76.81 77.40 77.36 77.83 77.64 76.90 76.46 76.07 75.51 76.48 76.99 76.96 77.67 77.70 77.65 77.42 77.40 77.37 76.12 77.31 75.89 75.03 75.32 74.84 73.34 72.60 73.69 71.65 71.71 72.13 73.06 73.23 73.43 73.52 73.63 74.11 74.34 74.70 75.11 75.11 75.51 75.95
75.92 76.63 77.16 77.57 78.33 78.25 77.49 78.47 77.27 76.38 75.86 76.03 77.30 77.07 76.41 75.91 76.10 75.39 75.40 74.45 74.89 73.86 74.41 74.48 74.86 72.92 71.92 74.01 70.62 70.26 66.93 69.38 71.47 72.86 73.22 72.77 73.41 73.92 73.79 74.58 75.36 75.87 75.76
75.36 76.30 76.82 77.64 77.89 78.36 77.81 77.05 75.10 73.77 74.40 72.38 73.34 72.75 74.76 74.78 74.52 74.45 74.34 74.21 74.23 73.70 72.52 73.69 73.56 72.59 71.00 72.08 73.24 70.35 66.01 65.00 67.68 71.07 72.53 72.63 73.03 73.11 73.71 74.05 74.52 75.13 75.91
75.14 76.68 78.43 78.76 78.25 76.57 74.89 73.65 72.68 69.44 68.78 70.51 71.08 71.50 72.67 73.02 73.13 73.39 73.54 73.54 74.02 73.15 72.70 72.63 72.47 72.27 72.51 70.53 72.30 72.53 72.18 70.41 66.75 65.09 70.58 71.79 72.87 72.51 73.45 73.61 73.57 74.62 75.69
75.97 76.66 76.77 76.12 74.98 74.08 73.59 72.53 69.81 70.01 69.74 70.30 69.86 70.56 71.77 72.06 72.40 72.30 73.10 72.48 72.81 72.17 72.61 71.92 71.55 72.15 72.52 71.38 71.18 71.13 71.10 70.47 71.25 68.56 66.10 67.83 71.37 72.33 72.90 73.52 73.82 73.70 74.56
75.20 74.53 73.32 73.63 73.47 73.20 71.15 70.75 70.60 69.78 69.34 68.32 69.13 68.72 68.63 69.44 70.43 71.89 71.20 71.31 71.57 71.38 71.33 71.25 71.92 71.73 72.61 72.64 71.98 71.99 71.24 69.61 68.65 68.98 67.91 67.57 67.91 69.16 71.85 72.66 72.96 73.38 73.99

GFSSE_sfc_wetblb_003.txt.gz
Wetbulb
74.01 74.83 76.51 77.76 78.39 78.42 78.72 78.60 79.00 79.00 79.11 79.08 79.00 78.95 79.15 78.86 79.16 79.33 79.25 79.08 78.84 78.69 78.23 77.88 77.96 78.14 78.22 77.96 77.70 77.24 76.99 76.83 76.92 77.16 76.48 75.84 75.11 74.68 74.79 74.88 74.64 73.74 74.99
75.40 75.93 77.05 77.79 78.20 78.32 78.76 79.16 79.13 79.01 79.08 78.92 79.15 79.01 78.87 78.28 78.19 79.51 79.57 78.71 78.62 78.22 78.10 77.96 77.91 77.32 78.16 77.70 77.36 77.31 77.06 76.98 76.76 76.47 76.39 76.25 75.42 75.57 75.30 74.92 76.12 75.12 74.97
74.69 76.23 76.70 78.73 78.32 78.38 78.78 78.83 78.62 78.80 78.53 78.75 79.27 78.73 78.50 77.57 77.64 77.96 78.13 77.95 78.23 77.63 77.77 77.74 77.49 77.46 77.54 77.67 77.44 77.68 76.67 76.43 76.23 76.13 75.88 75.71 75.68 75.55 75.75 74.94 75.32 75.18 74.76
75.45 76.18 76.83 78.54 78.82 78.11 78.72 78.72 79.18 78.90 78.66 78.79 79.22 78.68 78.40 77.47 77.82 78.26 78.04 78.29 78.20 77.90 77.66 77.43 77.54 77.38 76.80 76.52 76.22 76.43 75.93 75.81 75.98 75.54 75.02 75.58 74.89 75.61 75.37 74.52 75.54 74.56 74.28
76.01 77.70 78.12 78.39 79.11 78.47 78.68 78.54 79.42 79.25 78.57 78.47 78.94 78.64 78.11 77.47 77.26 78.01 77.93 77.82 77.82 77.63 77.49 77.38 77.19 76.77 76.04 75.79 75.85 75.28 75.57 75.80 76.21 75.36 75.21 75.32 73.70 75.69 75.82 74.32 74.38 73.69 72.31
76.64 77.55 78.36 78.61 78.92 79.02 78.79 78.60 78.28 79.14 78.55 78.47 78.40 77.86 77.77 77.21 77.74 77.66 77.58 77.55 77.58 77.44 77.35 77.05 76.74 76.52 76.04 75.88 76.02 75.20 75.80 75.71 75.09 75.98 75.43 75.73 75.99 76.22 75.57 74.74 74.46 74.58 73.42
76.66 77.24 78.02 79.29 79.47 79.33 78.72 78.56 78.40 79.21 78.54 78.56 77.86 77.53 77.66 77.94 77.69 77.41 77.27 77.16 77.05 76.91 76.65 76.54 76.26 76.13 75.76 75.91 75.85 75.91 75.93 75.77 76.02 76.85 76.70 73.78 76.58 76.40 75.24 74.82 73.42 74.80 74.03
76.40 77.22 77.73 78.70 79.39 79.55 78.57 78.74 78.55 78.54 78.22 78.16 77.81 77.63 77.63 77.69 77.44 77.08 76.80 76.85 76.57 76.22 75.84 76.05 76.04 75.60 75.68 75.96 75.99 76.32 76.02 76.35 75.30 75.32 76.75 75.38 76.10 76.36 75.95 74.98 73.82 72.98 73.11
76.32 77.41 77.79 77.99 78.15 78.50 78.83 79.05 79.15 78.97 78.24 77.90 77.74 77.57 77.52 77.74 77.38 77.08 76.71 76.43 76.00 75.85 75.76 75.87 75.95 75.49 75.82 75.96 76.32 75.93 75.93 76.35 75.52 76.22 76.05 75.19 76.76 76.40 75.87 74.57 74.56 73.52 72.65
76.82 77.02 78.20 78.18 78.24 78.38 78.11 77.92 78.53 78.56 78.25 77.82 77.69 77.58 77.68 77.46 77.61 77.33 77.55 77.16 76.15 75.99 76.58 76.82 76.85 76.57 76.04 76.02 76.10 75.99 76.05 76.46 75.60 75.25 76.11 76.11 76.87 76.28 75.78 75.38 74.91 73.74 74.09
76.20 76.52 76.98 76.42 77.17 79.08 78.37 78.43 78.51 78.45 78.06 77.74 77.52 77.27 77.39 76.41 76.98 77.63 78.55 76.54 76.26 76.48 76.62 76.79 76.80 76.63 76.93 76.82 76.30 76.10 75.96 75.74 74.40 76.11 75.68 75.05 76.83 76.22 75.63 75.99 74.87 74.94 73.81
74.53 75.72 75.72 76.46 76.75 77.93 77.27 78.18 78.18 77.36 76.84 76.76 76.78 78.30 76.76 78.51 79.00 77.19 77.57 77.16 77.21 77.13 77.33 77.10 77.24 76.96 76.07 75.29 76.46 76.54 75.91 75.82 75.46 75.42 76.35 75.75 75.61 76.00 76.48 75.85 75.52 75.12 74.84
74.60 75.05 75.61 77.19 77.49 77.19 78.37 77.11 77.08 76.94 76.41 76.90 78.18 78.85 78.08 76.41 77.87 76.27 75.21 77.71 76.48 76.69 76.20 76.49 76.74 76.50 75.68 74.16 74.47 74.67 74.58 74.48 74.14 75.71 75.15 76.59 76.13 76.01 76.03 75.83 76.22 75.12 75.08
74.36 74.80 76.06 77.31 78.11 77.68 77.29 76.11 76.14 75.66 76.04 75.88 76.24 78.59 77.61 75.61 77.72 76.65 75.90 76.13 77.03 75.45 75.63 75.79 74.76 75.64 74.96 75.10 74.51 74.40 74.66 74.49 74.44 74.63 76.01 76.89 76.67 76.01 75.56 76.39 76.38 76.20 74.85
73.91 74.72 75.92 77.45 77.96 78.18 78.44 76.47 76.95 75.93 75.42 75.53 75.97 77.34 76.63 77.29 76.82 76.17 76.56 75.42 75.86 75.06 75.65 75.87 75.93 74.50 75.41 74.86 74.69 73.99 73.80 73.73 73.97 73.96 74.72 77.37 76.87 76.66 75.74 76.57 76.85 76.35 75.51
73.91 74.52 75.78 76.72 77.92 78.61 78.27 78.63 77.53 75.74 77.46 76.81 76.95 76.52 77.80 76.11 78.44 75.63 76.70 75.39 76.41 75.65 76.16 75.64 76.82 75.33 75.30 74.76 74.27 74.36 74.31 74.21 74.40 74.69 74.33 76.62 77.52 77.20 76.68 75.92 76.81 76.85 75.98
73.91 74.50 75.78 77.10 77.96 78.07 78.38 78.98 79.06 76.55 75.55 76.08 75.77 78.09 76.50 77.47 77.59 77.81 75.65 74.93 75.23 75.87 76.71 75.93 75.62 76.25 74.28 74.31 74.08 74.21 73.95 74.95 74.40 74.49 74.58 74.69 76.54 77.40 77.24 76.93 77.10 77.47 77.29
74.76 75.61 76.61 75.93 77.44 77.62 77.92 78.32 77.87 77.05 76.20 76.63 75.50 75.63 76.37 77.21 79.17 78.36 74.54 73.70 75.08 75.48 75.42 75.33 74.80 73.98 73.92 73.94 73.49 73.55 73.51 74.21 74.42 74.70 74.65 75.03 74.79 75.45 77.04 77.42 77.29 77.44 77.20
76.30 76.87 76.85 77.22 77.01 78.12 78.45 78.32 78.03 79.37 76.61 76.41 77.27 77.35 78.14 77.81 77.26 77.77 75.28 74.51 76.07 74.63 74.10 73.89 73.86 73.43 73.33 73.26 73.12 73.80 74.01 73.28 73.32 73.55 74.36 74.60 75.10 74.84 75.21 76.80 76.55 76.88 76.87
76.36 77.23 77.37 77.16 78.23 78.30 79.73 78.68 78.27 79.43 76.90 77.31 77.22 76.88 78.66 78.84 77.71 78.28 77.69 76.48 77.02 76.12 75.62 74.79 75.21 74.36 72.94 72.81 72.35 72.07 72.88 73.29 73.40 73.01 73.01 73.66 74.11 74.57 75.14 76.11 76.55 76.20 77.20
76.43 77.22 77.53 77.71 78.98 78.51 78.38 77.29 78.85 75.45 77.49 76.69 79.21 77.87 77.60 77.52 77.57 77.42 76.91 76.38 76.80 74.82 75.74 75.51 74.46 74.55 73.13 74.01 72.04 71.03 71.98 73.31 73.06 72.88 73.30 73.25 73.53 73.59 74.54 74.99 76.24 75.97 76.86
75.59 76.67 77.53 78.03 78.89 78.86 77.99 78.72 78.03 76.61 75.28 75.06 76.05 76.98 77.23 75.85 76.94 75.55 75.75 74.70 76.24 72.69 75.65 74.24 74.14 71.67 71.98 72.59 69.85 71.29 67.46 69.52 71.44 71.84 73.61 72.99 73.21 73.23 73.27 75.56 75.78 77.10 76.57
75.30 76.48 77.34 78.32 78.79 79.33 78.94 78.74 76.84 76.08 75.43 72.99 72.86 73.11 74.25 74.11 73.89 74.75 74.62 74.24 74.37 74.19 70.73 73.49 73.13 72.46 70.27 72.56 73.05 69.73 66.70 64.84 67.78 71.11 73.52 72.96 74.34 72.81 73.19 74.10 75.46 76.07 77.55
74.46 76.42 77.75 78.51 79.22 78.06 76.37 74.86 74.47 70.72 68.68 71.01 70.68 71.07 72.09 72.54 72.84 73.22 73.49 73.21 73.63 72.91 73.14 72.58 72.18 72.07 71.75 69.64 72.14 72.55 71.92 70.53 67.62 65.73 69.91 70.25 74.63 73.50 74.19 73.66 73.85 75.31 77.01
74.34 75.50 77.28 78.15 76.50 75.52 74.34 73.41 70.39 71.13 68.53 68.86 69.35 70.64 73.08 73.60 72.48 72.06 72.80 72.76 72.44 71.86 73.08 72.19 71.88 72.39 72.49 71.02 70.83 71.34 71.30 71.57 71.45 69.51 66.19 68.65 71.39 70.98 72.91 74.02 73.83 74.16 75.72
74.56 75.59 76.15 75.20 75.24 74.51 72.81 72.20 71.04 69.96 69.71 68.04 69.32 68.61 68.72 68.79 69.84 71.73 71.35 71.57 71.94 71.50 71.23 70.98 71.76 71.28 72.21 72.55 71.68 71.85 70.42 68.95 69.52 70.27 68.62 67.69 68.16 70.75 71.32 72.12 73.61 74.06 74.66

GFSSE_sfc_wetblb_006.txt.gz
Wetbulb
72.43 75.22 77.62 78.27 78.09 78.16 78.39 78.68 78.51 78.67 78.43 78.48 78.68 78.97 78.96 79.17 79.18 79.09 79.15 79.22 79.10 79.08 78.93 78.28 78.62 78.42 78.01 77.77 77.28 77.22 77.04 76.85 77.08 76.45 75.98 75.22 74.98 74.89 75.17 74.40 74.92 73.42 75.18
74.07 75.32 78.34 78.75 78.24 78.15 78.09 78.41 78.26 78.52 78.63 79.02 78.96 78.97 79.03 79.41 79.67 79.28 79.19 78.89 78.82 78.78 78.56 78.32 78.24 78.21 77.74 77.31 77.17 76.92 76.87 76.64 76.51 76.60 76.09 75.34 75.39 75.61 75.10 75.29 75.85 74.13 74.58
74.24 75.01 76.68 78.80 78.80 78.34 78.30 78.31 78.58 78.36 78.98 79.06 78.84 78.75 78.52 78.67 79.19 78.99 78.90 78.94 78.91 78.46 78.01 77.76 77.59 77.57 77.42 77.15 77.19 77.08 75.51 75.53 75.81 75.93 75.24 74.84 74.54 75.89 75.46 75.35 75.52 75.26 74.44
74.64 75.24 75.77 78.65 78.90 78.80 78.45 78.36 78.55 78.70 78.90 78.88 78.99 78.62 78.66 78.78 78.92 78.89 78.79 78.35 78.21 78.19 77.60 77.60 77.29 76.91 76.54 76.18 75.79 75.99 75.65 75.29 74.68 74.38 74.13 74.10 74.11 75.75 74.96 75.97 75.07 74.53 74.64
75.93 76.54 77.30 78.99 78.88 78.66 78.79 79.20 79.15 79.07 79.09 79.09 78.97 78.74 78.65 78.42 77.52 77.83 77.70 77.72 77.73 77.78 77.54 77.24 76.77 76.49 75.96 75.64 75.47 75.59 75.70 75.96 75.82 74.57 74.40 74.13 74.02 74.99 74.76 74.24 73.98 73.17 74.19
76.19 76.44 78.16 79.03 78.92 79.10 78.93 79.03 79.29 79.13 79.05 79.21 78.84 78.77 78.35 78.11 77.90 77.66 77.74 77.71 77.40 77.29 77.21 77.02 76.52 76.07 75.68 75.45 75.33 75.45 75.76 75.52 73.88 72.69 74.00 75.02 74.43 75.77 75.25 74.60 75.08 73.58 74.26
75.59 76.39 77.51 79.72 79.86 79.44 79.34 79.43 79.35 79.18 78.97 78.74 78.46 77.91 78.50 78.37 77.74 77.74 77.58 77.41 77.05 76.90 76.54 76.25 75.94 75.49 75.43 75.71 75.90 75.74 75.85 75.73 73.11 73.18 73.89 73.53 74.70 76.81 75.91 74.57 75.04 74.28 74.48
75.43 76.19 76.75 78.98 79.23 79.07 79.13 78.80 79.34 78.92 78.68 78.57 78.51 78.55 78.45 77.82 77.55 77.24 76.93 76.82 76.56 75.91 75.56 75.62 75.44 75.17 75.23 75.57 75.79 76.68 76.71 75.93 74.36 74.29 73.99 74.15 75.35 76.61 75.78 74.16 74.37 74.48 74.41
76.47 76.54 77.15 76.89 78.07 78.90 79.37 78.85 78.94 79.06 78.61 78.20 78.33 78.15 77.79 77.63 77.38 77.27 76.93 76.54 75.63 75.50 75.49 75.82 76.15 75.85 76.27 76.54 76.76 77.41 76.92 76.35 74.87 75.12 74.45 73.91 76.62 76.77 75.56 75.13 73.47 72.92 73.38
76.24 76.74 77.37 77.45 77.36 77.74 77.57 79.32 78.83 79.04 78.70 78.27 77.62 77.24 77.35 77.66 77.69 77.21 76.76 77.31 76.36 75.90 75.98 76.56 76.80 76.96 77.28 77.57 77.43 77.54 77.31 76.38 74.87 74.23 74.50 73.35 76.48 76.70 75.77 75.26 74.35 73.76 72.51
74.95 75.94 75.88 76.77 77.85 78.59 77.62 77.26 78.94 78.44 78.60 77.90 77.41 77.55 77.77 76.06 75.45 70.80 69.59 73.98 77.40 76.79 76.65 77.04 77.41 77.83 77.74 77.73 77.93 77.98 76.88 74.55 74.81 75.12 73.82 74.74 76.91 76.84 75.90 75.34 74.71 74.08 74.64
73.88 74.92 76.03 76.38 77.11 77.68 76.14 77.47 78.02 77.53 76.83 76.96 76.99 77.76 76.93 77.05 76.95 74.49 70.78 74.35 77.32 77.24 77.91 77.60 77.48 78.05 76.29 74.61 75.70 77.46 75.43 74.18 75.13 74.48 73.79 74.07 76.36 76.97 75.77 76.15 75.89 74.86 74.09
74.54 74.79 75.31 77.58 78.51 77.67 76.14 77.19 77.52 77.21 76.69 76.91 78.69 79.09 79.22 79.00 73.32 77.22 73.84 74.69 77.60 78.32 76.12 77.48 76.73 76.08 74.93 74.55 74.06 73.64 74.20 74.24 73.17 74.12 74.69 75.35 75.75 76.67 76.47 76.09 75.97 75.53 75.13
73.75 74.90 75.63 75.71 77.05 77.66 75.54 77.01 77.02 76.73 76.97 74.02 76.99 79.06 79.25 77.24 78.63 78.10 76.90 77.54 77.64 75.54 77.38 76.90 75.49 76.70 75.76 76.12 74.24 74.02 73.31 72.76 72.88 74.14 74.76 76.06 76.58 77.05 76.11 76.12 76.27 75.66 74.92
73.35 74.59 76.43 76.96 77.67 79.70 76.65 79.23 75.29 75.34 75.14 76.76 77.29 77.49 77.60 77.99 77.77 77.48 77.84 77.07 76.88 76.94 75.32 76.27 76.82 75.79 75.31 75.40 75.33 74.87 73.55 73.48 73.52 73.67 74.57 76.93 76.73 77.04 76.77 76.91 76.27 76.37 75.84
73.87 74.24 76.04 76.93 78.89 79.43 79.51 79.90 80.16 76.34 75.10 78.71 77.57 75.71 77.95 76.34 77.36 77.07 75.96 76.39 77.34 75.40 77.44 76.22 76.54 75.61 74.99 75.10 74.35 74.61 74.11 74.49 74.48 74.71 74.55 75.13 76.41 76.59 76.92 76.93 77.03 76.89 76.68
73.38 74.44 76.10 76.38 78.17 78.63 78.87 79.93 80.02 78.15 75.97 77.58 76.14 78.11 78.29 77.84 78.52 77.89 76.65 75.55 75.58 77.30 77.69 76.84 76.01 75.20 74.70 74.27 74.14 73.01 74.56 74.30 73.65 74.44 74.36 74.60 74.42 76.50 76.91 76.68 77.04 77.85 77.69
73.86 74.89 74.88 74.74 76.96 78.11 78.66 78.78 78.33 77.51 77.00 78.33 78.39 76.38 77.41 78.33 78.78 77.11 76.03 75.01 75.95 76.57 75.25 75.86 75.33 73.77 73.96 73.40 73.71 74.03 73.95 74.10 73.56 73.86 74.38 73.95 74.47 74.64 76.31 76.81 76.92 77.02 77.84
75.85 76.41 75.36 76.16 77.00 78.08 78.43 79.02 78.27 79.15 78.04 79.08 77.02 78.09 76.96 79.29 78.50 77.36 75.99 76.22 76.80 74.91 74.39 73.97 73.66 73.88 72.31 71.72 72.33 73.03 73.49 73.63 72.43 72.72 73.25 73.62 73.64 74.05 74.56 75.72 75.85 76.01 76.99
75.56 75.23 76.24 76.36 79.38 77.76 78.55 79.63 79.27 78.81 77.37 77.99 78.30 77.29 78.09 78.73 78.06 77.01 76.39 75.63 75.39 74.72 74.03 73.56 72.81 73.04 72.66 72.60 72.06 71.32 71.89 72.75 72.61 71.45 71.26 72.96 73.30 73.45 73.68 74.49 74.66 74.47 76.71
75.49 77.38 75.77 76.52 80.70 79.90 78.05 76.46 77.40 75.82 77.84 77.22 78.27 78.47 78.43 78.65 77.42 77.25 76.51 76.09 75.59 73.88 74.33 74.44 73.82 72.61 71.22 73.12 70.56 69.57 71.03 71.65 72.07 72.78 72.70 71.57 71.79 72.88 73.14 73.61 74.80 74.01 74.68
76.02 77.10 78.23 78.84 79.43 79.48 79.60 79.14 78.41 78.27 77.69 77.30 76.78 77.93 77.80 76.29 75.87 77.19 77.17 74.97 73.96 73.03 73.12 73.47 73.59 71.25 71.04 71.33 68.58 67.28 65.40 67.50 70.39 71.52 72.21 71.71 71.76 72.55 72.19 72.83 73.59 74.40 74.44
74.92 76.35 77.65 78.72 78.79 79.63 79.85 80.08 78.66 77.88 77.88 75.64 76.35 73.09 74.16 74.12 74.84 75.97 75.77 75.10 74.59 73.96 71.01 71.78 72.20 70.28 68.64 71.07 70.39 67.63 64.35 62.71 66.11 69.70 70.90 71.55 71.31 71.26 72.11 72.43 73.06 73.26 74.45
74.77 76.61 77.92 79.04 79.68 79.51 79.63 78.53 76.87 74.09 70.78 74.64 74.71 73.55 73.07 74.58 74.30 74.13 74.45 74.44 74.35 73.04 72.01 72.11 71.27 70.85 70.92 68.24 69.92 70.84 69.10 67.67 64.57 63.33 68.55 70.13 71.51 71.03 72.05 72.04 72.20 73.16 73.30
74.75 75.37 77.41 79.22 79.11 78.10 77.47 76.35 74.29 73.91 71.25 71.99 72.15 72.99 74.22 73.40 74.17 73.23 74.74 73.97 72.71 72.14 71.69 71.50 71.29 70.75 70.13 69.29 68.51 68.71 68.71 67.52 68.15 65.89 63.42 65.75 68.74 71.73 71.05 70.99 69.92 70.95 73.11
74.04 75.01 76.96 77.40 77.12 77.00 75.85 75.13 74.08 73.25 72.60 71.07 71.67 71.02 70.50 71.64 71.83 73.53 72.14 72.79 72.89 71.84 71.32 70.43 71.45 70.70 70.15 69.69 69.35 68.60 67.27 65.89 65.45 64.56 63.88 65.00 65.88 68.02 70.86 70.20 70.17 70.43 71.04

GFSSE_sfc_wetblb_009.txt.gz
Wetbulb
72.22 74.87 77.20 77.33 77.97 78.50 78.52 78.27 78.80 78.77 78.62 78.77 78.85 78.80 78.87 79.25 79.40 79.36 79.32 79.41 79.46 79.25 79.23 78.37 78.37 78.04 77.63 77.38 77.31 77.12 77.03 76.97 76.84 76.19 75.49 75.22 75.29 75.64 74.43 74.38 75.16 73.44 74.52
73.63 76.26 78.29 78.31 78.07 77.91 78.36 78.80 78.70 78.67 78.82 78.91 78.95 79.28 79.39 79.21 79.53 79.32 79.11 79.32 79.19 79.18 78.52 78.27 78.02 77.80 77.63 77.46 77.18 77.08 76.78 76.77 76.00 75.58 75.26 75.34 75.58 75.19 74.82 74.84 74.99 73.49 74.32
74.12 75.99 76.52 78.34 78.49 78.63 78.75 78.22 78.10 78.14 78.78 78.91 78.93 79.32 79.41 79.32 79.23 79.30 79.23 79.08 78.84 78.85 77.86 77.63 77.63 77.60 77.21 77.16 77.07 76.86 76.04 76.49 75.43 75.29 74.49 74.01 74.60 75.64 75.42 75.28 75.13 74.33 75.02
74.27 75.47 76.43 78.07 78.37 78.42 78.49 78.43 78.88 78.80 78.94 78.96 78.98 79.05 79.20 79.26 79.10 79.10 78.14 78.05 78.69 78.19 77.44 77.33 77.23 76.92 76.67 76.48 76.78 77.32 77.09 76.23 75.32 75.00 73.10 73.97 73.77 75.17 75.39 75.23 74.61 74.74 74.56
73.84 75.94 76.80 78.93 78.66 78.87 78.57 78.78 79.52 78.99 79.30 78.90 78.97 79.17 78.96 78.76 78.21 77.82 77.84 77.65 77.68 78.09 77.27 77.09 76.84 76.76 76.51 76.21 76.87 77.07 76.94 75.84 74.95 73.99 73.18 72.41 71.81 74.32 74.75 74.50 73.58 74.06 74.42
74.60 76.28 78.53 79.30 79.49 79.40 79.46 79.46 79.50 79.39 79.10 79.02 79.01 78.68 78.61 78.41 78.00 77.61 77.61 77.36 77.33 77.25 77.09 76.90 76.62 76.43 76.10 76.15 77.06 77.02 76.53 75.32 73.23 71.27 72.16 73.29 72.68 74.92 74.19 74.71 74.19 73.96 74.52
74.48 76.21 77.26 79.12 79.15 79.24 79.52 79.54 79.39 79.19 79.03 78.99 78.80 78.45 78.72 78.82 78.00 77.83 77.37 76.99 76.71 76.65 76.49 76.12 75.81 75.68 75.87 75.62 76.00 76.55 75.93 75.60 72.21 73.01 73.34 72.86 73.36 75.95 74.96 75.37 74.12 74.86 74.52
74.46 76.31 77.22 79.19 79.53 79.63 79.02 78.69 79.56 78.93 78.64 78.65 78.76 79.06 78.68 78.84 78.44 78.20 77.01 76.63 75.98 75.66 75.57 75.59 76.68 76.59 76.34 76.36 76.89 77.11 76.39 75.26 74.48 73.80 73.67 73.08 74.60 76.65 75.23 74.54 74.86 74.32 74.92
74.71 75.36 76.50 77.04 77.91 79.16 79.43 79.18 78.77 78.98 78.61 78.97 79.01 78.73 78.58 77.94 77.50 77.37 77.07 76.88 76.08 76.02 76.03 76.17 77.48 77.45 77.21 77.35 77.43 76.56 76.89 76.40 73.62 73.25 74.12 73.38 75.89 76.55 74.87 73.99 74.95 74.60 74.77
74.29 74.68 74.66 75.32 76.09 76.74 77.28 78.94 78.26 78.72 78.31 78.85 78.70 78.11 78.44 77.55 76.87 75.68 75.03 76.24 77.21 77.07 76.78 77.13 77.55 77.43 78.27 77.92 77.56 77.10 76.30 76.67 73.52 73.25 72.68 72.43 75.22 76.74 75.30 74.35 73.14 73.35 74.69
74.21 74.12 74.41 74.06 74.79 75.15 76.17 77.65 78.98 78.74 78.89 78.69 77.97 78.33 77.67 74.71 70.66 70.74 73.94 74.09 75.58 77.68 77.43 77.59 77.46 77.02 77.92 77.01 77.43 76.85 76.79 74.09 73.17 73.75 72.81 72.44 75.59 77.01 75.68 75.41 74.32 73.56 73.41
71.78 73.35 74.27 74.47 74.61 74.99 76.06 75.87 75.99 76.21 75.89 75.16 75.09 74.76 74.62 73.40 72.65 73.42 73.17 73.63 75.37 77.84 78.35 78.30 77.12 77.64 77.49 73.80 72.88 76.57 74.44 74.50 72.52 72.68 72.43 75.02 76.72 76.82 76.31 75.68 74.69 74.09 74.60
72.15 72.73 72.67 73.48 74.12 74.67 74.49 74.44 74.87 74.35 74.48 74.74 74.44 74.52 74.17 74.53 72.43 74.04 71.52 73.62 73.75 76.04 74.47 75.54 75.16 74.72 74.28 73.43 72.22 71.47 72.80 74.23 72.95 72.91 73.13 75.54 76.88 77.31 76.23 76.10 75.36 74.77 74.27
71.61 72.46 73.91 74.88 74.68 74.17 75.09 74.42 74.32 74.35 73.80 73.42 74.12 74.99 73.70 73.23 72.69 72.80 72.35 72.58 72.98 72.85 73.67 72.12 71.44 73.31 72.67 72.51 71.62 72.55 70.31 69.92 70.90 72.68 73.87 76.05 76.57 77.63 76.60 76.28 76.01 75.63 75.18
71.32 73.40 73.96 73.96 74.91 73.95 73.49 74.84 73.29 74.24 74.51 74.05 74.18 74.53 74.95 73.44 72.49 72.19 72.68 71.66 72.68 72.78 71.64 72.28 72.58 71.94 72.48 72.95 72.28 72.05 71.08 70.08 69.92 72.98 72.20 76.43 76.27 76.60 76.91 76.64 76.16 76.09 75.50
70.47 73.23 74.49 73.90 75.49 74.55 74.57 74.35 74.81 74.44 72.02 73.97 73.69 74.03 74.94 74.42 74.02 72.96 71.85 72.06 73.25 72.19 73.40 72.38 72.24 71.97 71.50 72.11 72.34 72.10 71.73 71.66 70.65 71.05 72.69 73.84 76.11 76.60 77.17 76.76 76.73 76.78 76.53
69.88 73.51 73.85 74.21 75.19 74.14 74.15 74.64 75.02 74.49 73.88 71.52 72.91 73.82 72.22 72.20 73.17 72.89 71.63 72.09 72.01 72.71 72.87 72.99 72.89 72.80 72.14 72.36 71.03 71.70 71.76 71.74 71.05 70.76 71.83 73.13 74.55 76.76 76.58 76.44 77.30 77.10 77.46
69.91 72.26 73.99 75.71 75.26 74.49 74.43 75.05 74.76 74.55 73.57 73.81 74.43 73.73 74.17 74.90 72.94 72.68 71.75 71.65 72.33 72.31 71.82 71.36 71.28 70.66 70.43 70.27 70.17 70.53 70.87 70.97 71.40 71.27 72.65 72.85 72.71 73.00 75.45 76.14 76.17 76.76 77.63
72.55 72.71 72.14 73.25 74.14 74.62 75.18 75.14 74.73 74.89 74.16 74.19 73.40 74.94 74.81 75.53 74.79 72.77 72.53 72.89 73.04 71.86 71.02 70.88 70.94 69.86 69.32 69.64 69.37 69.24 69.77 70.60 71.35 72.64 71.68 72.09 72.20 73.24 72.69 75.33 75.89 75.70 76.88
73.57 72.34 73.41 72.81 74.13 75.54 74.32 74.35 74.77 73.80 73.34 73.57 74.20 72.69 73.34 73.77 74.03 72.31 71.77 71.48 71.70 71.17 70.66 70.66 69.46 69.75 69.62 69.37 71.22 69.95 69.62 70.01 70.54 70.18 70.33 71.63 72.33 72.66 73.46 73.06 73.63 73.66 75.66
72.54 72.50 72.86 73.34 74.79 73.69 73.06 72.01 72.35 70.23 72.62 72.83 73.36 74.22 73.80 73.45 73.65 72.25 71.62 71.75 70.66 70.43 70.07 70.47 69.63 68.77 67.62 68.50 66.52 65.74 66.86 68.80 69.29 69.72 70.17 70.18 70.01 71.04 71.76 71.91 72.78 73.00 73.14
72.10 73.00 73.11 73.70 74.37 73.73 73.89 73.88 73.50 73.37 73.17 73.20 73.45 74.01 73.27 73.42 73.62 73.67 71.70 69.28 68.70 68.70 67.55 66.55 67.28 66.12 67.00 68.09 64.78 63.65 60.95 63.11 66.54 68.54 68.62 69.87 69.13 69.99 69.82 71.94 72.44 72.92 72.55
72.62 73.16 73.54 74.25 73.98 74.38 73.86 74.77 73.85 73.14 72.26 69.80 69.92 70.04 69.41 69.29 70.32 69.63 69.02 68.48 68.59 68.25 67.14 67.24 67.15 66.19 64.70 66.27 66.42 63.48 60.21 58.44 62.54 64.26 65.99 68.35 69.77 68.34 69.18 70.72 71.20 72.33 72.61
72.95 74.16 74.96 74.34 74.08 74.77 74.94 72.73 71.20 69.11 62.41 67.09 67.45 67.14 66.98 69.31 68.24 68.19 68.02 68.78 67.73 67.53 67.06 66.97 68.03 66.08 65.59 64.03 65.46 66.43 63.89 63.57 60.38 59.88 63.84 65.69 67.01 68.56 69.87 70.86 70.07 70.02 69.82
73.54 73.72 74.61 74.17 74.96 73.93 68.97 68.82 65.81 62.25 63.33 65.22 65.38 64.30 63.02 65.25 67.73 69.31 69.13 67.87 67.12 66.66 66.30 66.61 65.88 65.81 65.54 64.41 63.72 63.70 63.75 64.01 62.73 61.12 59.95 61.68 64.70 66.33 68.49 69.06 69.60 68.32 66.75
72.87 74.35 74.90 74.24 71.22 70.69 67.37 65.80 63.67 62.40 62.61 62.76 63.79 62.85 64.02 63.94 65.08 68.43 67.85 66.28 66.47 66.27 66.25 65.52 66.01 65.39 64.57 64.25 64.19 63.61 62.40 61.37 61.27 60.45 59.39 60.41 61.48 63.08 65.72 68.14 68.39 67.76 67.83

GFSSE_sfc_wetblb_012.txt.gz
Wetbulb
71.83 73.76 77.25 77.07 77.00 77.42 77.59 77.88 78.39 78.72 78.62 78.44 78.30 78.91 79.17 79.33 79.29 79.41 79.26 79.12 78.79 78.77 77.96 77.97 77.78 77.19 77.11 77.12 76.93 76.56 76.59 76.34 76.02 75.16 75.40 75.63 75.72 74.75 74.22 74.42 74.34 72.19 73.83
73.67 75.01 77.27 77.65 77.94 77.79 78.13 78.54 78.80 78.57 78.84 78.62 78.75 79.15 79.25 79.20 79.25 79.28 79.43 78.92 78.55 78.17 78.15 77.87 77.56 77.21 77.28 77.04 76.59 76.26 76.47 75.84 75.93 75.37 75.53 75.55 75.45 74.64 74.43 74.58 73.95 73.13 74.20
74.47 75.65 76.59 78.25 78.51 78.22 78.65 77.91 78.15 78.92 78.99 79.09 79.12 79.16 79.24 78.76 78.66 78.89 78.75 78.16 78.28 77.73 77.48 77.59 77.45 77.07 76.66 76.52 76.47 75.95 75.45 75.72 75.62 75.37 75.17 73.49 74.05 75.16 75.06 74.67 73.89 74.48 74.02
74.73 75.52 76.35 78.05 78.65 78.14 78.16 78.59 78.93 78.67 78.41 79.00 79.13 79.17 78.98 78.89 78.92 78.18 77.72 77.85 77.72 77.54 77.38 77.10 76.86 76.64 76.06 75.87 75.89 76.00 75.81 75.70 75.39 74.94 73.28 73.99 73.47 74.81 74.94 73.87 73.83 74.37 73.06
74.70 75.35 75.99 78.43 78.72 78.29 78.58 79.00 78.85 78.74 78.47 78.83 78.86 78.99 79.12 78.19 77.72 77.89 77.65 77.31 77.36 77.34 76.88 76.78 76.56 76.23 75.62 75.65 75.59 75.75 75.71 75.03 74.45 73.12 72.57 71.85 71.33 74.09 74.44 73.41 73.61 74.12 73.33
74.85 75.66 77.90 78.71 78.21 78.45 78.98 78.88 79.05 78.68 78.68 78.58 78.58 78.21 77.99 77.76 77.38 77.63 77.46 77.51 77.31 77.12 76.69 76.39 76.31 75.84 75.43 75.40 75.70 75.20 75.79 73.51 72.20 71.51 72.59 73.53 72.16 73.98 74.12 73.57 73.68 74.23 74.30
74.74 76.17 76.74 78.36 78.37 78.59 78.86 79.47 79.10 78.72 78.27 78.35 78.25 77.96 78.16 77.98 77.52 77.63 77.46 77.11 76.84 76.50 76.40 75.90 75.43 75.04 74.96 75.01 75.25 75.28 75.07 75.19 71.81 72.29 72.61 72.43 73.13 75.06 74.85 74.63 73.65 74.17 73.64
74.62 75.83 76.37 78.10 78.23 78.70 78.88 78.41 79.05 78.43 77.87 78.08 78.33 78.29 78.37 77.82 77.56 77.35 76.84 76.76 76.51 76.04 75.67 75.29 75.21 75.12 75.31 75.14 75.44 75.66 75.47 74.68 74.26 73.00 73.57 72.41 74.32 75.55 74.97 75.03 74.10 74.63 73.78
75.90 76.04 76.38 76.54 77.31 78.41 79.20 78.48 78.12 78.21 77.79 77.88 78.29 78.05 77.96 77.36 76.88 76.64 76.51 76.42 76.20 75.81 75.61 75.84 76.37 76.73 76.53 76.55 76.50 76.54 75.93 75.44 73.08 73.13 73.00 72.81 76.02 76.03 74.86 74.44 74.57 74.51 74.22
74.90 75.58 75.68 75.64 76.21 76.48 77.20 78.69 77.74 77.97 77.76 77.65 77.77 77.65 77.57 77.07 76.75 76.31 74.92 76.48 76.78 76.71 76.54 76.45 76.86 76.83 77.03 76.79 76.70 76.94 76.27 75.14 72.54 73.24 73.41 73.04 75.60 76.21 74.59 74.46 74.32 74.47 74.88
73.93 74.27 74.70 75.05 75.45 75.69 76.19 76.93 78.57 78.00 78.12 77.79 77.41 77.39 77.88 74.87 73.44 70.48 72.83 74.74 75.72 76.66 76.09 77.48 77.03 76.46 77.04 76.54 77.55 76.96 76.87 73.96 72.22 72.92 70.57 70.74 75.55 76.47 75.14 74.43 73.43 73.84 74.89
71.62 72.35 73.42 74.43 74.92 75.29 77.07 75.66 75.99 75.55 75.67 75.13 74.83 74.43 74.38 73.49 72.33 72.02 73.07 75.27 74.93 75.29 76.92 77.48 76.68 77.20 76.28 74.11 72.46 74.83 73.43 74.17 72.64 73.10 72.33 71.89 74.45 76.48 75.90 75.06 74.06 73.28 73.93
72.18 72.72 72.55 73.23 73.81 73.80 74.31 74.27 74.48 74.58 74.42 74.01 73.57 73.45 73.29 73.38 72.30 73.41 72.00 71.62 72.11 74.70 73.73 74.56 74.07 73.94 73.14 72.95 72.64 71.35 71.77 73.45 72.70 72.86 73.05 74.22 74.77 77.06 76.26 75.94 74.68 74.21 73.77
71.50 72.15 72.80 73.31 73.83 73.60 74.59 74.44 74.17 73.74 73.63 73.29 73.23 73.40 72.99 72.56 71.10 70.71 71.43 71.34 71.81 72.25 72.13 71.47 71.15 71.84 72.14 72.58 71.31 70.96 69.92 69.24 70.60 72.56 72.38 75.55 75.72 76.41 76.79 76.08 75.73 74.67 74.46
70.82 71.56 72.70 73.88 73.60 72.98 73.63 73.62 73.51 74.09 73.75 73.35 73.13 73.08 73.72 73.42 71.55 71.41 71.66 71.08 70.80 71.68 70.68 71.48 71.70 71.23 70.94 71.15 72.06 71.94 70.94 70.26 69.56 71.84 71.98 75.61 75.80 76.23 76.97 76.62 76.16 75.64 75.18
71.55 72.70 73.92 73.87 73.45 72.69 72.45 73.29 72.81 72.98 74.27 73.13 73.57 73.45 73.60 73.69 73.20 71.05 71.30 70.36 71.62 71.58 72.22 71.99 71.37 70.86 70.78 71.47 71.54 71.72 71.82 71.32 70.61 71.18 72.04 73.10 76.36 75.93 76.58 76.80 77.29 76.55 75.90
71.85 73.21 73.32 73.28 73.63 72.93 73.39 73.33 73.62 73.62 73.01 71.28 73.05 73.11 74.00 73.53 72.31 72.67 70.65 70.24 70.39 71.30 71.57 71.79 71.22 71.06 70.41 70.87 70.45 70.91 71.14 71.59 71.64 71.47 71.71 71.86 73.64 76.36 76.10 76.04 77.13 76.86 77.42
71.65 71.88 73.09 74.37 73.66 72.45 72.84 73.58 73.90 73.84 72.81 72.03 72.03 72.31 73.38 72.83 72.38 71.95 70.08 70.38 71.04 71.12 71.23 69.39 69.78 69.66 69.27 69.20 68.68 69.24 69.12 69.94 70.68 70.52 69.99 72.83 72.71 72.92 74.83 75.68 75.74 77.06 77.21
70.89 72.23 73.19 73.01 72.86 72.98 73.57 74.02 73.78 73.61 73.29 72.66 72.15 72.74 73.48 74.51 74.39 72.02 70.96 71.45 71.17 69.75 69.19 69.46 69.28 68.83 68.04 68.26 68.85 69.30 68.97 69.09 69.83 71.42 70.55 70.25 71.69 71.99 72.26 74.43 74.87 75.51 76.60
70.05 71.73 72.70 72.49 73.16 73.69 73.75 73.35 73.59 73.03 73.09 72.41 72.89 72.53 73.20 72.28 72.69 72.17 72.08 70.35 70.54 69.77 69.16 68.87 68.06 67.95 68.24 67.66 69.34 68.65 68.08 68.15 68.58 68.74 69.67 71.10 70.75 72.09 72.41 71.58 72.73 74.20 75.37
70.67 69.74 70.73 71.20 72.72 72.88 72.00 71.03 70.42 69.95 70.72 71.62 71.83 72.84 72.39 72.60 72.79 71.28 70.27 70.57 70.12 68.77 67.74 67.04 67.34 66.78 66.40 66.98 64.55 64.15 65.32 66.47 66.47 66.86 68.40 69.27 69.72 70.21 70.08 71.90 71.58 72.37 72.88
69.97 69.93 70.61 71.54 72.70 72.55 72.07 71.18 71.75 71.28 71.09 71.56 72.02 72.66 72.73 72.61 72.35 72.45 70.42 68.60 68.05 67.03 65.62 65.74 65.27 64.20 64.93 66.26 63.53 61.57 59.28 61.56 63.92 65.52 65.84 67.39 68.33 69.27 70.09 70.27 70.60 71.68 71.54
69.65 71.00 70.99 72.40 72.22 72.18 72.52 72.49 72.02 71.57 70.69 68.45 68.10 68.91 69.47 69.95 70.27 68.28 67.80 67.01 67.01 65.87 65.35 65.35 65.29 64.27 62.69 64.14 64.63 62.50 59.50 56.41 60.46 62.81 64.10 65.65 66.13 67.41 68.15 69.55 70.61 70.03 69.39
70.81 72.11 71.83 72.31 72.26 72.77 72.03 72.14 70.49 67.74 65.94 64.89 65.30 64.71 65.70 67.42 66.91 66.79 66.81 67.14 66.52 66.04 65.09 65.06 66.18 64.62 63.80 61.55 63.06 65.40 63.31 62.42 58.18 57.92 61.65 62.95 63.79 64.76 65.96 67.95 70.55 70.38 69.27
72.04 72.57 72.83 71.93 71.94 72.62 72.22 70.93 68.75 63.13 62.37 63.96 64.40 63.01 61.43 63.26 66.18 67.76 67.71 66.35 65.34 64.64 64.27 64.30 63.50 63.53 63.70 62.75 62.00 61.86 61.46 61.56 60.94 58.80 56.35 59.30 61.35 62.83 64.52 65.89 67.63 68.98 69.03
72.17 72.92 73.20 71.62 71.52 71.67 67.30 66.14 62.38 61.61 61.45 62.29 61.74 60.18 62.59 61.00 65.97 66.66 66.01 64.57 65.03 64.67 64.21 63.67 64.01 63.24 62.78 62.58 62.35 61.65 60.90 59.59 58.98 58.58 57.17 57.51 58.47 60.57 62.24 63.62 65.08 66.75 67.36

GFSSE_sfc_wetblb_015.txt.gz
Wetbulb
71.77 73.87 76.10 76.53 76.19 76.37 76.03 76.02 76.16 76.85 77.46 78.07 78.28 78.66 78.57 78.58 78.86 78.81 78.70 78.16 78.05 78.12 77.76 77.40 76.75 76.72 76.55 76.36 76.21 76.03 75.96 75.78 75.11 75.13 75.54 75.65 74.54 74.29 74.49 74.73 73.63 71.80 73.31
72.63 73.99 76.40 76.69 76.48 76.32 76.80 76.97 77.29 77.82 77.96 78.18 78.36 78.87 78.68 78.61 78.37 78.69 78.37 78.07 78.04 77.83 77.54 77.10 76.54 76.74 76.12 76.29 75.94 75.64 75.48 75.46 75.12 75.26 75.44 75.46 74.68 74.06 74.17 74.11 73.71 72.87 73.36
72.92 74.18 75.74 77.28 77.31 77.35 77.81 77.91 77.77 77.97 77.89 78.57 79.01 78.46 78.70 78.24 77.99 77.91 78.00 77.80 77.68 77.28 77.32 77.12 76.49 76.28 76.14 76.11 75.86 75.13 74.82 74.99 75.09 75.10 75.35 73.57 73.12 75.22 74.82 73.96 74.07 73.92 74.10
74.58 74.84 75.84 77.37 78.08 77.42 78.14 78.27 78.35 78.29 77.97 78.85 78.77 78.89 78.49 78.00 77.89 77.75 77.65 77.57 77.28 77.12 76.91 76.42 76.20 75.81 75.43 75.51 75.56 75.45 74.72 74.61 74.82 74.14 73.03 73.66 73.11 74.97 74.55 73.33 74.03 73.49 74.07
74.13 74.99 76.19 78.04 78.23 77.64 77.70 78.41 78.34 78.09 77.81 77.95 78.03 77.95 77.91 77.53 77.29 77.32 77.24 76.88 76.96 76.82 76.55 76.17 75.76 75.46 75.18 74.91 75.10 75.20 75.37 74.19 74.11 73.23 72.09 71.84 71.16 74.05 73.68 73.84 74.09 73.07 72.55
74.13 75.33 77.47 77.98 77.77 77.93 77.95 78.20 77.87 77.84 77.81 78.28 78.36 77.83 77.43 77.38 77.43 77.24 76.91 77.02 76.88 76.69 76.06 75.65 75.48 75.21 75.10 75.07 75.01 74.93 74.98 72.81 72.59 71.86 72.03 72.56 71.19 74.06 73.44 72.92 74.09 73.46 73.43
73.75 75.38 76.05 78.53 78.41 78.26 77.72 78.03 77.79 77.64 77.76 78.01 77.64 77.46 77.27 77.08 77.08 77.14 77.05 76.81 76.48 76.06 75.76 75.43 75.19 74.99 74.99 74.85 74.98 75.11 74.90 74.80 71.02 71.32 71.60 72.57 72.16 74.38 73.72 73.77 73.82 74.39 74.12
74.60 75.13 75.66 77.78 78.39 78.35 77.75 77.50 77.57 77.32 77.20 77.38 77.54 77.72 77.58 77.32 77.17 77.15 76.76 76.43 75.96 75.49 75.41 75.13 75.65 75.42 75.20 75.26 75.44 75.40 75.44 75.48 74.58 72.37 72.05 71.74 73.70 74.87 75.02 74.08 73.32 73.78 73.78
75.25 74.94 74.85 75.11 76.49 78.15 78.82 77.45 77.50 77.42 77.28 77.24 77.76 77.64 77.51 77.19 77.01 76.69 76.62 76.35 75.85 75.77 75.77 76.02 76.43 76.62 76.48 76.40 76.29 75.61 75.76 75.99 72.75 72.69 72.88 72.33 74.76 75.11 74.76 74.65 73.95 74.22 74.11
74.73 75.31 74.94 74.96 75.07 75.29 76.19 77.93 77.40 77.31 76.88 77.57 77.73 77.54 77.38 76.85 76.46 76.51 76.28 75.79 76.15 76.38 76.38 76.69 76.31 76.50 76.78 76.98 76.00 75.82 75.57 75.71 72.65 72.35 72.47 71.73 74.91 75.74 74.87 74.17 74.44 74.44 73.87
74.48 74.62 74.59 74.73 75.06 75.38 75.37 76.02 77.60 77.28 77.55 77.47 77.14 77.32 77.41 74.59 73.90 73.91 74.46 75.06 75.42 76.11 75.85 75.99 76.21 77.14 76.69 76.50 76.57 75.96 75.38 73.41 72.06 72.07 71.47 71.95 74.69 75.95 75.22 74.44 74.32 74.01 74.68
72.49 73.39 74.39 74.41 74.57 74.88 76.30 74.83 75.09 74.60 74.94 74.84 74.76 74.40 74.37 73.75 72.80 71.90 72.13 74.55 75.40 75.47 75.94 76.87 76.60 76.91 75.65 73.40 72.76 74.36 71.68 73.46 71.96 71.96 71.94 70.98 73.79 75.87 75.57 74.52 73.88 73.73 74.56
72.07 73.04 73.88 74.40 74.39 74.68 74.92 74.35 74.72 74.31 74.22 73.74 73.44 73.12 73.11 72.89 71.78 72.70 72.58 71.43 71.06 73.86 73.06 73.89 73.09 73.56 72.78 71.85 71.34 71.36 70.36 71.04 72.85 72.57 73.25 74.06 73.44 75.74 76.27 75.41 74.22 73.28 73.19
70.97 71.86 72.24 73.26 73.84 74.21 73.54 74.27 73.91 73.99 73.36 72.82 72.72 72.79 72.04 71.86 71.43 70.28 71.04 70.71 70.91 71.68 71.16 70.92 70.50 71.25 71.61 71.86 71.28 70.97 70.92 69.67 68.96 71.30 72.02 74.96 74.91 75.27 76.38 75.96 75.60 74.43 73.82
70.77 71.71 71.72 72.65 73.07 73.29 73.14 73.47 73.16 73.29 73.68 73.10 72.75 72.44 72.65 71.98 71.74 70.79 70.75 70.82 70.63 71.39 70.02 70.84 70.67 70.72 70.51 70.88 71.42 71.47 71.05 70.99 70.65 70.06 71.35 74.65 75.79 75.61 76.68 76.49 75.98 75.47 74.55
71.04 71.18 72.27 72.52 73.08 72.51 72.63 72.56 72.63 72.89 73.52 73.20 72.36 72.99 72.29 72.80 72.69 70.57 70.19 70.26 70.36 70.97 71.30 70.84 70.54 70.59 70.77 70.91 70.73 70.85 70.93 70.86 72.05 71.14 71.33 71.65 76.16 75.38 76.00 76.88 76.23 76.08 75.37
70.74 71.77 72.68 73.28 72.73 71.92 71.88 72.47 72.49 73.08 72.34 71.64 72.19 72.78 72.60 72.94 72.20 71.09 71.16 69.60 69.84 70.26 70.47 70.84 70.00 69.92 69.72 69.87 69.45 69.87 69.98 70.26 70.21 70.63 70.79 71.89 71.81 75.03 75.32 75.35 75.60 75.62 76.56
70.59 71.28 72.97 74.44 73.04 71.95 71.90 72.38 72.71 73.11 72.46 71.44 71.93 71.57 72.58 72.53 71.61 71.49 69.88 69.24 70.32 69.74 70.39 69.40 69.11 68.91 68.75 68.34 67.85 68.18 68.70 69.02 69.80 70.32 70.74 69.79 71.19 72.35 73.44 75.25 75.01 75.19 75.72
70.93 71.55 72.03 73.17 72.52 72.18 72.36 72.72 72.80 72.87 72.37 71.86 71.88 71.67 72.13 72.34 72.46 72.69 70.17 69.92 70.31 69.40 69.09 69.13 68.95 67.98 67.00 67.11 67.80 68.40 68.28 67.89 68.43 69.79 69.05 70.20 69.99 71.97 71.60 73.84 74.35 74.63 75.20
71.28 71.63 71.91 72.31 71.80 71.78 72.12 72.69 72.31 72.01 71.94 72.19 71.90 72.03 72.41 72.26 72.60 71.02 70.84 71.32 70.14 68.79 67.67 67.24 66.39 66.82 66.66 66.66 67.54 67.03 66.17 66.46 66.61 67.13 67.92 69.53 69.94 70.60 71.21 71.54 71.50 72.13 75.06
70.50 70.67 71.36 70.96 71.46 72.13 71.39 70.40 70.17 70.35 70.84 70.73 71.05 71.93 71.99 72.00 72.07 71.08 69.53 69.48 69.09 67.15 65.59 65.59 65.48 65.25 64.79 65.55 63.50 63.37 63.71 64.02 64.88 65.32 66.53 67.22 67.94 69.61 69.52 70.29 71.09 71.71 71.61
68.69 69.59 69.93 71.07 71.61 72.31 70.98 70.28 70.23 69.56 69.67 70.33 71.08 71.50 72.59 71.81 71.64 70.50 69.61 68.34 67.62 65.83 64.77 64.74 64.12 62.95 63.61 64.96 62.08 59.86 57.87 60.60 62.02 63.67 64.29 65.86 65.30 67.26 68.33 69.72 69.75 70.78 71.24
68.15 68.33 69.59 70.34 71.54 71.84 71.45 70.68 70.87 70.82 69.92 68.32 67.53 69.24 70.48 72.13 72.32 71.60 68.31 66.73 66.12 64.44 64.56 64.04 63.80 62.56 61.14 62.94 63.27 61.01 56.30 55.04 58.55 61.50 63.25 63.50 63.07 63.75 65.10 67.06 69.99 70.02 69.77
68.77 69.62 69.79 70.82 71.08 71.78 71.55 70.74 69.80 68.84 66.46 65.12 65.41 64.08 64.83 67.18 66.58 66.84 66.32 66.42 65.25 64.74 63.91 64.02 64.83 63.21 62.01 60.14 61.96 64.21 62.27 61.44 56.84 56.14 59.99 61.35 62.05 62.64 62.86 64.55 65.12 67.51 69.31
69.50 70.23 70.65 71.07 70.99 71.36 71.05 71.10 70.01 66.39 64.50 63.98 63.41 61.88 62.40 62.62 64.80 66.06 66.84 65.70 64.88 63.83 63.58 63.14 62.77 62.37 62.56 61.79 60.97 60.54 60.13 60.16 59.56 57.23 55.66 57.44 59.57 60.99 62.26 62.26 63.18 64.97 66.37
69.87 70.49 71.19 71.02 71.01 71.21 71.19 69.89 69.36 65.68 62.15 62.50 61.26 60.26 60.21 60.28 64.30 66.35 65.99 64.31 63.66 63.38 63.27 62.83 62.72 61.95 61.87 61.49 61.33 60.67 59.47 57.90 57.30 56.98 56.30 55.62 55.92 58.24 59.59 60.92 60.91 61.63 63.79

GFSSE_sfc_wetblb_021.txt.gz
Wetbulb
72.09 74.22 75.64 75.72 75.66 75.38 75.22 75.39 75.52 75.73 75.73 76.20 77.05 77.25 77.58 77.71 77.72 77.67 78.03 77.68 77.59 77.21 76.66 76.55 76.60 76.50 76.59 76.25 76.04 75.75 75.50 75.13 75.56 75.85 75.55 75.13 74.85 73.76 73.94 73.53 72.93 73.12 74.29
73.53 74.78 76.06 75.69 75.53 75.51 75.14 75.28 75.70 76.15 76.71 77.49 77.30 77.29 77.38 77.25 77.56 77.82 77.75 77.56 77.41 77.01 76.42 76.59 76.69 76.45 76.23 75.99 75.66 75.33 74.66 75.13 75.36 75.08 75.19 74.66 73.95 74.41 74.23 73.55 72.09 73.98 74.66
73.72 75.36 75.84 76.53 76.53 76.62 76.06 76.07 75.94 76.29 76.81 77.63 77.63 77.90 77.24 77.08 77.47 77.58 77.52 77.52 77.15 77.00 76.57 76.40 76.19 76.04 76.18 76.04 75.74 75.00 74.37 74.88 74.83 74.74 74.60 74.16 74.41 74.38 73.51 73.29 74.00 74.21 74.15
73.94 75.30 75.58 76.20 76.83 76.73 76.45 76.43 76.86 76.72 76.83 77.87 78.21 78.16 77.47 77.37 77.59 77.53 77.07 76.88 76.94 76.61 76.40 76.35 76.07 76.07 75.85 75.66 75.57 75.02 74.93 74.46 74.26 74.33 74.86 74.39 73.80 74.57 73.05 74.13 74.37 74.42 73.30
75.17 76.14 76.59 76.51 77.16 77.09 76.90 76.63 76.80 77.83 77.39 77.82 77.95 77.61 77.63 77.48 77.32 77.13 76.61 76.61 76.47 76.50 76.40 76.07 75.91 75.74 75.71 75.63 75.54 75.24 74.87 73.87 74.41 73.89 75.09 75.26 74.87 73.92 72.94 74.24 73.76 74.13 73.46
75.61 76.21 76.76 76.98 76.97 77.04 76.94 77.13 77.62 78.12 77.74 78.00 77.88 77.36 77.14 77.01 76.98 76.65 76.29 76.32 76.23 76.01 75.85 75.60 75.80 75.61 75.50 75.33 75.24 75.26 75.07 73.48 72.43 74.89 75.69 74.70 74.30 73.52 73.02 74.33 72.74 72.85 74.01
75.29 76.82 76.92 76.92 77.41 77.70 77.66 77.76 77.99 77.28 77.13 77.39 77.46 76.98 77.01 76.90 76.79 76.38 76.18 75.91 75.83 75.61 75.56 75.59 75.64 75.75 75.58 75.33 75.19 75.05 75.30 74.81 75.00 75.33 75.33 75.31 74.85 73.88 72.72 73.70 72.91 73.12 74.13
75.25 76.48 76.87 76.99 77.49 78.27 77.46 77.19 77.64 77.17 77.09 77.18 77.05 77.03 76.86 76.86 76.61 76.40 75.72 75.59 75.39 75.45 75.75 75.84 76.28 76.07 76.07 76.09 75.57 75.51 75.30 75.03 75.12 75.55 74.86 75.73 74.35 73.83 73.93 73.35 73.77 74.00 73.80
75.86 76.06 76.74 77.10 77.79 77.54 78.21 77.54 77.65 77.68 77.45 77.18 77.24 77.29 76.94 76.67 76.50 75.96 75.83 75.69 75.75 75.89 76.28 76.67 76.45 75.92 75.25 75.28 75.34 75.03 75.25 74.64 76.14 76.56 74.79 75.71 74.29 74.07 74.72 73.81 73.66 73.83 73.48
75.22 76.10 76.98 77.40 77.31 76.95 77.17 77.54 77.46 77.15 77.23 77.43 77.37 77.07 76.85 76.29 75.83 75.89 76.67 75.60 76.08 76.28 76.03 76.33 76.45 75.75 75.62 75.53 75.64 74.47 74.41 74.59 76.25 76.79 77.13 75.68 74.30 74.63 74.39 74.33 73.31 73.76 73.70
74.70 75.63 76.34 76.35 76.80 77.34 77.06 76.80 77.13 77.11 77.00 77.11 77.38 77.08 77.09 77.07 76.87 76.51 76.11 75.57 74.95 75.73 76.09 76.67 76.42 76.64 75.78 75.06 75.86 76.03 75.13 76.51 76.64 77.04 76.88 73.71 74.20 75.21 75.14 74.60 73.88 74.72 73.93
73.07 74.54 75.49 76.00 76.04 76.69 75.69 77.17 77.27 76.72 76.25 76.90 77.21 77.87 77.24 77.15 77.22 76.40 75.86 75.03 76.37 76.32 76.48 76.59 75.98 75.53 75.57 76.54 76.32 75.05 75.96 75.57 77.04 77.09 76.50 73.73 74.42 75.19 75.47 74.97 74.03 74.22 74.59
73.26 73.92 75.33 76.50 77.00 76.67 76.70 77.09 76.95 76.69 76.25 76.94 77.64 77.65 77.56 76.71 76.69 76.53 76.33 76.72 76.72 75.42 76.77 76.27 76.40 76.71 75.47 75.99 75.45 75.51 75.56 76.03 76.05 76.47 76.29 74.35 74.26 75.16 75.41 75.68 74.68 74.60 73.92
72.72 73.70 74.93 75.98 76.85 76.85 76.56 75.84 76.14 75.81 76.12 75.91 76.12 77.32 76.53 75.51 75.86 75.86 76.16 76.06 76.56 76.77 76.64 76.26 76.18 76.32 76.35 75.88 75.60 75.35 75.58 75.87 76.15 76.36 76.47 74.47 75.30 74.43 75.39 75.61 75.29 74.82 74.24
72.20 73.35 74.92 76.05 76.43 76.86 77.07 76.00 75.55 75.91 75.44 76.05 76.01 76.24 75.91 75.07 75.31 75.14 76.42 76.82 76.76 76.67 76.17 77.13 76.49 76.00 75.57 75.38 75.74 75.20 74.57 74.97 75.30 75.81 75.80 73.53 75.17 76.00 75.45 75.22 75.21 75.42 74.74
73.05 73.56 75.08 75.71 76.71 77.15 76.52 77.22 76.34 76.45 76.35 76.34 76.24 75.94 76.45 75.64 75.61 75.00 75.95 76.34 77.76 76.32 76.34 76.87 76.35 76.22 75.35 75.11 74.65 75.11 74.37 74.36 74.19 74.48 75.22 76.39 73.76 75.35 76.17 75.65 76.01 75.71 75.13
73.20 73.92 73.91 75.03 76.00 76.59 76.30 76.32 76.44 76.57 76.74 76.02 76.15 77.23 77.27 75.85 76.53 76.15 77.42 76.87 76.12 76.42 76.27 75.86 76.22 75.38 75.01 74.61 74.10 73.56 73.50 72.78 72.57 73.04 73.38 74.53 75.66 74.01 74.63 75.73 75.63 76.26 75.36
73.38 73.35 74.27 74.16 74.90 75.90 76.17 76.44 76.36 76.43 76.44 76.24 77.91 77.03 77.34 77.32 77.42 77.15 76.08 77.75 76.06 75.92 75.36 75.78 75.00 74.01 73.67 73.07 72.93 72.68 72.28 72.13 71.99 72.27 72.75 73.07 73.66 74.15 74.66 74.72 75.51 76.04 75.92
74.34 74.20 74.15 74.88 74.84 75.64 76.38 76.55 76.66 77.28 76.81 76.60 76.77 78.77 77.09 77.27 77.27 76.93 78.12 77.84 75.10 75.48 76.80 75.19 74.64 73.46 71.99 71.46 70.73 70.66 71.29 71.14 71.78 71.76 72.37 73.37 73.33 73.82 74.39 75.36 74.25 74.99 75.24
74.64 75.00 75.01 75.07 75.77 76.57 76.46 76.64 76.25 76.66 76.59 77.11 76.98 77.02 77.69 78.15 77.37 77.60 77.28 76.30 75.59 75.14 74.06 73.68 72.68 72.46 71.35 70.79 69.63 69.28 70.40 72.12 71.20 72.13 72.17 71.10 72.78 73.09 74.31 75.09 75.30 75.52 73.52
74.41 74.48 74.64 75.06 76.84 76.18 75.08 74.62 74.78 74.64 75.84 76.31 76.94 77.27 77.32 77.44 77.08 77.09 75.53 74.96 74.96 73.84 73.51 73.24 71.89 70.71 70.38 71.54 68.82 67.78 69.91 71.12 69.81 70.73 71.38 69.27 69.36 70.14 71.75 73.15 74.72 75.41 75.84
73.68 74.12 74.68 75.59 76.78 76.36 75.78 75.77 75.61 75.81 75.91 76.35 76.83 77.08 77.30 76.98 77.36 76.49 76.05 74.70 74.51 72.60 72.51 72.53 71.79 68.89 69.99 71.34 67.16 67.29 64.23 66.91 69.95 70.02 69.58 67.61 67.76 69.01 68.60 69.55 71.18 72.79 73.73
72.79 73.68 74.72 76.22 76.84 76.57 76.91 76.06 75.78 75.72 75.82 74.70 75.24 75.59 76.23 76.61 76.85 76.38 75.26 74.75 74.18 73.16 70.88 71.86 71.11 69.81 66.92 69.79 69.60 67.33 63.76 62.19 64.63 69.35 69.40 67.78 67.03 66.37 67.69 68.17 68.89 68.23 67.88
72.63 74.16 75.53 76.05 76.65 76.26 76.92 75.59 75.44 73.98 73.10 74.32 74.62 74.99 75.98 76.73 76.23 75.81 74.99 74.65 73.91 71.75 71.47 71.25 71.15 70.68 69.67 66.68 69.26 69.83 69.32 67.80 63.62 62.81 66.62 67.20 66.45 64.97 66.61 65.25 65.47 65.35 65.34
72.43 73.10 74.35 75.83 76.27 77.02 76.56 76.69 74.92 74.51 74.69 75.02 73.74 73.38 74.07 74.70 75.63 75.39 74.86 73.53 72.37 71.09 71.99 71.02 70.22 69.98 69.74 68.88 68.42 68.38 68.59 68.04 66.96 63.97 60.12 62.44 65.53 65.28 65.89 66.16 65.11 64.68 64.98
72.28 72.69 73.66 75.22 76.13 76.61 75.79 75.78 75.87 75.60 74.86 73.04 72.30 71.56 71.54 71.54 71.29 72.57 72.36 72.35 72.27 71.64 70.66 70.29 70.35 70.10 69.81 69.96 69.14 67.83 66.17 64.83 64.48 64.15 62.68 62.84 62.23 64.57 64.36 66.58 66.53 65.52 64.86

GFSSE_sfc_wetblb_027.txt.gz
Wetbulb
72.64 74.09 75.10 75.93 76.09 76.07 75.78 75.59 75.76 75.93 77.10 77.60 78.29 78.23 77.88 77.82 78.17 78.00 77.71 77.42 77.16 77.40 77.14 77.06 76.87 76.70 76.43 76.35 75.98 75.68 75.57 76.08 76.03 75.45 75.45 74.57 74.76 74.02 72.81 72.86 73.36 73.84 75.19
74.08 75.43 75.83 76.09 75.98 76.19 76.09 75.70 75.66 75.93 76.70 77.72 77.85 77.93 77.56 77.72 77.99 77.74 77.47 77.36 77.23 77.12 76.87 76.84 76.57 76.48 76.48 75.85 75.66 75.30 75.24 75.48 75.18 74.69 75.19 75.16 75.11 74.41 73.80 74.05 74.45 74.76 75.08
74.70 75.61 76.14 76.13 76.32 76.45 76.30 76.34 76.08 76.21 76.22 76.66 77.21 77.19 77.49 77.82 77.87 77.63 77.53 77.36 77.26 76.93 76.77 76.74 76.46 76.38 76.15 75.85 75.57 75.16 75.07 74.58 74.16 74.74 74.68 74.73 74.10 73.38 74.19 73.91 75.10 75.11 74.81
74.02 75.01 75.30 76.43 76.20 76.59 76.73 76.93 76.83 76.64 76.34 76.62 77.08 77.28 77.49 77.71 77.61 77.12 77.12 77.25 77.04 76.76 76.46 76.35 76.21 76.21 76.10 75.88 75.49 75.21 74.69 74.16 74.13 74.43 75.58 73.93 72.85 74.27 74.76 74.54 74.59 74.46 75.03
75.41 75.70 76.00 76.44 76.65 76.80 76.83 77.20 77.02 76.86 76.84 76.95 76.87 77.20 77.53 77.50 77.26 76.57 76.90 76.82 76.65 76.29 76.13 76.05 75.88 75.80 75.41 75.27 75.13 75.21 74.63 74.03 73.77 74.74 74.76 73.66 73.23 74.03 74.90 74.84 74.01 74.07 73.96
75.42 75.48 75.82 76.45 76.82 77.18 77.22 77.50 77.37 77.40 77.37 76.98 76.96 77.51 77.31 77.18 76.66 76.63 76.77 76.55 76.30 76.05 76.04 75.77 75.93 75.82 75.24 74.99 74.83 74.69 74.49 74.38 73.16 75.57 75.32 73.60 73.21 74.71 74.49 74.74 75.01 74.50 74.51
75.40 76.72 76.56 77.08 77.16 77.40 77.60 77.81 77.79 77.65 77.38 76.84 77.18 77.10 76.96 76.99 76.63 76.69 76.07 75.87 75.79 75.93 76.07 76.24 76.21 75.56 75.54 75.29 75.02 74.49 74.69 75.15 75.10 75.68 75.60 74.97 73.08 74.46 75.17 72.68 73.53 74.22 74.71
75.31 76.91 77.24 77.58 77.61 77.44 77.59 77.38 77.36 77.14 77.01 77.09 76.87 76.91 76.82 76.63 76.38 75.79 75.39 75.39 75.59 76.09 76.34 76.59 75.69 75.09 74.88 75.00 74.75 74.55 74.90 75.43 74.97 76.62 75.99 75.83 74.71 73.91 75.28 73.83 72.98 74.68 74.10
76.05 76.18 76.86 77.43 77.99 77.40 77.47 77.26 76.98 77.04 77.17 76.93 76.82 76.71 76.71 76.46 76.10 75.37 75.28 75.40 75.84 76.09 76.08 76.07 75.80 74.91 74.57 74.79 74.98 74.22 74.81 75.83 75.57 76.23 75.33 76.27 75.33 74.57 74.16 74.92 75.15 74.38 74.59
76.12 76.00 76.49 77.11 77.25 78.17 77.16 76.79 76.74 77.01 76.93 76.63 76.99 76.96 76.60 76.55 76.35 75.93 75.96 75.82 74.86 75.30 75.72 75.85 75.82 75.04 74.53 75.12 75.27 75.82 75.82 76.38 76.13 74.86 75.41 75.64 75.79 74.88 75.15 74.22 74.98 74.61 74.58
75.39 75.78 76.32 75.35 76.26 76.84 76.68 76.75 77.57 77.34 77.04 77.04 77.52 77.01 76.85 76.12 76.77 77.74 76.50 75.02 74.27 76.46 75.96 76.25 76.14 75.98 76.20 76.35 76.47 76.91 77.64 75.21 74.65 75.55 74.56 75.05 75.97 75.07 75.21 74.89 73.99 74.46 74.20
74.24 74.74 75.74 76.13 76.18 76.51 76.15 77.83 77.54 77.11 76.92 76.99 76.95 77.79 76.54 77.25 77.59 76.89 76.54 76.16 76.60 76.91 76.64 76.52 76.59 76.79 77.40 76.14 76.20 78.11 75.06 75.24 75.41 75.13 76.03 75.90 75.36 75.73 75.21 75.65 74.45 74.60 74.17
74.98 75.26 76.32 76.64 76.83 76.31 78.11 76.25 76.64 76.46 76.62 76.74 77.96 77.90 77.40 77.40 77.50 76.83 76.37 77.77 76.40 77.22 76.32 76.44 76.13 75.86 75.69 75.93 76.28 75.96 75.20 75.57 74.47 75.01 76.28 75.96 75.38 75.80 75.84 76.08 75.45 74.74 75.28
74.17 74.62 75.31 76.40 77.14 77.28 76.74 75.80 76.11 75.67 75.78 75.63 76.56 78.11 77.49 76.39 76.47 77.29 76.38 76.03 77.86 77.64 77.05 78.23 75.62 77.80 76.94 76.66 76.31 75.50 76.49 75.52 75.55 74.92 75.99 76.51 76.12 75.84 76.12 76.36 76.09 75.02 74.98
74.00 74.59 75.35 76.50 77.26 77.50 77.87 76.36 75.97 75.68 75.50 75.72 76.04 76.96 76.54 76.18 77.28 77.43 77.15 76.41 75.94 76.51 76.21 75.32 76.39 77.23 76.01 76.22 75.75 75.98 75.33 76.91 75.26 75.26 75.64 76.29 76.35 76.17 76.14 76.30 76.27 76.24 75.67
74.68 74.93 75.83 76.54 77.52 77.65 78.18 78.72 76.88 76.49 76.42 75.85 75.89 76.15 77.68 77.17 78.39 77.45 76.26 75.75 75.96 76.47 76.91 76.95 76.75 76.09 75.67 76.53 75.37 74.16 75.07 75.33 75.64 75.35 75.40 76.15 76.74 76.73 76.63 76.32 76.57 76.13 75.73
74.46 75.36 75.70 76.44 77.33 77.80 77.77 77.64 77.03 76.43 75.85 75.62 75.71 77.56 77.57 78.28 78.34 77.66 76.47 76.17 76.57 77.67 78.10 77.32 77.54 77.34 75.41 75.41 75.47 75.16 74.57 74.70 73.55 72.93 72.74 71.99 75.57 76.91 77.15 76.18 77.23 77.08 75.91
74.56 74.96 76.11 76.09 76.66 77.25 78.60 77.96 77.17 76.63 76.48 76.17 76.66 76.35 78.14 78.31 78.58 77.94 76.18 75.79 76.68 78.08 76.88 76.33 75.83 75.36 72.76 71.59 71.04 70.66 71.16 71.35 71.09 71.09 71.20 71.95 71.69 71.53 76.43 76.87 76.61 76.67 76.00
75.18 75.54 75.69 76.46 76.15 77.21 78.85 78.12 77.90 79.33 77.03 77.41 77.42 76.48 78.18 78.16 78.73 77.89 75.97 77.62 78.31 76.78 75.86 76.17 74.10 74.32 71.25 69.15 68.20 68.51 70.19 70.16 70.64 71.11 71.83 72.97 72.86 72.23 71.54 76.10 75.98 76.13 75.07
75.29 75.91 76.53 76.43 77.87 79.36 78.35 78.86 77.58 78.41 78.15 77.96 76.78 77.02 78.19 78.50 77.98 79.03 76.63 77.02 76.99 75.37 76.03 73.53 74.31 72.49 70.01 70.39 68.93 68.46 69.73 70.30 71.48 71.99 71.91 72.17 73.06 72.90 73.68 74.78 74.99 75.13 75.78
75.14 75.46 76.24 77.22 79.91 77.98 76.15 75.46 75.93 75.20 77.66 76.76 76.92 76.91 78.60 78.37 78.30 78.90 76.21 75.43 76.37 75.77 74.48 74.67 72.61 72.24 68.51 71.25 68.50 69.05 68.55 70.31 70.67 71.06 72.05 70.76 71.32 72.60 72.80 73.55 74.13 73.68 74.29
74.95 76.06 77.47 78.23 80.01 78.84 77.46 78.04 77.36 77.21 75.84 76.95 77.18 78.13 79.12 78.13 79.31 77.53 78.24 77.33 76.07 73.77 75.21 73.53 72.22 68.82 67.76 71.10 67.24 66.51 65.08 67.44 69.38 70.26 70.53 69.49 69.46 70.37 71.04 72.27 73.56 73.72 74.62
74.52 75.94 77.98 79.68 80.15 79.91 80.26 79.21 78.04 77.97 77.11 75.91 74.56 74.70 76.33 77.28 76.88 78.09 77.70 76.93 77.32 74.59 73.15 73.34 71.49 70.21 66.81 68.75 70.14 67.12 64.43 63.94 66.15 69.75 70.22 68.91 69.00 68.45 69.23 70.56 69.44 69.66 70.98
74.57 76.22 78.76 79.92 80.48 80.35 80.94 78.71 79.41 75.78 73.90 73.62 74.88 75.00 75.63 76.25 75.98 77.72 77.12 76.17 76.37 74.95 74.06 72.07 71.20 70.45 69.96 67.02 68.78 69.75 69.93 68.91 64.89 63.84 68.13 68.02 68.13 67.61 68.00 67.85 67.44 68.06 68.17
74.69 75.42 77.30 80.21 80.83 80.98 80.66 79.93 77.83 77.50 75.04 74.87 74.58 78.79 77.36 78.59 76.34 75.42 75.86 77.20 75.72 73.12 73.97 72.19 71.64 71.43 69.65 68.10 68.41 67.69 69.37 67.70 68.34 64.27 62.28 65.25 67.02 67.40 67.36 67.24 66.98 67.19 67.74
74.41 75.08 76.52 79.58 80.95 81.52 81.10 80.84 80.72 80.22 77.54 75.63 75.88 75.28 74.28 73.61 74.53 76.07 75.86 76.61 77.12 73.97 72.63 72.19 72.19 71.04 70.77 70.49 69.65 68.69 66.48 65.32 65.53 64.85 63.68 65.12 64.93 66.26 67.41 67.26 67.21 67.50 66.95

GFSSE_sfc_wetblb_030.txt.gz
Wetbulb
71.61 73.32 74.85 75.74 75.95 76.47 76.63 76.46 77.35 78.01 78.22 78.50 78.55 78.70 78.93 78.82 78.69 78.51 78.17 78.35 78.26 78.14 77.91 77.29 76.86 76.42 76.34 76.06 76.11 76.03 76.42 76.07 75.50 75.34 74.84 74.92 74.42 73.36 73.11 73.17 73.00 73.95 75.75
73.08 74.15 75.55 76.07 76.33 76.16 76.09 76.21 76.99 77.72 77.77 78.42 78.53 78.64 78.70 78.49 78.49 78.37 78.26 78.03 77.90 77.58 76.94 76.81 76.42 76.23 76.03 76.01 75.59 75.48 75.23 75.28 75.53 75.12 75.12 74.93 74.10 73.88 74.40 75.80 75.95 74.59 75.54
73.38 74.54 75.18 76.45 76.69 76.29 76.08 76.20 76.96 77.37 78.00 78.23 78.45 78.65 78.54 78.33 78.21 78.22 77.97 77.57 77.46 77.05 76.65 76.45 76.40 76.26 76.03 75.90 75.34 75.31 74.68 74.07 74.29 74.34 74.82 74.18 72.09 74.49 74.76 75.55 75.49 75.33 75.46
73.76 74.45 74.47 76.90 76.75 76.78 77.02 77.15 77.31 76.98 77.17 78.05 78.26 78.34 78.39 77.97 77.76 77.28 77.28 77.05 76.86 76.54 76.34 76.15 76.15 75.98 76.06 75.62 75.40 74.96 74.24 74.32 74.51 74.31 74.32 74.03 72.45 75.01 74.68 75.24 74.83 75.39 75.22
73.47 74.55 75.57 76.66 76.68 77.15 77.57 77.81 77.82 77.34 77.61 78.00 78.09 77.70 77.63 77.39 76.84 77.06 76.98 76.79 76.45 76.18 76.01 75.96 75.82 75.60 75.18 75.15 74.93 75.10 74.41 73.99 74.45 75.12 75.05 72.44 71.22 74.46 75.01 74.97 74.17 74.47 75.04
73.82 74.39 76.11 76.81 77.07 77.16 77.93 77.80 77.73 77.76 77.44 77.75 77.62 77.44 77.22 76.87 76.62 76.84 76.40 76.18 75.95 75.96 76.04 76.04 76.09 75.59 75.26 74.79 74.37 74.32 74.32 74.70 73.95 75.46 73.99 73.24 72.60 74.95 74.95 74.90 75.40 74.48 74.84
74.23 74.36 75.36 77.40 77.84 77.85 78.31 78.05 78.06 77.86 77.11 77.73 77.36 77.12 76.93 76.65 76.54 76.37 75.95 75.64 75.83 76.20 76.31 76.57 75.92 75.33 75.06 74.81 74.53 74.68 75.15 74.84 75.39 74.81 75.23 71.42 73.81 75.68 74.59 74.72 74.56 74.97 75.16
74.48 74.93 75.31 77.41 78.08 78.01 78.17 78.34 78.05 77.40 76.97 77.08 77.00 76.79 76.73 76.54 76.40 75.70 75.29 75.15 75.46 76.02 76.22 76.25 75.46 74.70 74.41 74.43 74.49 75.31 75.90 74.80 75.09 74.67 74.79 71.65 74.44 76.08 72.93 73.13 74.68 74.68 74.29
75.34 75.43 76.27 76.36 77.48 78.05 78.37 77.79 77.33 77.11 77.11 77.00 76.68 76.65 76.62 76.51 76.21 75.81 75.18 75.32 75.01 75.35 75.62 75.62 75.23 74.63 74.78 75.07 75.46 75.55 76.65 76.54 75.33 74.48 75.34 72.94 75.30 75.51 75.22 74.20 74.33 74.62 74.39
74.60 75.64 76.75 76.93 76.76 76.84 76.32 77.28 77.14 77.16 76.92 76.54 76.40 76.51 77.01 76.71 76.40 76.11 77.01 76.26 75.15 74.95 75.34 75.94 76.23 76.16 76.48 76.96 77.21 77.49 77.46 77.45 71.51 71.42 74.82 73.63 75.62 75.28 74.68 75.02 74.46 74.93 74.84
74.00 74.35 74.99 76.15 77.07 76.33 75.96 76.01 77.06 76.87 76.76 76.48 76.93 77.20 77.39 75.23 75.84 76.16 77.93 76.68 75.73 76.54 76.62 76.73 77.18 77.93 77.82 77.99 78.16 78.17 75.98 75.12 73.46 72.53 74.52 75.01 76.10 76.28 75.55 74.53 74.80 74.64 74.40
72.62 73.85 74.49 74.78 75.07 76.28 74.90 76.52 77.29 76.45 75.90 76.37 76.87 77.28 76.12 74.60 75.95 76.87 77.92 78.33 77.25 76.16 77.29 77.07 78.21 77.07 76.17 74.99 74.36 77.26 75.56 73.72 70.02 69.87 74.01 75.93 76.37 76.21 76.16 75.28 74.93 74.68 74.31
74.49 74.28 75.17 75.76 75.81 75.22 76.09 76.55 76.55 76.51 76.41 76.57 77.54 78.17 78.76 77.45 76.44 75.26 76.25 75.83 77.07 76.69 74.56 76.36 74.13 74.38 76.68 75.29 74.86 74.18 73.39 73.76 71.16 68.36 74.29 75.83 76.96 76.45 76.05 76.14 74.92 74.77 74.45
73.82 74.35 74.83 75.91 76.30 76.43 75.62 75.81 76.73 76.11 76.41 76.17 76.97 79.51 79.34 78.24 77.15 77.99 77.57 74.80 77.06 76.63 74.88 72.78 74.77 76.17 76.30 76.87 75.89 75.50 74.67 73.55 71.79 73.62 73.82 76.66 76.72 76.73 76.29 76.48 76.00 75.01 75.47
73.15 74.12 75.49 76.98 78.23 79.88 79.12 77.06 76.38 77.52 75.55 76.67 76.32 77.41 77.04 77.57 74.99 76.18 75.51 77.18 77.14 76.21 76.21 73.99 73.35 76.92 74.96 75.94 75.87 75.53 74.96 74.93 74.40 74.04 74.27 73.52 76.73 77.02 76.83 76.52 76.79 76.19 75.31
73.82 74.13 75.86 76.23 78.01 79.56 79.86 81.42 80.72 79.41 73.99 77.04 74.29 76.69 79.01 79.04 74.51 74.94 78.41 77.26 74.29 75.21 75.09 77.27 77.15 76.80 76.99 76.06 75.79 76.06 74.79 75.59 74.90 74.02 75.09 75.30 76.85 76.86 77.29 77.21 76.86 76.95 76.39
74.28 74.90 75.65 75.93 77.33 77.84 78.69 79.54 79.63 78.38 76.22 76.87 76.02 77.63 78.77 79.54 79.07 79.53 77.87 77.61 75.04 75.48 78.28 75.19 75.68 74.79 75.34 75.50 73.18 75.71 74.52 74.79 73.74 72.60 71.64 71.33 75.07 77.07 77.27 77.10 76.70 77.13 76.58
74.47 75.56 76.65 75.08 76.70 77.49 78.50 79.22 77.37 76.35 77.95 75.69 77.16 77.82 75.33 79.18 80.20 79.72 78.35 77.09 78.01 78.18 74.51 74.48 75.88 73.56 72.46 71.45 70.07 71.63 71.55 71.05 71.17 71.21 71.24 72.10 71.93 72.87 75.84 76.55 77.20 76.61 76.66
74.97 76.27 75.67 76.85 76.31 77.18 78.33 78.25 78.21 78.15 78.72 80.05 74.84 78.33 78.66 76.65 79.08 77.61 77.06 75.94 77.07 75.34 76.14 74.40 75.10 72.61 71.09 69.55 68.98 69.62 71.13 70.10 70.93 70.42 71.56 72.01 72.15 71.79 72.96 75.99 76.35 76.39 76.12
74.75 76.31 76.70 76.77 78.57 77.85 77.56 78.55 78.18 76.82 76.94 77.80 79.23 77.63 77.95 78.71 77.42 76.48 77.26 76.98 76.00 76.36 75.34 74.44 71.96 73.48 70.91 70.67 68.96 68.46 69.50 70.32 71.33 71.70 69.68 71.38 71.78 71.73 72.51 73.31 73.86 73.97 74.74
74.69 75.88 76.20 77.11 78.47 78.51 77.43 75.29 75.68 76.25 76.62 77.11 77.18 79.79 78.18 77.90 78.24 77.99 78.41 75.84 74.98 76.07 75.37 73.72 73.73 71.00 70.24 72.56 69.31 68.94 70.41 70.25 70.03 70.24 69.10 70.01 70.67 71.08 72.08 73.38 73.03 73.32 73.85
74.38 75.26 76.89 77.08 79.33 78.27 77.33 76.75 75.85 75.76 75.50 76.66 76.89 77.54 77.35 78.00 77.79 78.54 78.27 75.89 75.19 73.51 74.40 74.67 72.82 70.45 69.02 72.16 67.87 66.95 63.85 67.48 67.10 68.43 69.94 68.42 68.04 69.57 71.28 71.63 71.81 71.93 73.52
74.26 75.43 76.27 77.18 78.66 77.65 78.69 77.04 77.60 79.28 79.84 74.68 75.45 75.18 77.50 77.77 78.27 78.06 77.20 77.17 75.77 75.54 74.44 74.39 73.04 71.32 68.30 71.15 70.30 67.65 64.54 62.35 65.76 69.26 69.91 67.68 67.86 67.73 69.15 69.15 68.24 68.65 70.44
74.23 76.36 76.82 77.63 78.06 78.38 78.17 78.23 77.56 75.01 74.90 75.94 77.16 75.39 77.52 78.20 77.78 77.67 78.52 77.29 75.60 76.14 74.49 73.54 72.98 71.34 70.52 67.52 70.47 70.45 69.42 67.74 64.65 62.47 67.26 67.59 67.13 66.64 66.18 67.50 66.55 67.05 67.19
74.64 75.42 77.11 77.55 78.05 78.48 77.95 78.61 78.08 76.45 74.19 76.58 76.12 77.79 77.69 78.39 77.37 77.55 77.05 77.45 77.44 75.48 74.08 72.43 72.71 71.67 71.33 69.57 69.28 69.04 69.39 68.10 68.28 64.15 62.14 63.33 66.70 66.56 66.84 65.98 66.44 67.15 66.77
74.22 75.45 76.28 77.40 77.69 78.42 78.61 78.05 78.20 76.57 75.85 75.98 76.96 76.11 75.79 75.76 75.93 78.08 76.51 77.52 76.97 75.29 74.02 71.73 71.98 71.95 71.06 70.97 69.96 69.64 67.55 66.58 64.90 65.96 63.74 63.54 63.42 65.73 66.91 66.88 66.12 66.80 66.83

GFSSE_sfc_wetblb_033.txt.gz
Wetbulb
70.99 73.05 75.08 75.54 75.86 76.85 76.91 77.93 78.67 78.80 78.70 78.93 78.96 78.98 78.66 78.56 78.31 78.44 78.43 78.21 78.12 77.83 76.95 76.56 76.37 76.18 76.08 75.96 75.93 76.26 76.27 75.59 75.31 74.94 74.88 74.31 73.49 73.76 73.73 74.31 75.73 74.14 74.76
71.26 73.62 75.40 76.22 76.36 76.88 77.40 77.79 78.31 78.65 78.57 78.62 78.95 78.85 78.37 77.97 77.71 77.98 78.33 77.81 77.25 77.18 76.54 76.41 76.10 75.94 75.77 75.63 75.49 75.27 75.87 75.64 75.46 75.14 74.81 74.06 73.50 74.83 76.02 75.98 75.78 74.34 74.32
72.12 73.58 74.74 76.47 76.57 76.46 77.09 77.61 78.04 78.31 78.18 78.63 78.79 78.91 78.69 77.91 77.89 78.36 77.76 77.14 76.87 76.55 76.38 76.27 76.13 75.75 75.69 75.39 75.05 74.75 74.59 75.19 74.75 74.49 75.23 71.58 72.24 75.02 75.46 76.06 75.82 75.07 74.13
72.96 73.35 74.06 76.51 76.97 76.33 76.65 77.52 77.89 77.37 77.41 78.21 78.73 78.75 78.26 77.37 77.94 77.34 77.07 76.84 76.41 76.36 76.03 75.72 75.70 75.47 75.50 75.28 75.03 74.31 74.23 74.34 74.26 74.31 73.90 71.84 72.02 75.41 75.81 75.64 75.86 74.94 74.50
72.85 73.32 74.72 76.96 77.64 76.86 76.56 77.28 77.52 77.79 77.07 77.51 78.24 78.23 77.70 76.92 77.07 76.96 76.68 76.41 76.05 76.08 75.75 75.50 75.39 75.00 74.76 74.87 74.75 74.75 74.78 74.87 74.59 75.11 73.13 70.38 71.08 74.53 74.91 75.17 75.40 75.61 74.97
72.63 74.52 76.63 77.16 77.27 77.63 77.24 77.27 76.93 77.04 77.01 77.87 78.36 77.70 77.12 76.74 76.83 76.55 76.42 75.95 75.75 75.89 76.00 75.89 75.39 75.09 74.84 74.78 74.48 74.56 75.17 75.61 75.09 73.53 70.54 73.24 71.49 74.80 74.26 75.19 75.20 75.24 75.07
72.26 74.45 75.48 77.83 77.54 78.12 77.43 77.39 77.31 76.94 76.78 77.95 78.01 77.20 77.10 76.89 76.83 76.36 75.89 75.67 75.61 76.09 76.31 76.17 75.47 74.85 75.14 75.25 75.28 75.45 75.17 75.25 74.08 73.11 70.23 71.85 72.31 76.14 75.62 75.33 75.00 75.07 74.94
72.38 73.61 74.74 77.49 77.80 77.78 77.61 77.64 77.63 76.94 76.81 77.85 77.83 77.50 77.74 77.28 77.04 76.91 75.72 75.69 75.58 75.74 75.79 75.83 75.97 76.36 76.53 76.63 76.90 76.48 75.00 75.84 72.53 72.13 71.18 71.70 75.40 74.52 74.66 74.41 75.38 75.27 75.28
73.06 73.31 74.44 75.38 76.68 78.21 78.66 77.77 77.56 77.08 76.94 77.24 77.52 77.37 77.54 76.90 76.39 76.34 76.92 76.09 75.60 75.43 75.46 75.43 77.25 77.30 76.72 76.85 77.00 76.05 76.43 75.30 68.52 70.64 70.46 71.40 76.47 74.01 73.18 74.75 74.90 74.18 75.16
73.15 73.62 74.16 74.47 75.24 75.01 75.68 77.73 77.11 77.34 77.08 76.87 76.65 76.60 76.87 76.58 76.50 76.36 77.43 77.29 75.40 74.88 75.53 76.19 77.66 77.80 76.91 77.26 77.37 76.23 75.64 73.39 71.69 67.98 71.06 72.73 76.04 75.92 75.15 74.43 75.08 74.75 74.95
73.03 73.54 73.99 73.95 73.97 73.70 73.85 75.58 77.52 77.46 77.45 76.87 76.57 77.28 76.79 74.97 74.23 75.09 76.42 76.66 76.41 75.58 76.07 76.87 77.38 77.84 76.60 75.00 76.68 76.87 76.20 71.94 71.70 70.51 72.03 74.13 75.74 75.41 75.37 75.56 74.99 74.99 75.23
71.27 72.75 73.73 73.78 73.40 73.38 74.66 73.63 73.83 74.44 74.17 73.94 74.50 74.14 74.84 73.85 72.91 73.95 75.52 77.03 76.47 76.67 74.68 77.93 77.86 76.61 75.00 73.10 72.28 74.21 72.63 71.55 68.87 68.55 70.38 72.36 75.45 76.07 75.08 74.89 75.27 74.39 74.81
70.81 72.39 73.62 74.08 73.90 72.65 72.28 73.18 74.10 73.80 73.51 73.60 73.75 74.17 73.63 74.79 73.80 73.80 73.19 73.41 73.05 73.74 73.98 74.84 74.08 73.14 74.54 73.08 73.97 73.65 69.86 68.37 67.63 69.97 72.06 73.85 75.26 76.50 76.34 74.98 74.63 74.80 74.29
71.00 71.21 71.93 71.98 72.88 72.39 73.21 73.04 73.82 73.66 73.57 73.11 74.12 75.04 73.73 73.68 72.42 72.68 73.10 71.89 73.45 74.71 72.48 71.76 72.94 72.61 73.87 73.63 72.54 73.85 71.44 70.42 67.28 71.44 71.56 75.54 76.37 76.07 76.84 75.86 74.85 74.87 74.44
70.85 71.83 72.60 72.53 72.49 73.95 74.01 72.71 73.08 73.76 74.13 73.46 74.52 73.80 72.89 72.22 72.21 73.23 72.86 73.74 72.42 74.00 72.97 70.36 72.02 72.44 72.66 72.76 72.23 72.48 71.38 71.55 71.31 72.23 71.66 75.99 76.41 76.21 76.76 76.79 76.55 75.29 75.48
71.35 71.82 73.65 72.91 73.99 73.54 74.12 73.97 75.51 74.41 71.43 74.29 73.65 74.72 73.82 73.13 72.39 73.43 73.23 73.41 72.59 72.49 73.33 73.10 72.44 72.06 73.49 72.76 72.93 72.54 71.35 71.81 71.96 73.06 72.36 73.55 75.83 76.00 76.18 76.28 76.97 76.70 75.78
70.51 71.69 73.01 73.52 74.13 73.55 73.45 74.33 73.50 73.62 72.43 73.07 72.07 74.73 74.10 73.87 73.03 72.68 72.44 72.31 73.38 73.03 73.75 72.69 72.35 72.19 71.94 71.82 68.49 71.95 71.74 70.85 71.75 72.62 72.78 72.71 73.89 76.35 76.58 77.15 76.78 76.86 77.12
70.77 72.24 73.16 74.44 73.50 72.81 73.37 74.62 73.26 72.64 72.02 72.07 73.53 73.72 75.15 75.61 74.62 73.14 72.91 72.56 74.04 73.15 71.20 71.59 71.23 69.26 68.83 65.78 63.42 64.38 66.65 65.78 66.79 66.59 66.80 67.43 71.36 73.15 75.76 76.18 75.70 76.32 76.61
70.70 71.94 71.80 72.77 72.99 73.16 74.12 74.95 73.78 73.46 73.80 73.84 73.23 74.16 73.30 75.11 75.45 74.03 73.55 73.01 74.40 73.28 73.16 71.73 71.03 68.82 64.27 63.30 64.91 64.50 64.73 65.06 66.17 68.82 67.76 68.26 69.06 71.40 72.13 74.88 74.50 75.53 75.41
71.63 72.58 72.43 72.36 73.65 73.82 74.87 74.08 74.33 73.26 73.81 74.54 72.98 72.81 75.94 74.05 75.72 73.77 73.92 73.65 73.00 72.39 70.65 69.81 68.95 69.48 65.53 64.88 66.40 65.14 64.66 65.23 65.29 67.36 67.55 69.50 69.49 70.26 71.03 72.85 71.41 72.14 75.19
72.16 72.42 71.79 72.05 73.88 73.99 73.75 73.41 72.70 72.04 72.40 72.86 73.67 74.78 74.88 74.22 74.24 73.68 73.48 73.39 73.60 72.20 70.32 71.03 66.71 63.82 63.52 65.93 62.52 62.72 65.17 65.04 64.91 67.95 65.97 65.17 66.48 69.55 71.36 70.76 70.77 72.06 72.56
70.97 72.37 72.00 72.72 74.53 73.81 74.16 73.59 72.21 72.43 72.46 72.80 73.16 74.97 74.14 74.94 74.39 74.16 73.12 72.56 71.52 70.85 70.71 67.75 65.45 64.08 63.64 65.60 60.76 60.69 59.65 63.07 65.58 66.36 64.08 64.02 63.86 68.18 68.55 68.03 67.81 70.18 70.94
70.54 71.98 72.55 73.35 74.58 74.61 74.47 74.00 72.83 73.54 73.90 72.85 73.81 73.85 74.92 74.98 74.94 74.33 74.67 72.63 72.22 71.40 69.68 67.48 66.37 64.14 61.67 63.93 63.02 61.80 59.07 57.87 62.92 66.19 64.41 63.01 63.58 63.70 65.42 64.45 64.43 65.93 70.42
70.85 72.88 73.07 73.85 74.98 73.99 74.41 72.75 71.32 70.91 70.55 71.40 73.62 73.87 73.23 74.82 74.65 74.45 73.60 71.99 71.79 70.53 68.75 66.21 66.40 64.73 62.95 59.86 64.51 65.37 63.10 61.71 59.48 58.13 63.33 62.32 61.98 62.20 63.63 62.98 62.46 63.57 66.80
71.74 72.38 73.84 73.71 75.17 73.92 73.97 73.83 71.98 70.81 71.52 70.96 69.90 71.93 73.60 73.23 74.18 74.01 73.88 72.93 71.30 70.96 68.31 66.73 64.70 65.29 64.86 64.00 64.02 63.82 63.11 62.81 61.59 58.71 57.21 59.72 64.30 62.65 61.69 62.80 63.16 62.54 64.31
71.97 72.90 73.65 73.43 73.86 74.57 73.28 73.71 73.67 72.27 70.22 69.07 71.68 71.42 72.17 70.61 71.49 73.47 73.23 72.67 71.40 68.40 66.61 66.70 67.29 65.29 65.28 64.59 63.29 63.00 62.18 60.70 60.38 60.37 57.54 57.15 59.15 61.11 63.64 62.38 62.40 62.78 62.52

GFSSE_sfc_wetblb_036.txt.gz
Wetbulb
70.24 72.75 75.64 76.10 75.93 77.12 77.89 78.38 78.36 78.91 79.14 78.94 78.79 78.34 77.88 77.67 77.86 78.25 78.09 77.60 77.09 76.89 76.59 76.40 76.21 76.16 75.62 75.79 75.92 76.23 75.63 75.16 75.16 75.03 73.85 73.63 74.30 74.58 75.21 75.48 75.47 73.05 74.81
70.99 73.30 75.84 76.66 77.08 77.57 78.30 78.31 78.52 78.42 78.52 78.68 78.49 77.96 77.40 77.20 77.28 78.00 77.78 76.75 76.70 76.63 76.38 76.27 76.05 76.00 75.69 75.69 75.73 76.00 75.20 75.04 75.16 74.82 73.93 73.06 74.79 74.73 74.78 75.45 75.07 73.34 75.15
71.61 72.95 74.44 76.68 77.16 77.41 77.88 78.31 78.04 77.90 78.03 78.51 78.45 78.15 77.71 77.43 77.37 77.35 77.00 76.68 76.44 76.42 76.20 76.11 76.17 75.83 75.61 75.39 75.63 75.19 75.16 74.92 74.58 74.43 73.58 71.50 72.34 74.97 75.49 75.55 75.07 74.19 75.00
72.31 72.81 73.97 76.44 77.26 77.09 77.61 78.16 78.24 77.57 77.61 78.27 78.32 77.99 77.48 77.41 77.22 77.04 76.77 76.33 76.17 76.00 75.81 75.84 75.62 75.62 75.45 75.39 75.22 74.89 74.73 74.13 74.18 74.21 72.39 72.08 72.92 75.13 75.58 74.94 74.01 73.41 74.09
72.46 72.93 74.04 77.02 77.35 76.92 77.05 77.61 78.02 77.85 77.42 77.61 77.38 77.10 76.97 77.11 77.07 76.88 76.33 76.08 75.95 75.81 75.78 75.70 75.40 75.01 74.98 74.79 75.00 75.28 74.74 74.60 75.23 74.34 72.71 70.47 70.79 74.26 74.86 75.24 74.43 74.95 74.47
72.47 73.88 76.25 77.08 76.63 76.73 76.80 76.93 77.10 77.21 77.16 77.50 77.37 77.08 76.82 76.99 76.75 76.59 76.14 76.04 75.98 75.98 76.04 75.79 75.43 75.15 74.85 74.46 74.93 75.20 75.76 76.98 74.24 70.38 70.88 73.14 71.58 74.51 74.70 75.14 74.87 74.58 74.32
72.68 74.35 75.30 77.87 77.95 77.41 76.85 76.83 76.81 76.92 77.13 77.48 77.18 77.04 76.80 76.88 76.39 76.18 75.71 75.90 75.93 76.04 76.18 75.62 75.15 74.99 74.96 74.99 75.43 75.50 76.96 75.72 73.01 71.13 71.57 71.15 71.97 75.70 75.65 75.32 74.65 74.86 73.67
73.27 74.07 75.49 77.64 78.33 78.00 77.11 77.18 76.94 76.68 77.16 77.29 77.22 77.12 76.82 76.77 76.25 75.79 75.40 75.35 75.46 75.82 75.68 75.79 75.21 75.29 75.04 75.43 76.08 75.85 75.45 73.81 72.48 71.77 72.03 72.01 75.10 76.13 75.59 75.33 74.97 75.01 73.62
73.55 73.70 74.57 75.17 76.30 77.67 78.17 77.54 77.27 76.82 77.05 77.07 76.94 76.94 76.75 76.52 76.17 75.57 75.15 75.43 75.29 75.26 75.37 75.34 75.71 76.53 76.74 76.63 76.93 76.40 74.04 71.40 69.47 69.40 71.99 71.73 75.51 75.54 74.72 75.40 75.14 75.35 74.87
72.32 73.47 73.87 74.36 75.11 75.36 75.98 77.67 77.25 76.98 76.97 76.99 76.98 76.92 77.00 76.61 76.23 75.79 77.36 76.38 75.68 75.28 75.16 75.64 76.21 77.18 77.31 75.11 76.68 75.84 72.88 72.89 70.36 67.88 70.40 72.41 75.63 74.10 74.18 75.05 74.43 74.85 74.88
72.07 72.60 73.54 73.63 73.92 74.23 74.55 75.74 77.25 77.19 77.10 77.06 76.47 76.73 77.05 74.17 73.85 75.08 75.63 76.75 76.49 75.47 76.20 76.04 76.63 77.51 75.15 72.77 75.61 75.76 74.02 70.03 70.44 69.89 71.74 73.67 75.68 74.97 74.10 74.77 74.50 74.82 74.92
70.62 72.00 73.30 73.52 73.44 72.95 75.04 73.54 73.98 74.45 74.37 73.70 73.86 73.56 74.61 73.91 73.30 74.82 75.48 77.26 76.45 76.37 73.85 76.87 77.63 76.04 75.86 71.10 72.80 75.55 69.87 70.26 69.86 69.32 70.40 74.42 75.69 75.50 75.78 74.77 75.39 74.86 74.84
71.10 72.37 73.08 73.10 73.01 72.41 72.59 72.64 72.99 72.98 72.95 72.58 72.85 73.21 73.24 73.91 72.61 74.09 72.14 73.15 71.93 75.37 73.33 74.48 73.63 72.68 73.48 72.32 72.56 71.16 71.59 70.17 67.55 69.18 71.28 75.08 76.01 75.63 74.90 75.38 75.09 74.75 75.21
71.11 71.86 72.69 72.91 72.42 72.14 70.75 72.57 72.48 72.83 72.55 71.93 72.34 72.90 72.65 72.41 71.46 71.86 71.33 71.72 71.33 73.37 71.94 70.82 72.40 71.52 72.29 73.01 71.82 70.11 68.40 68.83 66.90 69.63 71.43 74.65 75.21 76.14 76.16 75.05 74.85 75.01 74.33
70.78 71.49 72.30 72.89 72.31 72.02 71.20 71.52 72.04 72.80 72.63 72.44 72.17 72.83 73.13 71.27 71.93 71.86 71.92 72.27 72.22 72.62 71.28 70.19 70.68 71.16 72.26 72.07 72.02 71.40 69.69 70.08 68.28 71.70 70.53 75.21 76.07 76.90 76.16 76.12 75.19 74.94 74.64
70.57 70.13 72.11 71.29 72.55 71.98 71.78 70.96 71.61 72.68 73.59 72.81 72.90 73.33 73.37 71.61 71.49 72.37 72.36 72.04 71.08 72.78 71.70 72.06 71.72 71.66 71.95 71.89 71.25 71.72 70.10 70.51 70.11 71.50 71.52 72.13 76.52 76.75 76.74 76.78 76.37 75.63 75.49
70.57 70.95 71.13 70.76 72.16 72.29 72.21 71.79 72.76 74.12 72.08 72.89 73.44 73.05 73.67 71.90 71.37 71.56 71.17 71.24 71.93 72.34 72.52 71.44 71.33 70.31 68.75 67.07 64.49 69.93 70.54 70.54 71.61 71.28 71.46 71.22 73.02 76.34 75.89 76.55 76.70 76.83 76.15
70.86 70.72 71.73 72.70 72.47 72.26 72.40 73.18 72.23 72.10 71.13 71.29 71.86 72.89 73.03 73.21 72.83 72.04 71.05 70.95 72.92 71.68 70.83 70.31 70.16 68.11 66.57 63.88 61.82 62.95 65.25 68.09 68.06 70.56 71.31 70.80 71.36 72.68 74.88 75.55 75.39 75.73 76.26
70.56 70.43 71.69 71.99 72.51 72.47 71.82 72.97 71.87 71.62 70.99 71.70 72.28 72.59 73.46 74.48 73.62 72.40 71.84 71.81 72.86 72.13 70.99 70.38 70.03 66.77 62.99 62.10 64.75 63.15 63.02 63.80 64.88 67.18 66.28 67.79 67.58 71.17 71.16 74.60 74.95 75.20 75.12
70.10 71.57 72.05 72.01 71.85 71.73 72.09 72.88 71.90 71.28 72.05 73.01 72.03 72.20 73.21 74.85 74.83 72.65 72.55 72.82 72.28 72.63 70.37 69.20 67.49 66.30 63.55 63.60 64.29 64.07 63.43 64.33 63.89 66.42 67.23 70.16 70.75 70.59 70.95 71.82 71.80 71.38 74.87
70.74 71.25 71.49 71.49 71.28 71.34 71.71 71.28 70.89 70.31 71.07 71.59 72.02 71.99 73.50 73.46 74.15 73.18 71.66 72.54 71.47 70.25 70.41 68.83 65.27 62.21 61.50 63.90 60.21 59.55 62.83 63.91 63.49 65.51 64.64 66.34 68.64 69.69 69.63 69.57 70.40 70.73 72.97
69.44 70.62 70.62 71.27 71.65 71.79 72.35 72.47 71.39 71.64 71.84 71.08 71.99 73.47 73.33 73.41 73.43 73.15 71.59 71.67 71.20 71.33 69.18 66.09 63.23 62.13 62.59 63.86 59.17 59.42 59.18 61.11 64.25 63.77 63.42 64.23 66.72 68.60 68.52 69.04 69.09 70.11 69.62
69.42 70.27 70.65 71.25 72.35 72.39 72.78 72.69 71.21 71.76 70.98 71.13 71.56 72.63 73.22 74.05 74.14 73.03 72.53 71.53 70.59 69.01 68.16 65.58 64.11 61.82 59.98 61.41 61.58 60.66 58.04 56.80 61.37 63.85 63.52 62.83 64.36 64.13 63.84 64.03 67.20 69.72 68.51
69.82 71.28 70.79 71.41 72.91 72.81 73.09 72.57 71.49 70.21 70.10 70.12 70.74 72.37 73.36 73.48 73.56 73.74 72.76 71.26 70.78 69.92 67.17 65.88 65.90 63.97 60.29 59.28 62.72 64.00 61.50 59.73 58.51 58.34 61.38 61.31 60.82 63.25 61.90 61.52 63.01 69.21 67.70
70.02 70.96 71.31 71.39 73.28 73.29 73.15 72.62 71.78 69.78 70.35 71.27 70.62 72.96 71.28 72.54 73.22 73.58 72.45 70.45 70.33 69.10 67.02 65.81 63.22 64.04 62.89 61.73 62.48 62.69 60.78 61.71 58.53 58.09 56.60 59.05 61.24 60.65 61.30 61.13 61.15 65.96 66.41
70.06 71.09 71.47 71.32 72.25 73.09 73.40 72.59 71.66 70.61 69.57 69.66 69.15 69.51 70.53 71.92 72.16 72.54 72.98 70.57 69.82 68.44 67.13 65.23 63.42 63.48 64.52 63.37 61.61 62.06 60.47 59.76 59.80 59.77 56.12 56.21 57.41 59.50 60.93 60.20 60.83 61.04 63.37

GFSSE_sfc_wetblb_039.txt.gz
Wetbulb
71.10 72.93 75.63 75.99 75.77 77.06 77.76 77.49 78.05 78.18 78.21 77.90 77.50 77.18 76.81 77.02 77.04 77.32 77.18 76.73 76.66 76.37 76.21 75.53 75.84 75.71 75.59 75.83 75.74 75.28 74.79 74.89 74.73 73.73 74.19 74.87 74.95 75.21 75.45 75.51 74.33 72.95 75.12
71.58 72.87 75.73 76.21 77.14 77.85 77.04 77.28 77.44 78.19 77.61 77.45 77.14 76.75 77.08 76.92 77.14 76.96 76.77 76.55 76.39 76.21 75.92 75.97 75.71 75.32 75.55 75.69 75.89 75.31 75.30 74.85 74.52 73.64 72.97 74.20 74.52 74.40 75.00 75.00 74.18 73.75 75.06
71.52 73.08 74.49 76.75 77.20 77.31 77.05 77.64 77.73 77.60 77.20 77.36 77.02 76.79 76.94 76.91 76.78 76.71 76.51 76.27 76.08 75.95 75.90 75.70 75.57 75.42 75.32 75.18 75.03 74.69 74.70 74.57 74.68 73.70 73.64 71.50 71.70 75.20 75.49 74.94 74.33 74.81 74.88
71.75 72.22 73.55 76.32 77.26 77.23 77.50 77.63 78.06 77.45 77.57 77.43 77.28 77.30 77.15 76.91 76.84 76.49 76.08 76.00 75.84 75.57 75.35 75.13 75.24 75.21 75.37 75.14 74.98 74.72 74.51 74.49 74.44 74.20 71.62 71.50 73.19 75.24 75.26 74.58 73.93 74.10 73.96
71.67 72.63 73.61 76.49 77.31 76.98 77.16 77.35 77.89 77.56 77.28 76.98 76.71 76.87 77.03 76.76 76.46 76.25 75.81 75.70 75.40 75.54 75.48 74.99 74.74 74.61 74.82 74.88 74.73 74.57 74.74 74.85 75.21 74.05 70.86 69.79 71.48 74.58 75.27 73.50 73.98 74.43 74.78
72.04 73.27 74.86 76.46 76.47 76.59 76.91 77.07 77.04 77.07 77.10 76.90 76.75 76.67 76.84 76.54 76.19 75.98 75.82 75.63 75.48 75.63 75.71 75.30 75.05 74.74 74.69 74.66 74.33 74.25 76.76 75.10 73.77 72.44 70.32 72.71 71.47 74.28 75.13 74.86 75.00 74.93 74.90
71.85 73.24 74.18 77.04 77.06 76.70 76.75 76.75 76.72 76.67 76.94 76.98 76.75 76.49 76.65 76.42 76.04 75.85 75.58 75.36 75.33 75.88 75.86 75.19 74.78 74.81 74.89 74.83 74.61 76.44 75.96 74.86 71.51 71.23 71.31 70.90 71.09 74.91 75.13 75.22 74.73 73.97 74.70
72.55 73.65 74.45 76.62 77.26 76.79 76.65 76.59 76.64 76.64 76.96 76.98 76.83 76.52 76.54 76.30 75.79 75.63 75.00 75.06 75.42 75.39 75.30 75.03 74.58 74.70 74.70 74.89 74.80 75.83 74.94 75.07 72.36 72.16 71.55 70.99 74.42 75.67 75.43 74.58 74.65 73.87 74.00
73.69 73.93 74.19 74.67 75.33 76.73 77.00 76.59 76.54 76.72 76.71 76.87 76.83 76.72 76.51 76.36 75.68 75.08 74.94 75.03 75.08 75.03 75.16 75.14 75.33 75.03 74.92 75.08 75.08 75.40 74.35 73.40 69.29 70.45 72.16 71.85 76.14 75.72 75.17 74.79 74.87 73.90 74.10
72.90 73.23 73.51 73.99 74.36 74.27 74.73 77.17 76.63 76.64 76.80 76.75 76.70 76.67 76.40 76.12 75.77 75.58 76.56 75.78 75.75 75.02 74.85 75.64 75.33 75.08 75.85 76.01 75.63 75.10 73.31 72.72 68.86 68.45 71.37 72.17 74.97 75.02 74.57 75.15 74.82 75.14 74.36
71.75 72.51 73.21 73.57 73.63 74.30 74.68 75.53 76.96 76.63 76.78 76.78 76.29 76.46 76.51 73.78 73.54 74.69 75.29 76.33 76.11 75.38 75.77 75.83 76.05 75.49 74.56 74.88 76.13 75.51 73.70 69.23 68.30 69.92 70.16 73.15 75.20 73.87 74.27 74.72 74.05 74.83 74.64
69.84 71.77 72.87 73.04 73.53 73.73 75.46 73.82 73.84 73.66 74.32 73.97 73.71 73.30 74.00 73.34 72.90 74.47 75.09 76.68 75.90 76.02 75.05 74.75 77.24 75.69 74.48 71.53 73.30 75.34 70.64 69.22 69.46 68.71 70.35 73.42 75.17 74.49 73.73 74.52 74.44 74.55 74.78
70.34 71.70 72.80 73.08 72.89 73.02 73.33 72.33 72.75 72.79 72.75 72.65 72.28 72.35 72.10 73.44 72.34 72.54 72.77 71.93 71.13 74.60 71.78 73.68 72.77 71.99 72.36 72.16 71.73 71.67 70.86 70.23 69.31 68.09 69.45 73.75 74.85 75.54 75.40 74.57 75.10 74.77 74.68
70.15 71.01 72.41 73.05 72.68 71.87 71.21 72.26 71.98 71.82 71.73 71.39 71.56 71.78 71.70 71.57 71.57 71.66 71.36 70.70 70.77 72.39 71.38 69.67 71.67 71.22 71.21 72.37 71.86 70.41 70.32 69.76 67.38 67.91 69.14 74.82 75.69 75.53 75.21 75.54 74.83 74.68 74.78
69.96 71.17 71.95 72.53 72.23 71.80 69.95 70.96 70.76 71.32 71.72 71.57 71.20 71.47 72.41 71.57 71.38 71.36 71.01 71.15 71.23 71.65 71.55 70.69 69.81 70.60 71.20 71.47 71.32 71.01 67.85 68.73 67.25 69.63 70.20 74.12 75.27 75.53 75.83 75.33 74.72 74.97 74.38
70.34 70.82 71.98 71.72 72.10 71.56 70.27 70.05 70.49 71.26 71.85 71.54 71.98 71.84 72.87 71.63 70.73 70.86 71.24 71.31 70.74 72.23 71.59 71.02 70.44 70.28 70.31 70.66 69.85 70.37 69.57 69.33 68.88 69.40 70.53 70.27 75.04 75.39 75.26 75.21 75.32 74.90 74.74
70.40 71.01 71.20 71.59 71.74 70.93 70.42 70.20 70.43 71.59 72.78 72.46 72.80 72.10 72.83 71.80 70.96 71.75 71.29 71.22 71.15 72.02 71.35 71.29 70.56 68.86 66.02 64.33 62.76 67.81 69.74 70.06 71.32 70.15 70.39 69.95 72.16 75.34 75.69 75.46 75.97 75.90 75.56
70.28 69.95 71.30 72.61 71.52 71.32 70.56 70.82 71.17 71.92 71.77 72.61 73.44 72.03 72.35 72.23 71.45 71.12 70.40 70.02 71.69 70.70 70.69 69.65 69.15 67.49 64.67 64.05 62.22 62.46 63.02 69.14 68.93 70.18 70.42 70.46 70.65 71.30 73.79 76.12 75.36 75.71 75.35
69.95 69.91 70.28 71.10 70.54 71.40 71.03 71.83 70.99 71.37 70.19 70.51 70.74 71.52 72.22 72.43 72.62 71.41 70.82 70.95 72.00 71.02 69.97 69.57 68.98 66.35 61.68 61.81 64.07 62.17 62.63 63.01 63.43 65.75 70.09 69.39 68.54 70.84 70.81 73.66 74.33 74.60 73.98
70.08 70.33 70.21 70.87 70.44 71.21 71.77 71.76 70.88 70.06 70.14 72.18 71.37 71.40 72.28 72.86 73.84 72.02 71.52 71.22 71.50 71.87 71.08 69.16 66.67 65.32 62.03 62.59 62.97 62.14 63.07 63.29 63.26 65.56 66.29 69.98 70.24 69.63 70.40 70.95 71.57 71.43 74.47
70.00 69.76 70.29 70.35 70.74 70.98 69.96 70.71 69.85 69.03 69.70 71.27 70.72 71.85 72.24 73.64 74.07 72.93 71.10 71.81 70.86 70.31 69.98 67.97 64.59 61.77 60.47 62.88 58.47 58.32 61.76 63.27 63.69 63.83 65.03 67.32 68.77 69.40 69.37 69.68 70.14 70.47 72.08
68.69 69.30 70.09 70.59 70.34 70.98 71.31 71.55 70.53 70.08 70.07 70.40 71.96 71.22 71.95 72.84 73.34 73.73 71.04 70.89 70.80 69.76 68.71 66.99 62.83 61.28 61.62 62.53 58.01 58.34 58.01 60.08 62.73 62.58 62.78 67.16 67.41 68.32 68.26 68.69 68.70 68.99 69.17
68.62 69.16 69.90 70.66 70.70 70.80 71.22 70.98 70.32 70.74 70.19 70.01 70.22 71.10 72.56 72.84 73.49 72.94 71.55 71.05 70.18 69.53 68.15 64.92 62.76 61.21 59.93 60.49 60.57 60.17 57.51 55.95 60.27 62.29 61.21 65.47 65.64 64.81 64.37 66.70 68.34 68.68 67.96
68.87 69.93 70.28 70.67 70.86 70.79 71.11 70.93 70.27 69.28 68.40 69.13 70.30 70.76 71.99 73.13 72.74 72.61 71.80 71.24 70.18 68.67 67.19 65.04 64.73 62.35 59.44 59.71 61.90 62.79 60.27 59.72 58.46 57.58 60.34 61.00 61.23 63.03 61.50 61.81 65.39 68.16 66.68
69.67 69.34 70.23 70.16 70.89 71.19 71.37 71.54 70.81 69.66 70.15 69.22 69.36 70.34 71.39 71.89 72.57 73.03 72.48 71.59 69.76 69.08 67.27 65.55 63.42 62.99 59.41 59.92 61.65 61.53 59.87 60.65 57.78 58.25 56.29 58.48 60.10 60.04 61.66 60.11 61.68 67.55 66.66
69.67 69.29 70.09 69.62 70.54 71.34 71.39 71.66 70.97 70.20 68.82 68.90 68.61 69.12 70.53 70.71 71.79 72.15 72.24 70.15 69.72 68.86 66.69 65.06 62.80 63.29 63.73 62.38 61.51 60.57 59.31 58.68 59.05 58.42 55.57 55.67 57.00 58.45 59.69 60.12 59.64 62.31 65.17

GFSSE_sfc_wetblb_042.txt.gz
Wetbulb
70.89 72.90 75.25 75.80 76.38 77.10 78.07 78.06 78.08 78.14 78.06 78.09 77.95 77.52 77.27 77.20 77.13 76.87 76.53 76.41 76.35 76.26 76.01 75.65 75.52 75.48 75.83 75.50 75.00 74.65 74.59 74.43 73.83 74.26 74.94 75.02 75.27 75.51 75.47 74.49 75.04 73.61 75.16
71.69 73.06 75.20 75.75 77.45 77.27 77.52 77.71 77.56 77.62 77.42 77.42 77.45 77.33 77.03 77.19 77.20 76.72 76.43 76.47 76.12 75.91 76.00 75.68 75.27 75.40 75.53 75.68 75.51 75.02 74.48 74.57 73.75 73.03 74.46 74.75 75.04 75.33 75.16 74.39 75.22 74.78 74.35
71.28 72.75 73.67 76.49 77.29 77.07 77.37 77.58 77.23 76.83 76.72 76.80 76.96 77.06 77.17 76.83 76.63 76.42 76.29 76.13 76.02 76.08 75.95 75.73 75.73 75.31 75.20 75.17 75.00 74.86 74.78 74.63 73.84 73.30 74.41 72.57 73.38 75.08 75.02 74.78 75.20 74.95 75.00
72.12 72.85 73.06 76.73 77.49 77.00 77.13 77.60 77.48 76.69 76.71 76.84 77.03 77.13 77.01 76.83 76.59 76.13 75.86 75.61 75.56 75.42 75.26 75.37 75.26 75.34 75.20 75.00 74.73 74.62 74.43 74.35 74.33 73.37 72.79 73.43 73.69 75.75 75.05 74.39 75.04 74.60 74.57
71.67 72.43 73.35 77.22 77.82 76.87 76.95 77.16 77.57 77.58 76.96 77.17 77.21 76.99 76.85 76.51 76.21 75.89 75.61 75.56 75.69 75.55 75.33 74.93 74.71 74.71 74.77 74.16 74.55 74.21 74.27 74.73 74.74 72.90 71.92 73.08 74.06 74.85 74.37 73.50 73.95 74.42 74.70
71.81 73.02 75.23 76.92 76.93 76.86 77.21 77.09 77.42 76.99 76.63 76.55 76.82 76.83 76.48 76.21 76.00 75.78 75.70 75.70 75.50 75.94 75.65 75.26 75.21 74.90 74.63 74.35 74.21 74.16 75.13 75.56 75.98 72.36 71.51 74.13 73.51 75.35 74.18 75.27 75.01 75.32 74.96
71.66 72.96 74.45 77.45 77.27 77.08 76.85 77.07 76.91 76.91 76.71 76.46 76.42 76.61 76.29 76.00 75.70 75.51 75.38 75.54 75.76 76.01 75.49 75.13 75.13 74.94 74.85 74.58 74.44 75.76 75.52 75.30 72.86 72.21 72.51 73.10 72.77 75.63 75.15 75.07 74.78 74.75 74.92
71.94 73.19 73.88 76.62 77.04 76.76 76.81 76.61 76.52 76.80 76.79 76.62 76.26 76.37 76.35 75.73 75.40 74.94 74.88 75.27 75.74 75.58 75.58 75.11 74.69 74.61 74.72 74.94 74.64 75.38 75.73 74.86 73.13 72.69 72.46 72.64 74.37 75.41 75.10 74.69 73.86 73.96 75.12
73.25 73.11 73.51 73.48 74.95 76.49 76.53 76.56 76.59 76.55 76.74 76.65 76.55 76.23 76.26 75.81 75.13 74.91 74.86 75.19 75.30 75.08 75.21 75.11 75.11 74.75 74.80 75.10 75.02 75.56 75.10 74.12 71.95 72.79 72.36 73.00 75.12 75.92 75.13 74.31 74.57 72.81 74.71
72.65 73.13 73.22 73.55 73.48 73.51 74.08 76.40 76.38 76.42 76.52 76.60 76.36 75.78 75.91 75.84 75.30 75.16 76.42 75.44 75.93 75.13 74.90 75.19 74.91 75.05 75.38 75.60 75.32 75.05 73.57 73.29 69.85 71.52 73.10 73.50 75.47 75.08 75.30 74.87 74.55 73.43 74.50
72.17 72.25 73.05 73.27 73.03 73.76 73.97 74.96 76.55 76.45 76.47 76.36 75.94 76.21 76.19 74.80 74.50 75.16 75.53 76.45 76.41 75.40 75.71 74.66 75.52 75.47 74.30 75.60 75.35 75.40 73.97 69.64 68.87 70.51 71.83 73.54 74.72 74.57 74.54 74.76 74.71 74.62 74.20
70.19 71.89 72.65 72.99 73.12 73.79 75.30 74.58 74.31 73.82 74.44 74.74 74.75 74.41 74.78 74.61 73.94 74.89 75.69 76.66 76.96 76.49 76.12 75.52 75.16 75.37 73.21 73.18 74.41 74.43 72.73 70.41 70.45 70.42 71.89 73.50 74.26 73.78 73.92 74.63 73.80 74.44 74.46
70.02 71.92 72.82 72.88 73.30 73.44 74.36 73.47 73.25 73.32 73.54 73.72 73.73 73.43 73.24 74.27 73.58 73.06 73.46 73.37 73.02 73.66 73.48 74.02 73.58 73.50 73.55 73.58 73.35 74.14 73.37 70.86 71.27 70.42 70.91 73.18 74.96 74.71 73.95 73.91 74.73 74.28 74.66
69.28 71.24 72.60 73.09 73.22 72.77 72.66 72.60 72.55 72.58 72.64 72.23 72.48 72.41 72.18 72.28 72.34 72.31 72.49 72.79 72.60 73.05 73.44 71.97 73.24 72.53 73.05 73.23 73.18 72.75 71.80 71.89 70.62 68.85 70.26 74.35 74.86 74.92 75.56 74.93 74.89 74.81 74.69
68.90 70.32 71.79 72.99 72.79 72.60 71.27 71.68 71.66 71.86 72.28 72.04 72.02 71.88 72.31 72.33 71.90 72.43 72.86 72.81 72.52 73.22 73.78 72.94 72.17 72.54 72.95 72.68 72.74 72.69 70.59 70.61 70.10 70.08 70.64 74.51 75.14 75.16 74.82 75.06 74.79 74.83 74.08
69.47 70.06 71.53 72.27 72.63 72.03 71.24 70.28 71.03 71.29 71.82 71.86 71.79 71.73 72.09 73.05 72.22 72.16 72.56 72.66 72.54 72.87 73.75 72.93 73.13 72.99 72.15 71.84 71.40 72.66 71.20 70.29 70.44 70.39 71.86 71.37 74.66 75.13 75.03 74.37 74.53 74.63 74.69
69.88 70.57 71.02 71.59 72.22 71.18 70.34 69.96 70.16 70.80 71.90 71.87 72.14 72.43 72.87 73.08 72.62 73.12 72.61 72.32 72.40 72.55 73.19 73.01 72.54 71.77 68.50 66.49 66.55 70.43 71.84 71.82 71.93 70.92 71.84 71.86 72.07 75.05 74.96 75.92 74.88 75.14 74.90
70.25 70.17 70.92 72.20 71.61 70.84 70.13 69.94 70.59 70.81 71.32 72.28 73.23 73.33 73.18 73.38 73.10 72.49 72.29 72.08 72.75 72.91 72.99 71.99 71.46 69.93 66.60 65.62 66.53 65.35 66.26 70.84 71.71 71.69 71.86 72.08 72.08 72.72 73.97 74.67 74.52 75.55 74.55
70.24 70.16 70.26 71.14 70.91 70.78 70.25 70.42 70.84 71.19 71.65 72.08 72.16 73.00 73.02 73.38 73.25 72.50 71.99 72.05 73.20 72.53 72.09 71.60 70.94 68.85 65.40 65.97 66.75 65.64 65.92 66.67 66.92 67.65 70.84 72.38 72.20 72.71 72.57 73.01 75.03 74.62 73.39
70.14 70.52 70.24 71.15 70.95 71.01 70.86 70.76 71.38 71.01 71.14 71.38 71.35 71.77 72.95 73.16 73.66 72.64 72.50 72.41 73.33 72.73 71.45 70.97 69.74 67.17 65.45 65.68 63.75 63.84 66.03 65.85 67.55 67.80 69.00 70.62 70.98 70.64 72.47 73.00 73.85 73.72 74.16
69.62 69.56 69.41 69.93 70.18 70.47 70.48 70.12 70.33 69.85 70.35 71.33 72.55 72.87 72.86 73.28 74.55 73.59 73.28 72.86 73.01 72.40 72.06 71.11 67.62 66.47 64.47 64.89 63.48 63.28 65.36 65.71 66.07 66.40 69.21 70.67 71.44 71.84 72.16 72.21 72.40 72.61 72.91
68.49 69.19 69.46 69.58 70.09 70.15 70.81 71.10 71.36 71.21 70.51 71.65 72.79 72.53 72.93 73.52 74.17 73.54 72.91 72.37 72.79 71.37 70.97 69.99 67.52 64.94 64.75 64.56 62.15 61.88 62.07 64.55 65.95 65.70 66.88 69.77 69.90 70.58 70.60 70.88 71.37 71.73 72.18
68.49 68.86 69.39 69.68 70.05 70.64 70.86 71.02 70.81 71.00 71.15 70.64 71.26 72.03 71.90 73.23 73.90 74.66 73.77 72.06 72.28 71.91 70.31 69.21 66.53 65.33 64.41 64.06 63.74 63.85 60.60 60.43 63.00 65.19 64.94 68.04 68.80 68.44 67.71 69.83 70.72 70.70 70.57
69.01 69.57 69.69 70.04 70.42 70.71 70.98 70.63 70.21 70.00 69.55 70.16 70.35 71.67 72.73 73.28 73.46 73.99 73.35 72.54 72.03 71.02 70.31 68.55 66.50 65.47 64.19 64.04 65.04 64.40 63.29 63.62 62.03 61.62 64.03 64.99 65.27 66.74 66.09 66.24 69.70 70.48 69.27
69.39 69.33 69.35 69.86 70.37 70.61 70.73 70.91 70.34 70.14 70.12 70.11 70.67 71.19 71.34 72.91 73.61 73.64 73.35 72.79 71.86 70.73 70.48 68.32 66.81 65.73 63.24 63.75 64.60 64.05 63.64 62.62 61.91 61.92 60.17 62.63 64.10 64.44 65.71 64.53 65.72 70.11 69.45
69.28 69.61 69.37 69.48 69.88 70.54 70.36 70.59 70.23 70.01 69.25 69.18 69.43 69.96 70.88 71.82 72.55 73.22 73.45 72.87 72.43 71.33 69.85 68.42 67.32 66.29 64.65 65.04 65.08 64.53 63.61 63.19 62.25 61.41 60.39 60.52 62.19 63.56 63.97 64.78 64.18 65.83 69.77

GFSSE_sfc_wetblb_045.txt.gz
Wetbulb
71.40 73.68 75.34 75.39 75.77 77.31 78.15 78.04 78.29 78.75 78.70 78.42 78.04 77.32 76.90 77.16 77.04 76.73 76.46 76.47 76.45 76.35 75.74 75.76 76.05 76.17 75.81 75.04 74.74 74.66 74.33 74.25 74.65 74.74 75.09 75.54 75.53 75.74 74.27 74.59 74.57 74.69 75.33
72.29 73.81 75.35 75.95 77.00 77.85 78.30 78.16 78.29 78.31 77.99 77.83 77.80 77.31 77.08 77.06 77.00 76.63 76.44 76.19 76.08 76.19 75.74 75.55 75.57 75.76 76.08 75.60 74.91 74.65 74.65 73.86 73.28 74.44 74.77 75.02 75.23 75.47 74.70 75.38 74.94 74.51 75.36
72.16 74.37 74.75 76.79 77.65 77.43 77.95 77.97 77.68 77.37 77.08 77.59 77.22 77.23 77.23 76.77 76.69 76.48 76.44 76.27 76.22 76.15 75.96 75.90 75.54 75.40 75.46 75.15 74.97 75.09 74.70 74.25 73.44 74.22 74.45 74.75 74.73 74.90 74.85 75.38 75.46 75.00 74.72
73.29 73.93 75.69 77.12 77.75 77.24 77.62 78.01 77.89 76.78 76.80 77.17 77.25 77.13 76.81 76.70 76.38 76.17 76.06 75.73 75.54 75.40 75.54 75.57 75.68 75.62 74.96 74.85 74.87 74.36 74.41 74.52 73.36 74.21 74.96 74.44 74.43 75.18 74.77 75.59 75.22 74.96 74.54
73.22 74.13 76.63 77.63 77.94 77.17 77.17 77.31 77.56 76.87 77.08 77.12 77.19 76.78 76.68 76.38 76.14 75.98 75.90 75.81 75.72 75.75 75.48 75.18 75.10 74.74 74.77 74.63 74.36 74.27 74.30 74.93 74.28 73.43 75.05 75.43 75.11 75.23 74.16 74.27 74.47 75.06 74.57
73.14 74.12 76.89 77.36 76.97 77.03 77.27 77.24 77.36 76.80 77.23 77.19 76.92 76.76 76.44 76.28 76.12 75.90 75.90 75.88 75.79 76.24 75.82 75.40 74.93 74.63 74.55 74.28 74.22 74.22 75.09 75.36 75.21 73.92 74.69 75.09 75.08 74.17 74.36 74.59 74.70 75.70 75.36
72.95 74.61 76.22 77.70 77.39 77.44 77.12 77.44 76.78 76.60 76.45 76.63 76.77 76.46 76.22 76.09 76.01 75.79 75.98 75.90 76.40 76.13 75.50 75.14 75.00 74.89 74.38 74.47 74.72 74.52 74.77 75.07 75.98 74.53 73.88 74.27 74.65 75.31 75.33 75.09 75.12 75.18 75.20
73.17 74.79 75.70 77.12 77.35 77.35 77.04 76.98 76.65 76.68 76.64 76.26 76.43 76.52 76.14 75.90 75.65 75.43 75.38 76.07 76.24 75.88 75.27 74.77 74.53 74.58 74.75 74.69 75.08 75.35 75.29 75.02 75.08 74.26 73.63 74.26 73.90 74.83 75.42 74.88 74.14 75.23 75.11
74.27 74.98 75.61 75.59 76.58 76.71 76.66 76.57 76.48 76.51 76.52 76.44 76.24 76.29 76.13 75.48 74.97 74.94 75.16 75.35 75.41 75.10 75.10 75.02 74.86 74.55 74.53 75.02 74.94 75.25 75.23 74.61 74.87 74.56 72.64 73.92 73.92 74.98 74.73 74.44 73.31 74.58 75.00
74.02 74.88 75.41 75.73 75.72 76.07 76.46 76.52 76.46 76.43 76.39 76.36 76.27 75.89 75.81 75.57 75.36 75.36 75.91 75.27 75.58 75.24 74.95 75.09 74.82 74.52 74.89 75.24 75.29 74.43 74.87 73.62 74.08 74.40 74.10 74.91 73.77 75.20 74.57 74.88 73.42 74.54 74.64
73.19 73.94 74.61 74.75 75.59 75.99 76.13 76.07 76.21 76.35 76.15 76.04 76.10 75.78 76.41 77.94 77.26 76.35 75.62 76.03 75.91 75.31 75.76 75.49 75.04 75.33 74.47 75.37 75.73 74.60 72.74 71.89 72.80 74.46 74.65 73.67 74.31 74.25 74.19 74.94 74.39 74.02 74.66
71.53 72.84 73.93 74.06 74.51 75.51 74.91 76.41 76.62 75.98 75.97 76.50 76.63 77.10 77.45 77.13 76.95 76.15 76.61 76.05 76.19 76.02 75.73 75.69 75.80 75.41 75.60 76.16 75.72 75.86 76.40 73.45 73.58 74.68 74.63 73.65 74.06 74.30 74.63 74.39 74.25 74.52 74.23
71.38 72.23 73.38 74.30 75.10 74.97 74.81 75.73 76.28 75.39 75.74 76.15 77.09 76.69 76.37 76.45 77.00 76.57 77.00 77.15 77.24 75.50 77.13 76.73 76.92 77.29 76.02 76.96 76.83 76.56 76.45 74.60 75.11 74.11 74.79 73.63 74.05 74.00 73.81 74.51 73.98 74.31 74.66
70.93 72.21 73.55 75.00 75.52 75.51 75.22 75.53 75.92 74.99 75.25 74.96 75.41 76.28 75.55 75.10 76.01 76.66 76.73 77.37 77.00 77.31 77.50 76.60 77.01 77.24 77.19 77.00 77.11 76.86 75.69 75.24 74.87 73.03 74.03 73.32 74.99 75.19 74.55 74.14 75.17 74.10 74.83
70.30 71.77 73.28 74.93 75.74 76.07 75.88 75.60 75.76 75.34 74.47 74.61 75.10 75.05 74.78 75.04 76.74 76.88 77.44 77.19 76.94 77.47 77.66 77.40 76.79 76.88 76.40 76.51 75.47 76.70 75.50 75.78 74.33 74.09 73.93 75.01 74.66 74.60 74.86 74.88 74.66 74.56 74.71
70.62 71.42 73.25 74.16 75.42 75.88 75.67 76.07 75.52 75.36 74.95 75.04 74.39 74.48 75.30 75.02 76.58 76.50 77.04 76.80 76.93 76.93 77.42 77.29 77.74 76.87 76.41 75.46 74.81 76.61 76.13 75.52 75.81 74.50 74.82 74.83 74.22 74.67 74.64 74.27 74.62 74.64 74.41
70.63 71.78 72.64 73.97 75.00 75.76 75.67 75.45 75.20 74.72 74.43 73.79 73.95 75.12 75.09 75.49 76.64 77.31 76.75 76.30 76.29 77.17 77.21 77.16 77.53 76.91 73.45 70.09 70.11 75.50 76.10 76.19 75.72 72.98 75.12 75.53 74.34 74.54 74.39 74.30 74.70 75.06 74.97
71.35 71.58 72.90 73.17 74.18 74.95 75.52 75.33 74.72 74.04 73.73 73.91 73.99 74.58 75.41 76.33 77.23 77.21 76.30 76.30 77.27 76.98 77.93 77.90 76.28 75.20 69.55 68.56 70.94 71.25 72.23 74.96 75.60 75.27 76.05 75.59 75.25 74.43 74.43 75.26 75.04 74.51 73.91
72.56 72.38 72.57 73.45 73.52 74.44 75.25 75.02 74.71 74.55 73.82 73.79 74.46 75.60 76.60 77.30 77.19 76.89 76.49 76.45 77.33 76.12 76.55 75.40 75.76 74.06 70.47 70.03 69.62 71.38 72.22 72.83 73.35 71.88 74.64 75.18 75.02 74.73 74.60 74.46 74.87 75.06 73.61
73.12 73.67 73.79 73.73 74.27 74.69 74.42 74.68 73.97 73.30 73.50 74.98 75.21 75.80 76.81 77.30 77.70 77.24 74.90 75.40 76.77 75.98 74.51 73.56 75.29 73.15 71.65 71.18 68.79 70.10 71.28 71.95 73.72 73.08 73.23 74.15 74.68 74.39 75.04 75.30 74.68 74.52 74.12
72.97 73.18 73.62 73.72 74.84 74.01 72.96 72.07 72.02 71.10 73.02 74.49 75.57 76.75 76.88 77.19 77.55 77.64 75.43 76.30 75.46 77.45 76.30 76.63 74.91 73.09 71.26 71.46 69.66 69.39 70.46 71.44 71.67 72.36 73.90 73.88 73.88 74.24 75.18 75.86 76.16 76.06 74.81
72.32 73.12 73.77 74.00 74.95 74.26 73.67 73.69 72.97 73.34 73.86 75.08 76.11 76.88 77.41 77.19 77.66 77.39 76.52 76.29 76.65 75.67 76.16 75.65 73.88 71.40 70.09 70.73 68.46 68.61 65.00 67.90 70.84 71.21 73.26 73.26 72.95 73.58 73.16 73.17 73.67 74.69 75.64
72.05 73.31 73.93 74.84 75.57 74.96 75.34 74.36 74.08 74.63 74.69 74.11 74.55 75.68 76.50 77.19 77.55 77.93 75.96 75.84 76.92 76.52 74.92 75.57 73.94 72.05 68.58 70.61 69.47 68.46 64.94 64.10 67.36 70.82 70.62 73.20 73.41 73.02 71.68 71.73 72.87 73.97 74.22
72.50 73.23 74.33 74.78 75.39 75.15 76.07 74.48 74.66 72.27 71.86 73.47 74.67 75.50 76.13 77.24 77.18 77.52 77.63 77.26 77.15 76.02 75.98 75.33 73.81 72.18 70.61 68.30 69.83 70.24 69.98 69.64 64.69 64.52 68.89 70.34 72.06 71.74 71.75 71.31 71.91 73.26 72.40
72.54 72.45 73.16 74.56 75.14 75.50 75.69 75.63 74.32 74.06 73.72 74.48 74.87 76.54 77.20 77.64 77.22 77.14 77.61 77.62 77.18 76.29 76.23 75.51 73.55 71.66 70.45 69.57 68.86 68.47 69.46 69.13 70.01 67.47 64.45 66.86 69.78 70.61 71.36 70.62 70.88 72.02 71.64
72.22 72.73 72.78 74.07 74.66 75.51 75.39 75.32 75.29 74.84 74.90 73.55 74.30 74.10 74.58 74.92 75.73 77.10 77.33 77.44 77.41 76.91 76.11 75.39 74.62 73.10 71.62 70.05 69.41 70.07 68.16 67.24 66.63 67.08 66.22 67.14 66.89 68.52 69.31 70.26 69.45 69.91 71.59

GFSSE_sfc_wetblb_048.txt.gz
Wetbulb
71.40 74.30 75.20 76.21 77.19 77.64 78.14 78.47 78.66 78.32 78.14 78.09 77.24 76.91 77.11 77.39 77.04 76.77 76.69 76.79 76.58 76.04 76.29 76.17 75.89 76.10 75.27 74.97 74.94 74.86 74.44 74.72 74.94 75.35 75.71 75.64 75.64 74.11 74.65 75.04 75.66 75.01 75.92
74.17 74.86 75.57 76.69 77.10 77.64 78.29 78.45 78.62 78.74 78.03 77.55 77.21 77.21 77.16 77.05 76.87 76.70 76.61 76.39 76.58 76.01 76.13 75.96 75.82 76.21 75.57 74.86 75.16 75.05 74.22 73.56 74.53 74.69 75.08 75.62 75.53 75.01 75.43 74.59 75.52 75.64 75.77
73.74 73.78 75.86 76.98 77.10 77.61 77.99 78.29 77.94 77.61 77.21 77.37 77.24 77.49 77.09 76.79 76.95 76.74 76.75 76.63 76.69 76.23 75.96 75.99 75.74 75.74 75.66 75.62 75.32 75.14 74.86 73.47 74.08 74.44 74.86 74.48 75.35 74.91 74.83 75.07 74.88 75.12 75.41
74.26 75.78 76.66 76.69 77.63 77.55 77.92 78.05 77.80 77.02 77.28 77.57 77.62 77.09 76.99 76.64 76.42 76.10 76.12 75.96 75.66 75.82 75.88 76.13 75.77 75.44 75.14 74.89 75.08 74.97 74.89 73.47 74.17 73.62 75.03 74.27 74.34 74.58 75.20 75.37 75.62 75.27 74.31
74.83 75.12 76.60 77.37 78.16 77.70 77.29 77.37 77.22 77.13 77.36 77.58 77.23 77.08 76.81 76.62 76.32 76.18 76.31 76.01 76.01 75.52 75.44 75.55 75.33 75.27 75.16 74.91 74.61 74.58 74.80 74.80 73.28 74.91 75.07 75.21 75.38 74.69 75.00 74.86 75.04 74.51 74.03
74.90 75.92 76.83 78.05 77.36 77.45 77.20 77.04 77.21 77.59 77.45 77.18 77.08 76.84 76.51 76.35 76.26 76.51 75.96 76.05 76.16 76.02 75.91 75.63 75.30 75.08 74.55 74.36 74.16 74.42 75.08 75.49 74.66 74.16 75.16 74.88 74.74 73.67 74.00 74.02 74.90 74.73 74.98
74.60 75.67 77.20 77.92 78.02 77.82 77.69 77.51 77.06 77.20 77.31 77.18 76.94 76.51 76.49 76.35 76.21 76.51 75.99 76.49 76.38 75.74 75.58 75.52 75.16 74.89 74.80 74.85 74.77 74.73 74.85 75.51 74.89 73.81 74.37 74.19 74.92 74.95 75.12 75.27 75.24 74.79 75.15
74.40 74.71 76.38 77.52 77.74 77.55 77.70 77.10 76.94 76.83 76.79 76.85 76.67 76.54 76.29 76.18 76.05 75.97 76.19 76.33 76.25 75.96 75.51 75.10 74.99 74.85 75.02 74.88 75.47 75.36 74.64 75.04 75.30 73.16 73.89 74.45 74.86 74.76 75.31 74.87 75.14 75.05 74.95
74.70 74.45 75.72 76.26 77.33 77.30 77.29 77.08 77.02 76.91 76.63 76.47 76.64 76.56 75.99 75.66 75.44 75.52 75.55 75.91 75.54 75.25 75.25 75.18 75.04 74.54 74.69 75.22 75.77 75.81 75.13 74.21 75.90 73.97 72.88 74.86 74.17 73.86 74.77 73.89 75.33 75.37 75.18
74.53 74.54 75.19 76.00 76.38 76.73 76.86 76.63 76.63 76.66 76.79 76.75 76.46 76.24 75.88 75.86 75.69 76.05 76.22 75.99 75.57 75.10 74.96 75.10 75.06 74.70 74.40 75.52 75.92 75.12 75.29 74.22 75.75 75.39 72.95 75.35 74.69 74.76 74.50 74.14 74.05 74.95 74.51
73.52 74.27 74.62 74.99 75.82 76.35 76.37 76.67 76.51 76.57 76.55 76.42 76.75 76.13 76.63 77.84 78.02 77.54 75.74 76.02 75.71 75.63 75.58 75.64 75.34 75.47 74.92 76.24 75.62 74.77 74.61 74.29 75.79 76.29 74.66 74.94 74.94 75.12 74.69 74.74 73.70 75.07 74.32
72.97 73.61 74.00 74.46 75.11 75.85 74.95 76.79 76.63 76.14 76.01 76.74 77.34 77.83 78.72 78.32 78.53 77.13 76.85 75.68 75.52 75.63 75.46 75.40 75.69 75.93 76.30 75.50 76.38 75.71 76.62 74.71 76.04 75.91 75.90 74.30 74.26 74.53 75.07 75.02 74.28 74.54 74.41
73.36 73.15 73.55 74.45 75.33 75.08 74.90 75.49 75.71 75.40 76.21 76.63 77.83 77.88 78.56 78.73 78.62 79.03 78.33 77.53 77.93 76.27 76.67 76.94 77.39 77.26 75.89 75.52 74.79 74.38 76.29 75.79 75.48 75.59 74.86 74.24 73.90 74.36 74.83 74.73 74.37 74.92 74.37
73.13 73.27 74.04 74.95 75.62 75.62 75.12 75.08 75.42 74.21 75.15 75.30 76.20 77.18 77.94 77.00 77.96 79.15 78.19 77.89 78.15 78.10 77.16 77.41 77.05 76.77 77.58 76.75 76.10 73.78 75.36 75.52 74.85 75.58 74.71 74.12 74.57 74.47 74.14 74.08 74.62 74.58 74.62
72.64 73.39 74.35 75.40 75.98 76.03 76.05 75.12 75.29 74.69 74.23 74.46 75.67 76.52 77.14 77.28 78.31 78.54 78.82 78.68 78.00 77.78 77.80 76.96 77.52 77.39 77.02 76.27 76.80 75.10 72.49 75.16 75.36 75.26 75.07 74.37 74.91 75.24 74.92 74.70 74.76 74.72 75.03
72.93 73.35 74.67 75.22 76.04 76.37 76.14 77.00 76.25 75.89 74.76 74.94 74.93 75.74 76.56 76.89 78.56 78.53 77.86 78.19 78.23 78.87 77.89 77.34 76.45 76.37 76.21 75.63 74.87 75.22 73.98 74.07 76.08 74.89 73.69 75.79 74.86 74.69 74.64 74.98 74.91 74.78 74.92
72.68 73.56 73.98 74.96 76.00 76.70 76.78 77.08 76.54 75.34 74.72 74.15 74.11 75.84 76.50 77.18 78.13 79.32 78.67 77.55 78.33 78.38 77.59 77.92 77.39 77.24 74.02 73.32 72.10 74.87 74.98 74.70 75.52 74.43 74.68 74.44 74.57 74.96 74.88 74.22 74.39 74.97 75.01
73.03 73.32 74.35 74.59 75.43 76.44 76.97 76.82 75.70 74.92 74.56 73.99 74.20 75.42 76.67 77.31 78.29 78.80 77.65 78.19 78.64 78.39 77.74 76.53 76.52 75.26 73.08 71.72 72.90 74.10 73.72 74.41 73.99 75.01 75.04 73.89 74.05 74.21 74.48 74.96 74.82 74.49 74.30
73.23 73.43 74.11 75.00 74.95 75.75 76.91 76.80 76.25 76.23 74.89 74.11 74.85 75.82 77.41 78.13 78.61 78.82 77.53 78.75 79.60 78.07 77.55 77.60 76.23 76.02 73.43 72.97 71.50 73.15 72.80 72.83 72.19 71.71 73.26 74.68 74.77 73.88 74.87 75.54 75.45 74.84 73.50
73.42 73.98 74.54 74.83 75.53 76.34 76.10 76.57 75.40 74.56 74.16 74.21 75.34 76.25 78.25 78.80 79.28 79.20 78.11 78.47 78.17 76.85 76.98 77.66 75.54 76.39 74.71 73.53 69.84 70.10 72.49 72.83 73.57 72.46 72.85 74.06 74.48 75.19 74.85 76.30 74.98 74.42 74.86
73.62 73.83 74.43 74.73 77.05 76.07 75.06 74.07 73.34 72.57 73.65 74.23 76.02 77.90 78.90 79.27 79.46 79.79 78.10 77.91 77.98 76.67 75.90 76.21 75.87 74.76 74.78 74.60 68.91 68.65 70.36 71.69 71.58 72.42 72.92 72.66 72.58 73.24 73.91 74.29 75.11 74.67 74.55
73.22 74.16 75.14 75.45 76.71 76.81 75.62 75.27 74.36 73.91 73.67 74.88 76.50 77.96 79.09 78.83 79.51 79.27 79.80 77.71 78.49 77.12 76.24 76.10 75.48 75.02 74.48 72.93 68.77 69.31 65.76 67.74 69.91 72.01 74.20 72.51 72.16 72.12 71.76 72.39 73.26 74.82 75.52
72.61 73.79 74.65 76.53 76.99 77.10 77.52 75.65 74.87 74.50 74.75 74.40 75.72 76.57 78.38 78.93 79.15 79.64 79.05 78.61 78.43 77.34 75.85 76.43 76.18 75.38 72.48 73.19 71.39 69.10 65.58 65.23 66.90 70.07 72.01 72.51 72.35 71.78 71.28 71.91 72.93 74.33 75.30
72.49 74.01 75.46 76.83 77.25 77.42 77.32 76.37 76.89 72.32 71.76 73.37 75.80 76.35 76.80 78.55 78.50 78.94 79.01 78.60 79.32 77.38 77.36 76.77 76.59 75.82 74.77 70.81 70.30 70.28 72.05 72.03 65.46 65.23 69.53 71.39 72.00 71.69 72.75 71.71 71.98 72.53 71.90
73.45 74.15 75.08 76.75 77.78 78.08 77.84 77.97 75.77 75.26 72.78 74.52 75.82 78.90 79.92 79.82 78.86 78.26 78.77 78.35 78.56 78.26 78.23 78.07 76.92 76.52 74.36 72.13 68.37 69.68 70.41 69.81 70.92 67.37 66.12 67.98 70.44 71.32 71.93 71.24 71.60 71.57 71.64
73.65 74.46 75.12 76.73 78.81 78.31 77.78 76.99 78.50 77.58 76.18 74.95 76.68 75.84 76.33 76.73 77.15 78.67 78.51 78.86 79.37 78.97 78.41 78.10 77.87 76.91 75.76 74.36 70.17 70.55 68.78 67.68 67.46 67.73 66.47 68.64 68.52 70.20 71.26 71.71 71.34 71.26 71.68

GFSSE_sfc_wetblb_051.txt.gz
Wetbulb
68.88 73.59 75.18 76.37 77.48 78.21 78.18 77.58 77.13 77.34 77.54 77.57 77.21 76.97 77.17 76.82 76.97 76.96 76.91 76.46 76.41 76.30 76.24 76.52 76.36 75.56 75.15 75.18 75.04 74.73 74.90 74.95 75.50 75.91 75.96 75.92 74.57 74.51 74.94 75.23 75.64 75.11 76.29
71.40 74.43 76.35 76.71 77.62 77.97 78.78 78.32 78.22 78.14 77.62 77.23 77.16 77.33 77.14 76.98 76.71 76.69 76.71 76.50 76.33 76.42 76.12 76.03 76.31 75.64 74.98 75.43 75.09 74.49 73.85 74.79 74.45 75.29 75.64 76.17 75.31 75.30 75.49 76.17 77.43 76.07 76.00
73.19 74.75 76.11 77.38 77.64 78.11 78.58 78.48 78.20 77.77 77.10 77.33 77.43 77.24 77.01 77.15 77.03 76.90 76.71 77.03 76.52 76.31 76.31 76.09 76.14 75.81 75.76 75.45 75.48 75.43 73.98 73.77 74.26 74.61 75.40 74.51 73.91 74.79 75.53 75.31 76.26 76.11 75.55
73.65 75.37 76.56 77.33 78.05 78.18 78.01 78.10 77.97 77.32 77.20 77.33 77.36 76.98 76.85 76.58 76.34 76.09 75.87 75.84 76.00 76.36 76.42 76.03 75.79 75.57 75.37 75.43 75.37 75.23 74.09 73.30 73.76 74.02 75.04 74.11 73.13 74.96 75.39 75.71 75.16 74.90 75.33
75.21 76.01 77.40 77.39 78.38 77.63 77.37 77.73 77.84 77.83 77.75 77.33 77.15 76.83 76.61 76.36 76.45 76.53 76.36 76.17 75.98 75.73 75.65 75.65 75.82 75.51 75.09 74.98 75.04 75.18 75.04 73.07 74.02 74.85 74.92 74.21 74.27 75.17 75.44 75.11 74.68 73.85 74.76
75.02 76.39 76.89 77.97 77.49 77.60 77.06 77.20 77.18 77.42 77.56 77.13 77.05 76.70 76.61 76.70 76.33 76.20 76.42 76.62 76.31 76.04 76.01 75.70 75.45 74.92 74.75 74.78 74.61 75.01 75.23 75.29 74.93 74.78 75.11 74.14 73.03 74.35 74.43 75.21 75.02 75.11 75.42
74.74 75.74 76.95 78.13 78.13 77.76 77.48 77.78 77.78 77.59 77.15 77.10 76.83 76.73 76.70 76.67 76.45 76.67 76.84 76.79 76.18 76.06 75.87 75.79 75.56 75.53 75.56 75.20 74.78 74.88 75.40 75.62 74.77 74.14 73.76 74.48 74.41 75.29 75.09 75.38 75.22 75.07 75.42
74.30 75.02 76.05 78.06 78.18 78.35 77.35 77.23 77.20 77.32 77.18 76.80 76.64 76.50 76.39 76.31 76.15 76.37 76.57 76.62 76.31 75.91 75.66 75.44 75.30 75.36 75.16 75.42 75.65 74.87 74.45 74.81 73.41 73.57 74.41 75.48 75.66 75.01 75.20 75.46 75.34 75.47 75.23
73.56 74.27 75.69 76.52 77.45 77.97 77.32 77.11 76.89 76.77 76.85 76.81 76.53 76.37 76.09 76.07 76.04 75.90 76.06 76.08 75.96 75.87 75.75 75.37 75.04 75.02 75.25 75.70 75.84 75.26 74.15 75.69 75.37 72.89 73.16 75.05 75.43 75.25 74.59 75.41 75.43 75.55 75.26
73.16 74.21 75.01 75.70 76.35 77.05 76.93 77.19 76.94 76.94 76.69 76.50 76.54 76.29 76.12 76.15 76.37 76.39 76.51 76.31 75.67 75.41 75.47 75.23 74.74 74.93 75.47 75.98 75.75 75.04 75.37 75.32 74.17 72.72 75.06 75.13 75.80 75.01 74.82 74.12 75.39 75.06 75.05
72.55 73.52 74.30 74.83 75.75 75.99 75.86 76.75 76.81 76.82 76.89 76.73 76.62 76.51 76.86 77.04 76.93 77.39 77.40 76.38 76.13 76.22 76.05 76.00 76.08 76.11 75.72 76.31 75.75 75.67 75.68 75.19 75.16 74.16 74.71 75.57 75.87 75.23 75.61 73.63 75.17 74.68 73.78
71.53 72.62 73.46 74.08 74.81 75.47 74.63 76.12 75.83 75.80 76.09 77.29 76.75 77.81 76.10 78.12 77.71 76.22 77.75 76.92 76.49 76.51 76.17 76.85 77.23 77.04 76.43 76.25 75.98 76.16 74.52 74.48 75.45 74.83 74.38 76.24 75.33 75.26 75.24 74.92 74.74 74.89 73.89
72.89 72.58 72.96 74.22 75.30 75.08 76.04 75.02 75.02 75.20 75.64 77.06 78.09 78.13 78.20 78.13 77.33 76.01 76.20 76.15 76.70 76.87 76.04 76.81 75.48 74.80 75.68 73.77 75.21 74.22 73.56 73.85 73.58 72.80 74.54 75.38 75.19 75.12 75.52 74.80 74.64 74.74 74.55
72.73 72.98 73.38 74.64 75.78 75.87 75.29 74.86 74.72 74.31 75.29 75.63 77.28 78.34 78.08 76.70 76.78 77.66 75.42 76.89 78.15 77.04 77.72 77.19 73.64 76.98 75.33 75.54 72.85 72.60 73.60 74.02 74.29 72.78 74.27 74.12 74.78 74.62 74.68 74.92 74.26 74.90 74.55
72.85 73.01 73.65 74.84 76.16 75.91 76.39 75.08 74.77 74.40 74.22 74.76 76.48 77.37 77.04 76.52 77.27 74.92 77.49 75.30 76.02 77.84 76.79 76.80 77.14 76.30 75.82 74.98 74.00 72.97 71.90 73.88 73.17 74.08 74.00 75.01 74.96 75.18 75.01 74.68 74.92 74.64 74.92
73.17 73.10 74.07 74.64 76.10 76.47 76.61 77.65 75.76 75.37 74.86 74.77 74.95 76.52 77.37 76.95 77.94 76.71 77.08 76.51 76.48 75.76 75.67 76.84 76.64 74.65 76.21 75.56 75.35 74.63 72.70 72.87 74.35 74.68 73.29 74.54 75.30 75.47 75.21 75.11 75.06 74.81 75.11
73.44 73.91 74.12 74.92 75.83 76.28 76.54 76.81 76.55 75.57 74.91 74.12 74.26 76.65 76.87 77.41 77.80 78.42 75.71 76.64 77.26 77.82 77.63 77.93 76.82 77.60 72.15 73.93 72.85 73.90 73.26 72.07 73.97 72.26 74.81 73.67 74.78 75.64 75.33 74.84 74.92 74.97 74.81
73.67 73.98 74.71 74.65 75.23 76.25 76.89 76.99 76.16 75.03 74.54 74.17 73.98 75.44 77.09 77.76 78.70 79.21 77.99 76.34 79.22 77.64 76.87 76.05 75.61 71.58 73.41 71.83 72.42 72.02 71.66 72.42 73.38 73.59 74.04 73.03 74.14 72.68 75.37 75.83 75.12 74.92 75.02
73.72 73.91 74.12 75.00 74.56 75.96 77.62 77.24 76.80 78.32 75.02 74.26 74.21 75.18 77.95 78.00 78.34 78.64 76.76 75.50 79.59 74.96 76.55 75.22 74.88 75.45 73.29 71.67 71.23 71.04 70.70 71.66 71.09 71.70 70.29 73.52 73.31 73.50 72.18 75.71 76.01 75.19 74.07
73.68 74.22 75.28 74.93 77.58 78.99 77.28 77.90 75.83 74.64 74.79 74.50 74.12 75.39 78.55 78.30 78.90 79.24 77.88 78.37 78.69 76.45 76.43 76.72 76.22 74.65 73.60 71.61 69.26 69.11 71.11 71.46 71.71 71.63 70.80 71.71 72.16 73.45 73.45 73.41 73.89 73.76 74.90
73.28 73.89 75.30 76.25 78.64 77.15 75.10 74.32 74.12 72.75 74.08 73.56 74.22 77.70 78.03 78.69 79.39 78.57 77.66 77.59 77.37 77.23 76.41 76.28 75.23 75.09 72.60 73.01 68.69 69.01 69.89 70.52 71.25 71.16 72.25 72.05 71.60 72.28 72.46 73.46 72.07 73.58 73.70
72.85 74.93 76.52 77.31 79.08 78.04 76.02 76.66 75.08 75.33 73.53 73.87 74.54 78.50 78.58 78.89 79.47 79.63 79.74 77.52 74.16 74.36 77.30 76.16 75.76 72.91 72.09 71.67 68.91 67.98 65.95 67.54 69.44 70.79 72.45 71.14 71.92 71.15 70.93 71.81 72.90 74.01 72.72
72.89 74.75 76.01 77.74 78.59 78.58 78.41 77.42 76.93 76.37 75.82 73.50 74.27 75.58 77.58 78.70 79.08 79.76 79.39 77.86 78.54 77.87 76.05 76.87 76.27 75.87 71.00 71.39 72.03 69.13 66.01 64.49 66.79 69.26 70.06 71.34 71.35 70.32 70.61 71.92 72.79 73.36 74.04
72.60 74.20 76.86 78.55 79.14 79.02 79.77 76.95 76.77 73.16 71.79 72.61 74.11 75.31 77.11 79.21 78.76 78.78 79.34 78.51 78.34 77.58 78.79 77.52 76.29 76.28 75.36 71.12 69.30 70.10 72.32 72.38 66.65 64.61 69.16 70.56 71.69 71.23 71.59 71.01 71.81 72.40 71.96
72.52 73.12 75.67 78.70 79.21 79.69 79.56 78.46 76.08 75.45 72.80 73.60 73.93 78.33 78.88 80.81 80.17 78.14 79.64 79.37 78.73 76.91 79.59 77.90 77.81 77.07 75.47 73.03 68.66 69.14 71.13 68.89 70.81 69.05 66.25 68.29 70.00 71.16 72.16 71.58 71.47 71.70 71.98
72.37 72.86 74.28 77.70 79.22 80.30 80.40 79.25 79.17 77.07 75.80 72.65 74.90 74.70 75.80 76.38 77.32 80.01 78.83 80.36 80.72 79.39 79.33 78.63 78.88 77.85 77.21 75.43 71.84 70.48 68.79 67.71 67.40 67.21 67.23 69.56 68.69 70.02 71.19 71.93 71.65 71.22 71.75

GFSSE_sfc_wetblb_054.txt.gz
Wetbulb
70.02 73.68 74.87 77.07 77.70 77.99 77.96 77.52 77.87 78.08 78.08 77.99 77.65 77.37 77.32 77.40 77.32 77.77 77.58 77.52 76.92 76.85 77.11 76.51 75.77 75.33 75.19 75.22 74.80 74.80 74.78 75.63 75.92 76.27 76.27 74.97 74.58 75.36 75.84 75.78 75.72 74.99 76.58
71.29 74.39 75.80 77.57 78.56 78.36 77.79 77.62 77.99 78.14 77.97 77.62 77.88 77.56 77.45 77.17 77.80 77.60 77.33 77.39 77.43 76.91 76.40 76.60 75.58 75.14 75.55 75.65 74.89 73.76 74.56 74.70 75.41 75.96 76.21 75.61 75.77 75.94 76.03 76.41 76.84 75.67 76.41
72.19 74.31 75.89 78.07 78.59 78.65 78.29 78.06 78.07 78.06 77.78 77.29 77.55 77.29 76.96 77.10 77.66 77.42 77.21 76.67 76.70 76.68 76.69 76.63 76.11 75.91 75.66 75.49 75.52 73.55 73.22 74.64 74.89 74.34 74.92 73.88 73.76 76.02 75.74 76.57 76.41 76.12 76.13
72.67 73.75 75.57 77.39 77.97 77.90 78.50 78.47 78.25 77.51 77.45 77.64 78.00 77.80 77.18 77.13 77.03 76.16 76.13 76.40 76.67 76.40 76.47 76.08 75.83 75.72 75.52 75.41 74.97 74.45 73.07 74.16 74.89 74.48 73.59 73.71 73.59 75.96 75.79 75.37 75.67 75.94 76.12
73.30 75.63 76.84 77.47 77.77 78.51 78.48 78.30 78.27 77.81 77.55 77.93 77.61 77.08 76.92 77.01 76.93 76.65 76.38 76.13 76.00 75.91 76.08 76.05 75.83 75.55 75.36 75.22 75.14 74.47 74.06 73.67 75.24 74.56 73.36 73.80 72.90 75.16 75.46 74.59 74.34 75.33 76.19
74.29 75.21 76.63 77.58 77.84 78.02 78.23 78.25 78.11 77.33 78.07 77.97 77.30 76.63 76.68 76.78 76.69 76.60 76.77 76.49 76.27 76.02 75.86 75.55 75.50 75.33 75.11 75.19 75.11 74.59 74.97 74.86 74.75 74.24 73.20 72.48 72.68 75.16 75.64 75.49 75.67 75.64 75.38
73.83 75.27 76.50 77.96 78.26 78.13 78.14 78.18 77.73 77.97 77.79 77.62 77.20 76.94 76.79 76.82 76.69 77.02 76.92 76.56 76.36 76.25 76.05 75.89 75.91 75.69 75.61 75.49 75.24 75.03 75.33 75.61 75.04 74.02 72.69 73.42 73.94 76.11 75.67 75.36 75.33 75.38 75.42
73.98 75.02 75.92 77.61 78.47 78.33 78.17 77.84 78.18 77.68 77.14 77.22 76.93 76.77 76.49 76.55 76.72 76.97 77.03 76.67 76.19 75.93 75.88 75.66 75.83 75.78 75.72 75.78 75.64 75.14 75.35 75.43 73.31 73.91 73.76 73.64 75.85 76.55 75.59 75.53 75.56 75.44 75.38
73.30 74.76 75.53 75.22 77.11 78.09 78.04 77.35 77.46 77.20 77.04 76.90 76.63 76.52 76.41 76.36 76.44 76.61 76.67 76.47 76.29 76.03 75.84 75.64 75.40 75.52 75.69 75.89 75.28 75.14 74.74 75.43 75.40 73.64 74.03 74.16 76.26 75.25 75.69 75.67 75.46 75.41 75.41
72.84 73.68 75.17 75.54 77.03 76.19 75.94 77.22 76.82 76.90 76.82 76.71 76.66 76.49 76.30 76.33 76.50 76.36 77.51 77.34 76.05 75.87 75.72 75.60 75.53 75.69 75.18 76.25 75.55 75.22 75.80 77.00 73.23 73.93 73.49 74.14 76.21 75.23 75.33 75.77 75.26 75.39 75.09
72.45 73.09 73.83 74.12 76.27 75.79 76.16 76.29 77.04 76.93 76.85 76.66 76.72 76.83 76.88 76.78 76.53 76.44 77.90 77.84 76.65 76.18 75.77 75.79 75.99 75.19 75.44 76.02 76.32 76.11 75.97 74.67 74.35 73.94 73.56 75.40 75.99 75.73 73.98 75.16 75.04 74.43 75.24
70.91 72.34 73.29 73.40 74.27 75.04 73.55 75.86 76.47 75.91 75.83 76.50 76.69 75.39 76.15 77.24 77.30 76.51 76.88 78.42 77.84 77.50 76.70 76.02 76.04 75.55 75.82 74.92 74.69 75.93 74.77 73.25 72.58 73.08 73.99 76.34 76.58 76.06 74.91 74.55 75.03 74.10 73.20
70.58 71.64 72.62 73.93 74.90 74.12 74.24 75.13 75.19 75.20 76.11 76.44 77.54 74.31 76.53 75.78 76.50 76.88 76.12 76.00 76.75 77.31 76.02 74.52 73.90 73.90 75.55 75.47 75.38 75.29 74.50 72.23 73.56 72.64 75.13 76.32 76.38 75.56 75.28 74.73 74.87 74.51 73.71
70.87 71.70 72.72 75.12 75.96 76.03 75.80 74.40 74.92 74.60 75.26 76.40 77.96 80.12 79.63 77.68 75.90 73.07 74.41 75.87 74.46 75.89 74.15 73.70 73.31 74.41 74.32 73.75 74.59 73.68 74.00 72.93 73.30 71.89 74.21 76.20 76.16 76.26 75.69 74.66 74.93 74.79 74.56
71.34 71.72 73.11 75.51 76.71 79.29 77.70 75.48 74.54 76.30 75.72 74.86 77.60 78.98 77.96 74.26 74.89 76.28 75.17 73.91 76.08 73.94 73.69 73.07 76.08 74.62 72.58 73.27 75.11 73.43 72.36 70.93 73.55 72.27 72.02 75.90 76.21 75.97 75.79 75.08 74.49 74.86 74.58
72.89 72.62 73.88 75.15 76.57 78.08 78.98 80.40 77.54 79.00 76.13 77.85 77.19 77.52 79.61 77.61 76.40 73.28 77.08 74.85 75.51 75.44 74.70 75.54 77.49 76.26 76.79 75.55 75.59 74.79 72.59 73.08 72.74 72.91 72.38 73.73 76.39 76.37 76.44 75.76 75.13 74.88 74.85
73.36 73.22 73.63 74.52 75.73 77.09 78.13 78.48 79.02 78.53 75.52 76.21 77.57 78.52 78.94 79.17 79.75 78.64 76.20 75.36 76.86 77.34 77.86 77.25 77.36 74.52 71.67 74.46 73.42 74.22 70.59 73.17 72.83 72.87 72.31 72.48 74.49 76.71 76.67 76.67 76.12 76.02 75.20
72.53 73.00 74.58 73.26 74.84 76.12 76.95 78.05 77.41 76.71 76.34 76.84 76.29 76.52 78.32 79.22 80.93 80.01 75.62 75.75 76.62 76.73 74.05 76.62 73.62 74.84 74.07 72.15 72.69 72.35 71.73 72.35 73.10 73.21 72.98 72.70 72.95 72.85 75.93 76.56 76.51 76.17 75.28
73.38 73.90 74.17 74.66 74.68 75.48 77.45 77.34 77.06 77.90 78.36 77.48 76.90 77.26 78.17 78.76 79.76 78.80 74.64 73.26 73.50 75.12 76.01 76.38 72.74 76.42 72.77 72.69 70.02 71.86 70.61 69.82 71.63 70.92 70.07 72.38 72.54 72.25 72.19 75.51 75.57 75.17 75.13
73.99 74.95 74.53 75.03 76.73 76.19 76.65 77.44 76.57 76.45 76.83 76.74 77.44 77.41 78.57 79.12 79.27 78.55 76.50 74.40 76.69 76.62 74.41 75.51 75.27 75.47 74.27 72.47 67.92 69.89 70.41 71.67 69.36 71.24 71.51 70.07 70.97 71.60 71.94 71.86 73.94 73.25 75.46
73.77 74.36 74.38 75.68 77.08 76.04 75.54 74.64 74.86 73.51 75.37 76.48 76.91 78.20 79.07 80.07 80.16 79.99 78.77 77.08 77.51 77.06 77.31 77.64 76.39 75.97 70.27 72.63 71.07 69.55 70.46 70.72 70.02 70.70 70.27 70.49 72.48 71.69 71.85 72.13 72.83 72.01 72.71
72.84 73.72 74.68 75.23 76.52 76.81 75.85 75.78 75.19 75.68 74.98 74.87 76.06 77.90 79.41 79.00 80.31 79.97 78.96 77.18 78.93 74.67 76.33 77.85 76.76 72.16 73.97 72.69 69.12 69.17 66.57 68.32 69.60 69.99 71.39 70.37 70.51 70.38 70.51 71.41 72.80 74.10 72.63
72.46 73.59 74.46 75.19 77.24 76.92 76.69 76.80 77.42 77.13 77.25 74.66 74.60 75.32 77.60 79.07 79.94 79.80 79.18 78.09 78.21 78.55 76.21 77.13 76.65 75.42 69.37 71.75 72.58 70.20 64.08 62.16 67.80 70.12 69.76 69.95 69.82 70.05 69.83 71.12 72.03 73.64 73.86
72.48 73.93 74.87 75.58 76.49 76.83 77.52 75.55 75.67 72.60 71.71 72.70 74.43 75.13 76.73 78.35 78.76 79.93 79.23 78.98 79.14 78.46 76.35 76.28 77.32 77.20 75.69 71.42 70.45 70.43 72.16 72.41 67.06 64.51 68.97 70.15 70.93 69.89 70.06 70.69 71.45 71.51 70.69
72.83 73.70 74.69 75.69 76.04 77.07 75.94 76.82 74.86 74.19 73.17 74.85 74.81 75.64 77.55 78.55 78.85 78.96 79.47 79.25 79.28 78.14 77.58 75.95 77.10 77.33 77.56 73.85 70.03 70.23 70.78 70.90 71.02 69.11 65.11 67.78 69.84 70.77 70.99 71.26 70.74 70.33 71.59
72.70 73.52 74.52 75.61 75.65 76.82 77.14 76.10 77.15 74.41 74.49 72.30 74.36 74.37 76.17 76.82 77.85 78.88 79.38 79.01 78.96 78.19 78.37 78.08 77.95 77.87 77.17 76.44 74.86 72.59 69.68 67.75 68.20 67.21 66.79 68.22 67.56 70.16 70.93 70.61 71.18 70.56 70.46

GFSSE_sfc_wetblb_057.txt.gz
Wetbulb
68.96 72.79 76.28 77.14 77.33 77.67 76.94 77.14 77.89 77.76 77.76 77.69 77.62 77.24 77.28 77.30 77.43 77.86 77.82 77.04 77.56 77.23 76.36 75.71 75.19 75.19 75.14 74.72 74.86 75.08 75.84 76.02 76.21 76.34 75.14 75.90 76.30 77.35 77.37 76.75 76.43 74.94 76.49
70.29 74.06 76.53 77.71 77.48 77.88 77.60 77.70 77.84 77.63 77.39 77.34 77.61 77.68 77.32 77.32 76.67 77.34 77.49 77.03 76.68 77.21 76.32 75.39 75.63 75.95 75.89 75.30 73.95 74.91 74.83 75.40 76.08 76.04 75.39 76.33 76.50 76.39 76.63 76.42 76.40 75.35 76.56
71.20 74.12 75.97 77.67 77.80 77.18 77.77 78.02 77.53 77.20 77.34 77.61 77.06 77.28 77.16 77.15 77.16 76.84 76.99 76.99 76.91 76.87 76.65 75.94 75.82 75.68 75.63 75.63 74.09 73.89 75.10 75.19 75.33 74.95 75.80 73.13 74.22 76.45 76.61 76.49 76.51 76.42 76.03
72.69 73.94 76.02 77.88 78.00 77.56 77.76 77.97 77.92 77.28 77.08 77.65 77.79 77.31 76.74 76.26 76.37 76.59 76.97 76.89 76.70 76.52 76.33 76.08 75.88 75.77 75.54 75.08 74.97 73.64 74.67 75.38 74.30 74.62 73.15 72.85 73.63 76.04 75.78 76.20 76.19 76.09 76.12
71.97 74.64 75.85 78.13 78.50 78.08 78.05 78.08 78.25 77.56 77.15 77.25 77.06 76.74 76.86 76.89 76.73 76.29 76.05 76.13 76.48 76.59 76.27 75.99 75.83 75.69 75.58 75.24 74.88 74.96 74.31 74.50 73.26 73.50 72.47 71.20 72.12 74.70 74.70 74.72 75.70 75.93 75.91
73.76 75.12 76.85 77.71 78.35 78.21 78.04 78.16 77.51 77.36 77.33 77.36 77.09 76.91 76.77 76.82 76.65 76.87 77.01 76.24 76.19 76.13 75.97 75.86 75.66 75.47 75.55 75.08 75.08 74.58 74.88 74.92 74.92 73.65 72.54 73.60 72.14 76.04 75.99 76.09 75.68 75.78 75.57
73.37 74.97 75.78 78.33 78.65 78.25 78.24 77.47 77.60 77.43 77.18 77.20 77.32 76.89 76.86 76.76 76.98 76.71 76.69 76.47 76.49 76.33 76.05 75.80 75.72 75.69 75.53 76.22 75.72 75.19 74.58 75.11 74.17 71.23 71.24 71.55 73.60 76.24 75.72 75.74 75.54 75.66 75.40
73.55 74.76 75.09 77.55 78.19 78.49 77.81 77.26 77.93 77.40 76.86 77.37 77.65 76.87 76.92 76.89 77.45 78.08 76.64 76.50 76.33 76.25 76.11 76.11 75.91 76.30 76.43 76.02 76.78 76.21 75.33 75.62 74.44 72.44 72.72 73.23 75.87 75.99 75.66 75.84 75.86 75.69 75.48
74.09 74.01 74.39 74.91 75.65 77.73 78.02 77.58 77.67 77.05 76.86 76.91 76.89 76.58 76.39 76.40 76.63 76.91 77.05 76.86 76.33 76.30 75.93 75.74 75.97 76.92 76.66 76.09 75.77 75.96 75.67 75.25 73.27 72.54 73.33 73.28 76.64 76.03 75.82 75.79 75.62 75.61 75.33
73.16 73.36 72.85 73.80 74.24 74.50 75.38 77.54 77.35 77.05 76.86 76.72 76.51 76.26 76.15 76.19 76.22 76.50 77.64 77.89 76.09 76.06 75.84 75.65 75.86 76.81 76.91 76.50 75.69 75.61 75.14 75.66 73.16 72.79 72.96 73.85 75.70 76.33 75.85 75.87 75.54 75.37 75.23
71.89 71.82 72.65 74.13 73.53 72.70 73.70 75.35 77.03 76.94 77.10 76.95 76.49 76.71 76.69 73.95 74.03 74.93 76.21 77.79 76.69 76.63 76.17 75.88 77.03 76.63 76.65 75.99 75.94 75.21 73.48 70.65 72.31 72.35 72.64 75.20 75.62 75.26 76.03 75.42 75.12 75.67 74.99
69.38 71.21 71.72 73.46 72.94 72.73 74.52 73.70 73.76 74.76 74.45 74.30 74.35 73.50 73.87 74.03 73.76 75.61 76.72 78.09 77.31 76.41 76.66 76.49 76.35 75.91 74.86 72.98 74.19 75.14 72.04 70.19 69.90 72.48 73.07 75.65 76.47 74.53 74.82 75.24 74.74 74.02 74.82
69.58 70.92 70.84 72.46 72.65 72.36 72.65 73.05 73.22 73.30 73.33 74.34 70.12 70.95 73.73 75.00 74.44 73.87 74.27 74.52 73.74 74.87 69.10 73.46 72.68 71.93 73.96 73.20 73.05 72.90 73.78 71.37 71.90 72.83 74.67 76.50 76.81 75.90 75.03 75.15 74.94 74.00 73.12
69.12 69.85 70.37 71.00 72.13 71.15 71.77 72.37 72.98 72.59 72.75 73.80 73.08 71.98 72.60 73.37 73.87 72.51 73.35 74.48 72.33 73.28 72.26 73.38 71.56 72.87 72.68 73.48 72.44 72.96 71.86 71.65 69.71 71.91 75.03 76.88 76.50 76.33 75.38 74.90 75.06 74.87 74.18
68.29 69.25 70.07 71.27 72.04 71.83 71.56 71.54 71.48 71.84 72.49 73.74 74.93 74.21 74.06 73.03 71.66 73.14 72.67 71.99 71.18 71.95 72.43 72.19 72.43 72.85 72.03 70.92 71.35 71.25 71.36 70.95 70.33 71.31 72.36 76.37 76.49 76.90 75.59 75.08 75.19 75.02 74.95
68.51 69.29 71.29 71.14 73.03 73.17 72.71 73.03 73.36 71.81 72.13 75.10 74.19 73.74 72.93 73.26 73.32 73.14 73.60 73.16 73.41 72.81 71.21 71.13 72.83 72.11 71.99 71.28 71.20 71.06 70.34 70.96 70.41 70.86 71.17 73.33 76.39 76.32 76.31 75.59 74.94 75.04 74.84
69.17 71.29 70.85 71.67 72.68 71.76 71.77 72.47 73.14 72.37 71.43 70.46 73.97 73.69 73.18 73.63 73.54 73.99 71.48 73.75 74.11 73.86 72.42 72.96 74.35 72.71 70.82 70.51 68.87 69.86 71.63 71.15 70.74 70.14 70.41 71.89 74.71 76.69 76.82 76.59 76.24 76.13 75.37
70.04 71.10 71.72 72.64 72.35 72.24 72.05 72.32 73.58 72.60 72.05 69.75 73.44 73.38 72.85 73.43 74.86 73.21 72.07 72.13 72.68 74.63 73.14 73.26 70.89 69.85 69.02 69.89 68.42 67.24 68.44 70.25 70.34 70.12 70.77 71.58 72.48 73.61 75.89 76.91 76.45 76.35 75.21
70.32 70.47 71.27 71.83 71.83 72.37 72.34 73.41 72.55 72.79 72.94 71.77 71.29 72.44 72.88 73.89 75.73 73.60 71.77 71.74 72.27 72.84 71.17 71.57 71.11 71.06 70.38 71.14 68.64 66.34 66.83 68.84 68.95 71.90 70.42 70.87 70.71 71.70 72.73 75.72 76.15 76.04 75.32
70.68 70.66 70.19 71.42 71.81 72.38 72.83 73.37 72.09 72.07 72.83 70.87 71.44 72.77 74.17 74.38 75.22 74.41 72.91 71.90 71.93 74.11 72.21 72.37 71.04 71.23 70.10 66.56 66.74 66.47 65.70 69.10 69.06 66.89 69.17 71.09 70.35 70.68 70.93 72.02 72.86 73.25 75.85
70.97 70.56 70.51 70.64 72.12 71.99 72.73 71.67 71.69 70.26 71.01 69.70 70.69 73.83 74.95 75.08 74.97 74.63 73.36 72.35 73.15 72.52 72.36 71.94 70.54 69.78 68.35 65.06 63.78 63.01 64.30 65.68 68.00 69.08 67.69 66.88 69.19 69.57 69.90 70.05 70.61 70.59 72.38
70.59 70.13 70.58 70.75 72.52 72.16 73.29 72.12 71.41 71.22 70.86 70.55 70.95 71.24 75.07 75.33 75.93 75.15 73.97 73.07 73.49 72.23 72.89 71.85 71.03 69.24 69.02 66.24 63.13 63.72 61.60 62.61 65.95 66.73 66.98 67.69 67.71 69.35 69.53 69.99 70.46 70.19 70.03
70.20 70.35 70.09 71.67 73.34 72.73 72.94 72.86 71.60 71.88 70.64 69.76 69.85 69.42 74.19 74.48 75.79 75.29 74.70 74.05 73.18 72.70 71.63 71.46 71.24 69.35 67.19 65.50 65.80 64.26 61.41 57.73 62.32 64.92 65.64 66.06 66.65 66.20 67.73 69.78 70.42 71.54 70.12
70.01 71.60 70.65 72.27 73.17 73.32 72.93 72.43 71.42 70.06 68.45 69.34 69.11 70.41 73.04 74.61 75.59 75.76 74.97 74.28 73.38 73.50 72.49 72.13 72.93 70.95 68.75 66.80 64.03 64.70 66.62 66.49 59.50 58.82 64.18 63.92 66.25 65.79 65.55 67.75 69.53 70.90 70.94
70.47 71.11 71.44 71.61 73.71 73.44 73.34 71.96 71.42 69.66 69.20 68.61 69.71 69.43 71.13 73.78 74.63 76.78 75.40 74.47 74.15 73.22 72.69 72.46 72.64 72.15 71.54 68.05 63.39 63.38 63.61 64.45 65.99 62.43 59.86 63.01 65.14 65.44 66.33 67.01 67.85 66.62 67.37
70.79 71.43 71.96 71.50 72.28 73.27 72.68 72.50 70.98 70.03 68.66 68.40 68.27 69.06 71.21 74.40 74.92 74.99 76.20 75.34 74.90 74.30 73.14 73.15 72.85 72.05 70.52 71.77 68.72 66.44 62.35 61.24 62.07 61.37 61.77 62.62 64.13 65.04 65.81 66.99 67.04 66.26 66.53

GFSSE_sfc_wetblb_060.txt.gz
Wetbulb
69.18 72.54 76.85 77.47 76.61 76.53 76.82 76.97 76.96 77.02 77.35 77.27 77.55 77.15 76.92 76.97 76.98 77.06 77.52 76.87 76.93 76.37 75.81 75.35 75.13 75.00 74.58 75.05 75.47 76.02 76.26 76.48 75.30 75.70 76.48 76.63 76.58 76.48 76.54 76.53 76.12 74.59 76.23
70.34 73.83 76.82 77.57 76.85 76.74 77.34 76.96 76.99 77.38 77.00 77.15 76.92 76.90 76.85 76.80 76.85 77.00 77.01 77.10 76.87 76.06 75.19 75.60 76.16 76.05 75.05 74.03 75.16 75.10 76.07 76.13 76.42 75.97 76.65 76.93 76.86 76.57 76.31 76.13 76.20 75.19 75.95
71.72 74.38 75.74 77.70 77.31 76.89 77.14 77.14 77.26 77.00 77.27 76.89 77.03 77.02 77.02 77.05 76.91 77.00 76.82 76.80 76.97 75.99 75.66 75.76 75.81 75.78 75.76 73.86 74.55 75.02 75.05 75.88 76.42 75.71 76.19 73.41 74.43 76.59 76.39 76.48 76.21 75.93 75.93
73.48 74.67 75.16 77.50 77.60 76.86 77.00 77.21 77.17 77.08 76.95 77.18 76.94 76.72 76.48 76.78 76.93 76.99 76.93 76.81 76.67 76.56 76.15 75.87 75.65 75.59 75.37 74.81 74.06 74.82 74.97 74.71 75.08 75.19 72.84 72.72 73.54 76.25 76.14 76.07 75.70 75.89 75.83
74.02 75.03 75.66 77.87 77.63 76.58 76.81 77.27 77.14 77.06 77.07 76.59 76.48 76.36 76.34 76.12 75.88 76.18 76.51 76.77 76.62 76.20 75.90 75.69 75.40 75.43 75.45 75.23 74.72 74.17 74.74 74.12 74.91 73.41 71.33 71.40 71.83 74.28 75.20 75.99 75.54 75.82 75.43
74.10 75.46 77.50 77.57 76.58 77.00 77.02 77.42 77.23 77.03 76.82 76.51 76.91 77.19 76.91 76.61 76.59 76.62 76.21 76.07 76.01 75.99 75.85 75.44 74.92 74.97 75.16 75.18 74.44 74.90 74.34 74.56 74.68 71.89 72.08 73.89 72.60 75.43 75.64 75.95 75.59 75.60 75.45
73.70 75.28 76.27 77.95 77.96 77.74 76.99 77.47 76.90 77.22 76.92 76.65 76.98 76.82 77.06 77.08 76.74 76.65 76.46 76.32 76.21 75.94 75.55 75.11 74.72 74.47 74.58 75.11 75.02 74.97 75.00 74.72 71.45 70.81 71.16 72.17 73.68 75.87 75.79 75.46 75.54 75.18 75.28
74.04 74.75 75.68 77.87 78.46 78.13 77.36 77.35 77.20 76.99 76.79 76.98 76.84 76.98 77.09 77.37 76.98 76.62 76.52 76.38 76.36 76.08 75.86 75.72 75.16 74.83 74.64 74.69 75.71 74.67 74.83 76.75 72.57 72.05 72.44 73.00 75.78 75.82 75.64 75.25 75.39 75.34 75.24
74.43 73.96 74.43 74.87 75.63 77.39 77.19 77.25 77.26 76.85 76.76 76.92 76.71 76.51 76.71 76.83 76.87 76.91 76.63 76.47 76.19 75.88 75.52 75.58 75.63 75.16 74.88 74.72 74.89 75.57 75.35 75.74 71.90 72.27 73.65 73.75 76.19 76.13 75.92 75.62 75.40 75.28 74.88
73.31 73.53 73.12 72.76 73.62 74.68 75.16 77.18 76.85 76.76 76.71 76.68 76.49 76.39 76.20 76.10 76.33 76.36 76.97 77.47 76.33 76.24 76.08 75.27 75.25 75.35 75.23 74.70 75.44 74.96 76.23 75.98 71.85 72.07 72.95 73.64 76.07 75.83 75.64 75.74 75.12 75.06 75.10
72.52 72.31 72.63 72.82 73.24 73.55 74.03 75.44 76.96 76.96 76.76 76.68 76.17 76.37 76.61 73.17 73.53 74.65 75.93 76.52 76.24 76.04 75.91 75.52 75.11 75.72 75.19 75.02 75.17 75.35 73.45 71.84 72.02 72.38 72.99 74.98 76.05 75.92 75.40 75.52 75.09 74.85 74.88
70.08 70.94 72.37 72.80 71.84 72.17 74.73 73.21 73.38 74.06 74.21 73.96 73.91 73.75 73.14 72.83 73.00 74.55 75.49 76.77 76.63 76.22 76.08 76.53 75.97 75.50 75.10 72.49 72.96 74.49 70.83 68.67 71.43 71.89 73.03 75.58 75.97 75.68 75.43 74.74 75.21 75.25 75.16
69.74 71.14 72.49 72.82 71.32 71.61 72.25 72.62 72.70 73.11 73.13 73.22 72.93 71.32 72.23 73.90 73.69 74.42 73.28 74.65 73.49 73.30 67.22 70.83 70.98 71.65 71.93 72.19 72.56 72.56 72.22 68.69 71.03 71.76 73.93 76.29 75.69 74.74 75.22 74.94 73.81 73.51 74.30
69.47 70.13 71.53 72.62 71.58 70.80 71.73 72.35 72.51 72.45 72.46 72.73 71.82 70.27 72.53 72.16 72.97 73.14 72.48 73.01 72.81 72.78 70.13 71.72 71.23 71.40 72.00 72.51 72.34 72.10 71.75 70.99 70.29 71.46 74.33 76.81 76.56 75.39 75.14 75.10 74.54 73.51 73.27
68.90 69.47 70.20 71.75 71.35 70.76 70.63 70.66 71.13 71.42 71.82 72.92 73.14 71.44 73.34 71.79 70.61 71.73 71.90 71.28 71.30 71.67 71.57 71.21 71.29 71.98 71.85 72.05 70.55 71.01 70.13 69.84 70.25 72.49 73.13 76.13 76.63 76.35 75.06 75.43 74.86 74.89 73.73
68.90 69.03 69.68 70.24 71.08 70.73 70.13 68.83 69.95 70.11 70.87 72.59 73.51 73.17 73.10 70.54 71.27 71.62 71.39 71.33 71.71 71.45 71.27 71.14 71.02 71.90 70.50 70.50 71.04 70.37 70.47 69.98 69.34 71.83 72.28 74.06 76.94 76.55 75.90 74.91 75.05 74.80 75.18
68.53 69.21 69.02 69.79 71.27 70.60 70.16 70.52 71.71 71.97 71.20 73.07 73.32 73.09 71.95 71.61 72.35 71.69 71.44 71.56 72.37 72.20 71.06 70.85 71.27 71.48 70.07 69.13 69.23 69.48 70.88 69.80 69.49 69.22 70.39 71.59 74.18 76.67 76.40 75.98 75.60 75.35 74.99
67.99 67.99 69.35 71.17 71.74 70.99 71.26 70.98 72.34 71.13 69.41 70.89 72.98 72.79 72.77 72.99 73.11 72.31 72.29 72.52 72.60 72.87 72.36 71.64 70.86 68.82 68.05 68.52 67.61 67.61 68.90 69.47 69.34 69.32 69.68 71.04 72.89 73.64 75.80 76.84 76.42 76.11 75.18
68.52 68.86 69.26 70.32 71.23 69.93 70.57 70.74 71.33 71.55 71.43 69.51 71.63 71.45 72.02 73.76 73.85 71.88 71.24 71.59 71.84 71.61 70.73 70.81 69.31 69.09 69.48 69.76 68.44 65.33 66.82 69.29 69.70 70.27 70.05 70.15 71.38 72.29 72.94 75.01 76.29 76.11 75.08
69.08 70.30 69.85 70.08 70.76 70.42 70.70 70.67 70.74 70.41 70.93 70.45 69.81 71.06 71.58 73.16 73.45 72.11 71.44 70.94 70.64 72.09 70.48 71.15 68.70 70.89 69.20 65.29 66.34 64.75 64.97 67.36 67.26 68.70 69.06 70.06 69.50 70.47 71.44 71.88 73.17 73.53 75.67
69.01 70.09 69.74 69.63 69.73 70.65 69.80 70.03 69.11 68.28 69.36 69.62 69.15 71.43 72.45 73.16 74.26 72.80 71.72 71.32 70.25 71.66 70.66 70.75 69.06 68.41 66.52 63.70 61.56 61.89 62.86 64.98 66.41 66.07 67.76 68.45 68.79 69.22 69.04 70.22 71.01 70.74 71.94
68.54 69.66 69.71 70.01 69.91 70.41 70.67 70.29 70.32 69.40 69.35 69.81 68.93 71.78 72.99 73.41 74.18 73.77 72.51 71.57 70.73 71.48 71.27 70.82 69.97 67.64 67.64 64.02 62.47 61.26 58.15 60.91 63.87 65.75 65.05 66.91 67.47 68.37 68.76 69.30 69.62 69.53 69.46
68.64 68.71 68.84 70.26 70.30 70.68 71.04 70.13 69.93 70.56 68.83 68.74 68.10 67.80 72.63 73.98 74.81 74.25 73.40 72.32 72.44 71.67 70.95 70.39 69.67 68.01 65.91 64.57 63.10 63.20 58.60 56.58 60.44 63.51 64.44 65.45 66.62 67.34 67.66 68.32 69.16 69.37 68.97
69.35 69.77 69.54 70.65 70.69 70.95 71.80 70.58 70.03 70.20 69.64 68.21 67.74 68.22 70.71 73.76 74.13 74.48 73.58 73.04 72.14 72.22 70.83 70.46 71.18 68.92 66.15 63.39 63.17 63.60 65.17 64.14 58.26 57.78 62.26 62.73 65.03 66.32 66.21 67.27 69.35 70.17 69.28
70.24 69.41 70.22 71.10 70.91 71.13 71.93 71.29 70.35 68.87 68.93 67.97 68.13 67.79 68.24 72.14 73.54 74.88 74.00 73.09 72.42 72.16 72.11 71.03 71.35 70.37 69.09 66.75 62.03 61.28 62.04 63.06 64.30 58.97 57.57 61.04 64.10 63.93 64.44 66.94 68.91 69.61 69.77
70.15 69.91 69.51 70.38 71.18 71.49 71.95 71.56 70.62 69.57 67.69 67.66 66.63 67.31 67.53 70.67 72.11 74.16 74.61 73.10 72.76 72.41 72.03 71.54 71.38 71.15 70.68 69.11 66.06 64.66 61.40 60.04 60.84 60.57 59.44 60.98 61.68 62.73 64.18 65.67 66.40 67.14 67.66

GFSSE_sfc_wetblb_063.txt.gz
Wetbulb
69.00 72.08 76.76 76.39 76.67 76.76 76.70 76.76 77.34 76.75 77.01 77.20 77.26 77.01 77.03 77.01 77.01 76.97 76.68 76.62 76.46 76.08 75.52 74.99 74.90 74.76 74.85 75.58 75.82 75.84 75.76 75.66 76.36 76.56 76.40 76.44 76.47 76.68 76.59 76.21 76.04 74.66 75.92
70.51 73.35 77.34 76.66 76.60 76.64 76.66 77.09 76.83 76.99 77.13 77.11 77.12 76.88 77.13 77.04 76.99 77.12 76.94 76.51 75.96 75.26 75.26 76.04 75.91 74.27 74.54 74.95 75.31 75.61 75.93 75.64 76.16 76.31 76.53 76.77 76.83 76.43 76.27 76.08 76.00 74.95 75.95
72.02 73.82 75.97 77.16 76.83 76.80 76.57 76.95 76.76 76.66 76.88 76.91 76.91 77.05 76.89 77.07 77.07 76.73 76.86 76.53 75.43 75.37 75.99 75.99 75.83 74.74 73.91 74.71 74.68 75.55 75.83 75.75 75.65 76.41 76.39 73.57 74.15 75.70 75.82 76.23 76.18 75.72 75.79
73.20 73.99 74.86 77.03 77.17 76.61 76.86 77.00 76.94 76.75 77.17 77.21 76.94 76.87 77.30 76.85 76.81 76.63 76.70 76.69 76.47 76.00 75.99 75.80 75.58 75.04 74.30 74.52 74.57 75.12 75.54 75.67 75.64 75.81 72.44 72.59 73.64 75.82 76.13 75.89 75.80 75.64 75.64
73.53 74.29 75.03 77.30 77.08 76.56 76.96 76.91 76.76 76.95 76.51 76.22 75.96 75.77 75.91 76.24 76.80 76.76 76.60 76.41 76.27 76.05 75.91 75.72 75.64 75.42 74.70 74.35 74.22 74.29 74.44 75.12 75.00 72.97 71.34 71.18 71.76 74.85 75.83 75.71 75.67 75.60 75.44
73.78 74.71 76.72 76.96 76.43 76.42 77.05 76.97 76.79 76.47 76.31 76.80 76.85 76.67 76.65 76.11 75.92 76.17 76.19 76.30 76.16 75.95 75.64 75.59 75.34 75.26 75.02 74.43 74.51 74.74 74.85 74.47 74.31 71.69 72.00 72.98 70.34 75.44 75.65 75.57 75.48 75.60 75.24
73.75 74.33 74.74 77.26 76.76 76.61 77.09 77.04 76.77 76.48 76.33 76.88 76.60 77.09 76.71 76.94 76.91 76.22 76.14 76.03 75.92 75.51 75.37 75.24 75.21 75.15 75.15 74.70 74.37 74.53 75.41 74.95 71.28 71.37 71.84 72.45 73.15 75.83 75.67 75.32 75.23 75.35 75.13
74.00 74.74 74.52 76.60 77.12 76.89 77.32 76.80 77.09 76.59 76.68 76.71 76.71 76.53 76.83 76.68 76.63 76.55 76.50 76.34 76.07 76.10 75.93 75.59 75.41 75.49 74.85 74.90 74.85 74.85 75.38 75.06 72.33 71.72 72.47 72.73 75.37 75.82 75.14 75.39 75.21 75.20 75.05
74.35 74.23 73.79 74.45 75.85 77.02 77.15 77.02 77.01 76.56 76.76 76.65 76.56 76.62 76.80 76.87 76.66 76.42 76.35 76.07 75.99 75.88 75.63 75.68 75.59 75.61 75.40 75.29 74.88 75.53 76.25 74.65 71.23 71.95 73.30 73.09 75.88 75.89 75.50 75.34 75.25 75.07 74.86
73.23 73.30 73.05 72.91 73.37 74.22 74.72 76.86 76.72 76.52 76.71 76.49 76.33 76.25 76.26 76.41 76.56 76.40 76.62 77.13 75.91 75.77 75.55 75.57 75.59 75.40 75.75 75.15 75.37 75.24 75.95 75.26 71.46 72.31 73.04 73.54 75.89 75.56 75.36 75.42 75.25 75.05 74.87
72.28 71.87 71.59 72.10 73.01 73.45 73.90 74.90 76.59 76.64 76.60 76.39 75.68 75.88 75.51 72.66 73.26 74.40 75.12 75.76 75.57 75.45 75.46 75.66 75.43 75.32 76.07 75.32 75.74 75.09 74.02 71.56 71.56 71.98 72.40 75.20 75.81 75.42 75.60 74.83 75.15 74.90 74.83
70.68 71.17 71.32 71.91 72.30 72.87 74.85 73.31 73.19 73.94 73.73 73.59 73.62 73.57 72.64 72.27 72.34 74.11 74.96 76.20 75.87 75.65 75.87 75.83 75.39 75.60 74.21 71.94 72.43 73.28 68.80 71.32 71.38 71.66 72.11 75.90 76.28 75.08 75.19 75.12 74.32 74.63 74.99
70.46 71.56 71.55 71.62 71.62 71.81 72.36 72.14 72.35 72.66 73.00 73.04 72.76 72.07 71.94 72.95 72.52 73.59 72.92 73.54 72.85 73.57 67.36 69.92 70.30 70.78 72.23 71.92 72.09 71.76 70.06 69.30 70.92 71.63 73.31 75.68 76.14 74.91 74.59 74.44 75.00 75.00 74.38
69.55 70.40 71.91 71.54 70.65 70.59 70.84 71.76 71.82 72.09 72.20 72.13 72.32 69.73 70.90 71.28 71.50 72.37 72.00 71.80 72.39 71.85 70.19 70.55 70.51 70.78 70.48 71.42 71.60 71.55 71.77 69.21 70.38 70.92 73.39 76.18 75.48 75.02 74.69 73.75 72.96 72.94 73.60
68.76 69.73 71.59 71.62 70.01 70.23 70.03 70.99 71.06 71.44 71.89 71.72 72.36 68.22 71.77 71.45 71.04 71.40 70.83 71.61 70.95 71.11 70.93 70.12 70.48 72.01 71.01 71.26 70.29 70.43 70.66 69.97 70.24 71.52 72.33 75.73 76.06 75.81 74.79 74.61 73.78 73.18 72.91
68.67 68.76 70.97 71.23 70.52 69.67 69.28 69.13 69.92 70.44 70.69 71.30 72.51 71.43 71.78 70.99 70.72 71.23 70.94 70.39 70.34 70.72 70.82 70.59 69.59 71.28 69.96 70.18 69.80 70.24 70.10 69.60 70.23 71.69 72.43 73.19 76.35 76.21 75.17 74.91 74.43 74.32 73.79
68.61 68.80 69.21 70.51 70.24 69.06 69.03 68.33 69.27 69.98 70.74 71.13 72.69 72.69 72.42 69.98 70.81 71.45 70.69 70.18 71.26 71.17 70.96 70.02 69.85 70.35 69.57 68.34 68.68 69.49 69.49 68.88 68.84 70.38 71.27 71.37 74.19 76.00 75.13 74.82 75.29 75.01 74.84
68.54 68.18 68.25 71.00 70.29 69.41 68.99 68.58 69.20 70.80 70.61 70.20 72.76 72.56 72.24 71.44 71.97 70.96 70.82 71.21 71.99 71.32 70.30 69.84 69.59 68.39 66.99 67.28 66.02 67.19 68.61 68.36 68.43 68.52 69.72 71.02 72.28 73.24 75.22 76.22 75.91 74.68 74.70
68.19 68.03 67.73 69.04 69.63 69.58 69.22 69.46 70.02 70.80 68.64 69.44 71.71 71.94 71.84 72.55 72.94 71.41 71.35 71.45 71.58 71.28 69.69 70.41 68.72 67.85 67.77 68.15 67.68 65.63 67.59 68.25 68.17 69.51 68.41 69.64 71.08 72.45 72.35 74.47 75.83 75.98 75.04
67.98 67.76 68.16 68.74 69.69 69.59 70.02 69.31 69.73 69.86 70.37 69.45 70.41 70.46 71.57 73.15 72.91 71.03 70.69 70.79 70.68 70.86 69.45 70.25 68.94 70.07 68.07 62.35 65.86 65.15 66.00 66.83 67.78 67.82 68.25 69.44 69.75 71.05 71.27 71.80 72.48 73.29 75.32
67.55 67.22 67.86 68.03 69.25 69.29 68.77 68.52 67.91 67.71 68.61 69.00 68.94 70.88 70.85 72.69 72.79 71.46 70.94 69.99 69.16 70.54 69.75 69.89 68.67 67.36 65.42 62.75 60.82 61.15 61.88 64.15 65.59 66.66 67.70 68.00 68.28 68.89 69.29 69.63 70.65 71.34 71.23
67.62 67.81 67.89 68.08 69.13 69.83 69.99 69.93 68.63 67.86 68.30 69.06 68.67 69.72 71.19 72.15 73.32 72.55 71.20 70.47 69.31 70.40 70.19 69.90 68.86 67.13 66.71 62.38 61.04 59.33 56.98 60.33 63.48 64.98 65.10 67.26 67.48 68.11 68.24 68.66 69.13 69.60 68.96
67.24 68.56 68.17 68.25 68.62 69.95 70.06 68.61 69.34 68.96 68.13 68.05 67.56 67.44 71.29 72.30 73.33 73.21 72.27 71.13 70.27 70.65 70.10 69.64 69.34 67.16 65.17 63.67 62.31 61.05 57.23 56.03 59.27 62.61 63.85 64.62 66.08 66.55 66.99 67.50 68.22 68.61 68.36
67.88 69.13 69.15 68.86 68.75 69.52 69.49 69.06 68.47 68.02 67.27 66.87 67.08 67.34 69.90 72.48 73.01 73.83 73.11 72.16 71.65 71.70 70.69 69.65 70.41 67.83 65.09 61.90 62.05 62.87 63.71 60.86 58.75 57.61 60.94 63.03 63.69 66.22 66.10 66.63 67.60 68.11 68.35
68.82 68.52 69.27 69.13 69.15 69.47 69.93 69.40 68.84 66.73 67.44 67.59 66.92 67.14 66.88 71.41 72.62 74.07 73.28 72.21 71.54 71.31 71.07 70.28 70.00 69.05 67.63 64.41 61.40 59.87 61.20 62.36 61.42 57.38 56.89 60.09 62.64 63.61 64.92 65.89 66.98 68.24 69.04
69.38 68.89 68.84 68.60 69.22 69.59 70.05 69.84 68.82 67.98 67.02 66.71 66.76 66.46 66.18 67.77 71.75 72.85 73.81 72.45 71.84 71.29 71.00 71.03 70.70 69.88 69.44 67.19 63.89 62.20 61.12 60.07 61.59 60.15 58.01 58.94 59.93 62.18 63.67 64.47 65.53 67.70 68.69

GFSSE_sfc_wetblb_069.txt.gz
Wetbulb
72.61 74.15 75.75 76.73 77.09 77.60 76.82 76.78 76.90 77.33 77.01 76.73 77.09 76.53 76.33 76.18 76.28 76.45 76.64 76.77 76.05 75.27 74.89 74.86 75.16 76.00 76.44 76.31 76.30 76.69 76.94 76.85 76.82 77.11 76.77 76.81 76.68 76.76 76.72 76.26 76.73 75.35 76.27
73.26 74.36 76.93 77.50 76.74 77.43 76.77 76.89 77.00 76.97 77.16 77.30 76.85 76.60 76.49 76.74 76.96 76.60 76.67 76.08 75.25 75.47 74.98 74.37 74.76 75.01 75.06 75.66 75.63 75.57 76.04 76.64 76.88 76.83 76.61 76.52 76.35 76.33 76.25 75.96 76.28 75.99 75.96
73.24 75.11 75.73 77.27 77.02 77.22 76.84 77.33 77.41 77.26 77.13 77.18 77.37 77.17 76.80 76.98 76.82 76.86 76.15 75.42 76.09 75.82 75.59 74.34 74.45 74.81 75.25 75.01 75.28 75.52 76.25 76.39 76.62 76.78 76.15 76.10 76.00 76.35 76.45 76.34 76.08 76.16 75.85
73.91 75.45 75.67 76.80 77.43 76.80 77.06 76.88 76.95 76.92 77.17 77.02 76.92 76.71 76.62 76.40 76.28 76.27 75.56 75.99 76.10 76.09 75.34 74.67 74.01 74.45 74.73 75.55 75.52 75.74 75.65 76.41 76.11 75.72 76.00 74.41 74.85 76.31 76.14 76.24 75.74 75.87 75.89
74.25 75.55 76.44 77.27 77.76 77.05 76.92 76.81 77.01 77.00 76.80 76.51 76.44 76.57 76.95 76.52 76.16 76.40 76.27 76.43 76.31 76.01 75.64 75.45 75.23 74.73 74.87 75.19 75.34 75.01 75.69 75.45 75.46 75.15 76.28 76.15 75.47 76.13 76.15 75.81 75.85 75.56 75.90
74.06 75.16 76.63 76.85 77.18 77.23 76.86 76.73 76.64 76.22 75.78 75.90 75.95 76.23 76.54 76.52 76.61 76.55 76.52 76.32 75.97 75.86 75.59 75.42 74.81 74.78 74.54 74.54 74.48 74.54 75.34 75.49 74.48 74.85 75.16 74.98 75.09 76.01 75.65 75.49 75.67 75.69 75.43
73.44 74.82 75.82 77.31 77.44 76.69 77.23 76.39 76.25 76.86 76.52 76.61 76.56 76.30 76.30 76.40 76.46 76.55 76.69 76.22 75.89 75.15 75.61 75.50 74.92 74.51 74.67 74.79 74.89 74.89 75.50 75.20 74.26 74.03 73.97 75.66 75.53 75.66 75.59 75.66 75.62 75.38 75.27
73.69 74.22 75.19 76.61 77.51 77.58 76.46 76.20 76.65 76.85 76.71 76.64 76.88 76.21 76.87 76.59 76.62 76.66 76.42 76.14 75.89 75.86 75.64 75.59 75.20 75.12 74.76 74.81 74.81 75.27 75.56 74.67 73.49 74.94 75.69 75.50 75.52 75.74 75.36 75.43 75.28 75.19 73.81
74.58 74.44 75.08 75.22 76.75 77.32 76.86 76.40 76.52 76.86 76.84 76.71 77.08 76.83 76.67 76.23 76.45 76.33 76.77 76.53 76.20 75.84 75.64 75.37 75.17 75.14 74.72 75.06 75.48 75.93 75.62 74.57 74.35 74.97 74.70 75.80 75.51 75.02 75.28 75.23 75.44 74.75 74.45
74.52 74.94 74.95 75.41 75.94 77.39 76.89 76.45 76.63 76.97 76.89 76.39 76.68 76.36 76.44 76.73 76.71 76.34 75.68 76.32 76.17 75.78 75.87 75.53 75.23 75.11 75.39 75.67 76.02 75.92 75.45 74.21 74.31 74.45 75.02 75.17 75.61 75.03 75.58 75.15 75.10 74.81 74.77
73.73 73.98 74.19 74.71 75.79 76.70 76.93 76.35 76.62 76.63 76.38 76.50 76.41 76.83 76.39 76.85 76.84 76.09 75.91 75.86 76.08 75.90 75.59 75.78 75.45 75.03 75.65 75.70 75.92 75.73 74.90 74.77 74.44 74.02 75.16 75.14 75.74 74.61 75.22 74.95 74.97 74.80 74.49
71.47 72.45 73.18 74.61 75.03 75.95 75.50 76.77 76.75 76.50 76.26 76.60 76.78 77.03 76.06 76.49 76.74 75.79 75.77 75.48 75.78 75.89 76.01 75.95 75.56 75.39 75.14 75.40 75.13 74.92 75.69 75.26 75.15 74.39 74.26 74.80 75.80 74.95 74.93 74.90 74.47 74.93 74.77
70.88 71.69 72.88 75.12 75.67 75.59 75.21 75.90 75.83 76.00 76.03 76.47 77.10 76.98 76.64 76.85 77.38 76.63 76.63 76.84 77.04 73.67 75.28 75.29 74.92 76.12 74.39 76.06 76.09 75.26 75.24 75.17 75.17 74.38 74.57 74.24 74.70 74.97 74.70 74.08 74.37 74.66 74.72
70.71 71.61 73.93 75.31 75.60 75.90 75.69 75.36 75.13 74.97 75.48 75.53 76.14 76.48 76.75 76.58 77.23 77.29 77.83 75.97 77.00 76.99 75.59 76.25 75.55 75.97 75.89 76.32 76.53 75.58 74.39 75.40 75.35 74.39 74.47 74.65 74.51 74.48 73.99 74.25 74.75 74.41 73.90
70.11 71.76 73.71 74.93 75.12 75.84 75.95 75.53 74.69 74.64 74.91 75.44 75.93 75.86 76.29 76.75 77.03 77.51 77.41 75.79 76.52 76.75 76.10 76.33 76.18 75.57 76.22 76.24 76.28 76.50 74.76 75.00 74.95 74.21 74.14 73.96 73.75 74.19 74.23 73.04 72.42 72.42 72.73
71.34 72.00 73.65 74.07 74.66 75.57 75.22 75.51 74.61 74.72 75.25 75.54 76.26 75.91 75.51 77.37 77.17 77.13 77.52 75.73 75.46 76.15 75.85 76.40 77.08 76.26 76.41 76.47 75.90 75.26 75.57 75.29 75.09 74.32 74.20 75.79 74.13 74.25 74.46 73.92 72.99 72.55 72.52
71.60 72.42 72.97 73.49 74.15 75.00 74.88 74.37 74.37 74.29 74.32 74.73 75.59 76.67 76.59 77.01 77.06 77.23 77.60 78.16 76.03 76.28 76.50 76.17 76.64 76.51 75.51 74.72 74.87 75.23 75.27 75.25 75.04 74.28 74.55 75.46 75.45 74.94 74.52 74.27 73.86 74.11 74.16
71.65 72.02 72.99 72.46 72.96 74.23 74.04 73.58 73.34 73.83 74.27 75.11 75.90 76.73 76.76 77.15 77.21 76.67 76.93 76.86 76.56 76.92 75.94 76.07 76.46 75.36 74.80 74.20 74.04 74.69 74.70 74.79 74.57 74.63 75.10 75.40 75.16 75.53 75.42 74.72 74.58 74.38 73.77
71.83 72.05 72.25 72.43 71.95 73.04 73.52 73.35 73.71 74.31 73.96 74.96 75.44 75.67 76.35 77.18 76.64 77.03 77.06 77.09 77.55 76.84 76.46 76.28 75.48 75.51 74.60 75.32 74.28 74.15 74.79 74.29 73.84 73.70 74.13 74.54 74.91 74.90 75.89 74.68 74.30 75.16 74.56
71.82 72.09 72.35 72.38 72.88 73.77 73.07 73.66 73.33 73.44 73.91 74.93 75.28 75.85 76.75 77.03 77.29 77.06 77.09 77.11 78.03 78.09 75.70 75.82 75.92 75.13 73.57 71.71 71.26 71.98 74.15 75.16 75.24 74.78 74.74 73.91 74.32 74.15 74.43 75.13 75.49 75.55 75.70
71.78 71.54 71.65 71.74 73.06 73.30 72.05 71.49 72.14 72.31 73.90 75.36 74.89 76.26 76.65 77.03 77.57 77.28 76.30 76.45 76.63 76.39 75.92 76.36 74.65 73.98 71.51 71.73 70.85 70.49 71.34 73.01 73.35 74.39 74.84 74.62 74.17 74.37 74.24 74.29 74.48 74.81 74.76
71.32 71.49 71.50 71.57 72.36 73.20 72.55 73.21 73.62 73.80 74.14 75.70 75.73 76.14 77.05 77.22 77.85 77.42 76.76 75.92 76.06 76.44 76.23 76.18 75.62 74.05 73.40 71.94 70.22 69.91 67.44 69.34 72.01 72.67 73.94 73.65 73.78 74.81 74.43 74.13 74.12 74.61 74.95
70.71 71.18 71.68 72.18 72.62 73.27 74.04 73.63 73.70 74.09 74.40 73.85 74.62 74.79 76.14 76.94 77.37 77.89 77.56 77.24 75.99 76.06 77.46 77.30 76.53 74.73 72.13 71.28 71.48 70.04 65.84 65.30 69.29 71.93 72.25 72.87 73.45 73.58 74.29 74.40 74.50 74.44 74.80
70.81 71.85 72.53 72.92 73.05 73.17 74.38 73.65 74.26 72.49 71.54 72.79 74.39 74.95 75.45 76.58 76.70 77.15 77.68 77.25 76.96 75.79 77.50 76.86 76.53 75.37 74.98 72.16 70.82 71.85 71.98 70.36 67.23 67.09 71.05 72.76 72.82 72.33 73.41 73.83 73.93 74.70 74.81
71.26 71.40 71.91 72.61 73.56 74.20 74.39 74.79 73.43 73.99 73.37 73.75 73.90 75.28 75.86 76.42 76.56 76.35 77.43 77.65 77.44 77.33 77.38 76.74 76.71 76.43 74.97 73.98 71.19 70.14 72.01 72.57 71.23 68.93 65.94 69.23 72.24 72.45 72.74 73.39 73.64 73.90 74.52
71.39 71.17 71.36 72.52 73.26 74.16 74.17 74.19 74.75 74.77 73.93 72.66 73.07 72.84 73.64 74.50 75.59 76.73 76.94 77.73 77.83 78.44 77.26 77.29 77.76 76.95 76.11 74.95 73.30 71.38 70.69 69.59 69.95 70.36 68.54 69.10 68.67 71.05 72.01 72.71 73.22 73.89 74.11

GFSSE_sfc_wetblb_072.txt.gz
Wetbulb
73.59 75.06 75.71 76.74 77.11 77.19 76.89 76.80 76.71 76.94 77.31 77.90 77.77 76.94 76.51 76.33 76.35 76.32 76.57 76.42 75.56 75.22 75.17 75.30 76.31 76.64 76.96 76.81 76.84 76.80 77.19 77.24 77.02 76.94 77.11 76.99 76.74 76.50 76.50 76.03 77.47 75.96 76.39
74.87 75.23 76.40 77.34 77.06 77.12 77.00 77.10 77.31 77.11 76.66 76.95 76.79 76.72 76.61 76.60 76.63 77.14 76.81 75.68 75.41 75.17 74.84 74.92 75.28 75.61 76.02 75.88 76.02 76.43 76.90 77.07 77.36 77.01 77.03 76.64 76.87 76.26 76.30 76.77 77.59 76.29 75.99
74.45 75.72 76.71 77.72 77.41 77.11 77.29 77.34 77.30 77.38 77.46 77.04 76.67 76.64 76.88 77.07 76.83 76.64 75.85 75.77 76.29 75.81 74.61 74.73 75.22 75.56 75.19 75.31 75.72 76.74 76.68 76.82 77.09 76.69 75.74 76.31 76.40 75.98 76.65 76.43 76.59 76.15 75.60
75.44 76.25 76.20 77.55 77.75 77.27 77.47 77.46 77.59 77.48 77.55 77.06 77.17 76.75 77.08 76.82 76.72 75.97 75.64 76.40 76.23 75.53 74.92 74.42 74.92 75.14 76.08 75.47 75.99 76.08 76.58 76.52 76.13 75.91 76.27 74.74 75.52 76.34 76.31 76.39 75.92 76.08 76.06
74.61 76.03 76.66 77.64 77.67 77.22 77.15 77.21 77.28 77.20 77.20 76.96 76.76 76.55 76.43 76.24 76.36 76.03 76.33 75.66 76.21 75.94 75.80 75.25 74.75 75.17 75.58 75.66 75.62 75.82 75.84 75.90 74.85 76.08 75.72 75.77 75.52 76.33 76.06 76.12 75.72 75.51 76.22
75.29 75.65 76.70 77.42 77.36 77.11 77.46 77.28 77.05 77.22 76.95 76.87 76.58 76.78 76.65 76.49 76.46 76.69 76.88 76.30 76.22 75.86 75.67 75.19 75.22 74.97 74.73 74.48 74.39 75.30 75.50 74.58 75.51 75.73 75.26 75.40 76.29 75.85 75.69 76.12 75.86 76.02 75.38
74.32 75.61 76.47 77.99 77.57 77.39 77.27 76.50 76.31 76.24 76.40 76.29 76.58 76.60 76.68 76.53 76.83 76.74 76.74 76.33 75.50 75.75 75.50 75.00 74.91 75.08 75.03 75.08 74.97 75.11 75.35 73.65 74.17 74.48 75.32 75.15 76.35 76.38 75.78 76.00 75.58 75.38 74.03
74.04 74.67 75.95 77.15 77.87 77.50 76.46 76.91 76.89 77.20 77.10 76.95 76.99 76.88 76.73 76.79 76.93 76.54 76.64 76.19 75.42 75.47 75.53 75.36 74.97 74.89 75.03 75.09 75.54 76.12 75.37 73.23 75.03 74.95 74.94 75.59 75.54 76.08 75.80 75.58 75.44 74.00 74.08
73.85 74.51 75.65 76.80 77.24 76.88 76.54 76.85 76.69 77.01 77.18 76.93 76.68 77.04 76.70 76.78 76.69 76.87 76.61 76.33 76.11 75.89 75.75 75.50 74.97 74.46 75.08 75.02 76.03 75.72 74.89 73.52 74.52 74.84 74.70 75.18 75.08 75.58 75.42 75.42 75.19 74.41 74.71
73.50 74.49 74.92 76.62 77.40 76.80 76.48 76.95 77.05 76.90 76.93 77.27 77.09 76.77 77.06 77.10 76.85 76.67 76.76 76.50 76.20 75.89 75.69 75.61 75.28 75.11 75.56 76.03 76.09 75.77 74.53 74.59 73.93 74.38 75.25 75.45 76.19 75.67 75.35 75.23 75.21 74.95 74.97
72.85 73.97 74.55 75.22 77.11 76.73 76.24 77.38 76.80 77.27 77.07 77.13 76.82 76.50 77.49 76.94 77.06 77.08 76.33 76.22 76.22 75.85 75.89 75.39 75.13 75.22 75.92 76.14 76.07 75.54 75.55 74.40 73.71 73.91 74.90 75.48 75.06 75.42 75.17 75.29 75.04 74.69 74.80
71.90 72.85 73.55 74.60 76.26 76.03 75.32 76.86 77.09 76.61 76.79 77.20 77.68 77.82 77.09 77.57 77.29 76.59 76.55 75.91 75.99 76.11 75.94 75.58 75.49 75.21 75.89 75.31 75.52 75.80 75.72 75.20 73.64 73.86 75.02 75.55 75.14 74.94 75.36 74.94 74.25 74.98 74.66
72.45 72.44 72.96 74.89 76.10 75.63 76.40 75.97 76.12 76.33 76.52 77.11 77.79 77.66 77.19 76.97 76.96 76.76 76.33 75.93 76.27 76.08 76.27 76.03 76.08 76.26 75.78 75.56 76.40 75.40 75.20 75.58 74.68 73.82 75.39 75.13 75.13 74.84 74.33 74.95 74.45 74.83 74.67
71.97 72.08 73.36 75.33 75.91 76.10 75.99 75.48 75.61 75.46 75.93 75.70 76.97 78.18 77.50 76.60 77.42 76.93 76.78 76.16 77.54 78.25 76.19 77.81 76.44 76.89 76.74 76.83 76.11 75.16 75.10 74.73 74.23 74.00 75.29 75.40 74.26 74.75 74.96 75.05 74.94 74.06 74.15
70.91 71.82 73.62 75.31 76.15 76.35 76.40 75.48 75.32 75.56 75.71 76.19 76.91 77.60 78.06 77.86 76.95 77.54 77.59 77.43 78.40 77.65 76.56 76.67 76.55 76.83 76.90 76.38 76.35 76.04 75.16 75.14 74.09 73.91 74.61 74.77 74.49 74.99 73.56 72.99 72.60 72.77 73.01
71.67 71.97 73.92 74.86 76.00 76.35 76.10 76.72 75.85 76.50 77.00 76.75 77.01 77.42 78.23 78.98 78.57 76.87 76.49 77.42 76.99 77.41 76.85 76.74 76.72 76.74 76.79 76.74 75.50 75.85 75.93 75.65 75.22 75.17 74.65 74.94 74.14 74.58 74.43 73.42 73.51 72.96 72.69
72.22 72.67 73.68 74.40 75.18 76.21 76.20 76.36 75.82 76.39 76.51 76.57 77.24 78.49 78.06 78.58 78.85 77.40 76.68 77.13 76.98 77.47 77.85 76.70 76.40 77.24 74.81 75.40 75.49 75.36 75.45 76.15 75.37 74.84 75.43 75.22 75.05 74.59 74.34 74.33 73.65 73.85 73.80
72.26 72.65 73.84 73.61 73.78 75.59 75.80 75.63 75.41 76.01 76.02 76.48 77.00 77.62 78.23 78.67 78.55 77.72 76.87 77.03 78.76 78.04 76.86 75.78 75.11 74.62 73.40 74.02 74.47 74.09 74.24 75.02 75.41 75.38 75.55 76.35 76.06 75.43 75.35 74.80 74.54 74.62 74.47
72.67 73.35 73.28 73.74 73.00 74.82 75.79 75.26 75.62 76.50 76.01 76.67 77.18 77.63 78.38 78.93 79.22 78.52 77.18 76.27 77.43 76.94 75.35 74.50 74.57 75.33 73.30 73.32 72.88 73.75 74.55 74.00 74.26 74.05 74.63 75.78 75.29 75.47 76.09 76.15 75.38 75.31 75.06
73.04 73.69 73.58 73.33 73.68 75.08 74.65 74.90 74.78 75.29 75.81 76.56 76.75 77.17 78.31 78.76 78.93 79.19 77.80 77.27 76.90 75.45 74.96 75.42 75.53 75.67 74.67 73.73 71.28 72.37 74.13 74.57 74.41 73.99 74.36 74.50 75.00 75.47 74.80 76.13 76.19 76.21 75.55
72.63 73.02 73.17 73.05 74.05 73.77 73.03 72.40 73.31 73.67 75.02 75.99 77.09 77.84 78.87 78.80 78.90 78.80 77.35 76.80 77.10 76.10 76.22 76.67 76.15 75.06 72.67 74.78 70.99 71.43 71.91 73.59 73.44 73.64 73.76 75.02 74.49 74.92 76.11 76.48 75.26 75.68 75.84
72.06 72.88 73.10 73.40 74.06 74.40 72.87 73.52 74.14 74.67 75.44 76.15 76.98 78.08 78.79 78.70 79.22 78.39 78.86 78.03 77.76 75.78 76.20 76.00 76.45 73.78 72.86 73.66 70.60 70.62 67.23 68.54 71.12 72.67 74.42 74.74 75.00 75.69 75.33 75.41 75.82 75.49 75.45
71.62 72.62 73.17 73.97 74.27 74.61 75.28 73.91 75.28 76.09 76.17 75.62 76.12 76.39 77.54 78.48 78.75 78.80 78.03 78.26 78.15 78.79 75.25 76.29 76.29 75.65 71.83 73.48 73.79 70.64 65.82 66.34 68.77 71.66 73.43 73.38 75.10 74.18 75.06 74.91 75.03 75.39 76.03
72.26 73.20 73.89 74.16 74.39 74.35 75.64 75.90 76.81 73.88 72.87 73.54 75.19 75.71 76.38 78.21 78.24 78.51 78.42 77.53 77.94 78.17 76.57 76.13 76.25 76.70 76.04 70.95 71.93 72.80 72.89 72.41 68.01 67.98 71.34 72.85 74.04 73.61 74.28 74.32 74.65 75.43 76.11
73.26 73.00 73.84 74.40 75.12 75.87 76.10 76.66 74.99 75.41 73.34 74.19 74.47 77.06 78.09 78.42 78.39 77.87 78.64 78.72 78.72 77.16 77.17 76.96 76.07 76.56 76.20 74.45 72.01 70.79 73.73 72.83 73.62 69.48 68.55 70.05 72.44 73.85 74.13 74.31 74.40 74.56 75.53
73.58 73.17 73.37 74.34 75.70 75.46 75.42 74.66 76.39 77.00 76.19 74.35 75.00 74.25 74.82 75.56 76.56 78.13 78.10 78.79 78.55 77.46 77.47 77.40 78.43 77.04 77.10 76.31 75.04 73.63 71.00 70.67 71.05 71.20 70.15 70.79 71.02 73.25 74.36 73.84 74.19 74.46 74.97

GFSSE_sfc_wetblb_075.txt.gz
Wetbulb
74.71 75.55 76.44 76.72 76.21 76.60 76.68 76.82 77.35 78.00 78.23 77.56 77.53 77.04 76.59 76.16 76.11 76.21 76.63 76.01 75.41 75.33 75.55 76.45 76.87 76.80 76.87 76.87 76.95 77.17 77.52 77.01 77.03 77.23 77.21 76.96 76.66 76.67 76.03 75.94 77.87 75.53 76.22
74.64 75.56 76.90 77.04 76.92 76.92 76.98 76.75 76.92 77.37 77.44 77.16 76.85 76.42 76.23 76.36 76.47 76.37 76.06 75.41 75.55 74.95 75.33 75.50 75.91 76.38 76.10 76.19 76.49 77.07 77.09 77.29 77.05 76.75 76.80 76.85 76.41 76.62 76.59 77.09 77.50 75.78 75.42
73.97 75.12 75.74 77.86 77.21 76.59 77.05 77.36 77.23 76.73 76.75 76.83 76.67 76.70 76.67 76.70 76.90 76.29 75.74 76.75 75.97 74.83 74.86 75.44 75.58 75.47 75.78 75.83 76.77 76.67 77.05 76.77 76.67 76.24 75.18 75.60 75.73 76.40 76.87 76.61 76.28 75.91 75.90
74.30 75.56 75.90 77.71 77.74 77.33 77.76 77.31 77.49 77.49 77.31 77.11 76.89 76.91 76.80 76.97 76.32 75.47 76.43 76.59 75.83 75.14 74.61 74.92 75.58 75.83 75.56 76.24 76.22 76.45 76.43 76.03 75.65 75.89 75.58 75.36 75.18 76.29 76.53 76.07 76.15 76.01 75.90
74.31 76.18 76.99 77.65 77.80 77.53 77.10 77.91 77.75 77.62 77.35 76.84 76.61 76.49 76.40 76.82 75.72 76.38 75.94 76.49 76.16 76.22 75.08 74.86 75.06 75.83 75.80 76.10 76.26 75.83 75.34 74.91 75.03 77.06 75.48 75.10 75.14 76.06 76.12 75.61 75.31 75.78 76.35
74.60 75.56 77.56 77.60 77.40 77.19 77.26 77.27 77.28 77.09 76.82 76.69 76.66 76.49 76.55 76.47 76.33 76.35 76.38 76.33 75.97 76.00 75.72 75.44 75.31 74.82 74.78 74.81 75.47 75.52 74.06 74.81 75.92 75.31 75.67 75.34 75.20 76.02 76.04 75.93 76.18 75.06 74.54
74.44 75.35 76.63 77.85 77.89 77.66 77.27 77.16 76.80 76.65 76.87 76.74 76.84 76.68 76.91 76.77 76.49 76.64 76.22 75.72 75.78 75.86 75.50 75.44 75.19 75.52 75.42 75.17 75.22 75.08 74.12 74.81 73.96 74.88 74.77 74.85 75.89 76.09 76.30 76.04 75.63 74.09 73.97
73.70 74.42 76.32 76.81 77.74 77.07 76.65 76.58 76.41 76.88 76.63 77.04 76.97 76.58 76.62 76.57 76.33 76.50 75.94 75.52 75.50 75.75 75.52 75.30 75.16 75.19 75.44 75.64 76.01 75.15 74.56 74.68 74.83 74.84 74.88 74.83 76.12 76.04 76.01 75.79 74.20 74.44 74.62
73.30 74.61 75.86 76.65 77.64 76.55 77.03 76.79 76.99 77.19 77.26 77.01 76.98 76.90 76.74 76.69 76.91 76.78 76.50 76.08 75.75 75.58 75.52 75.21 74.90 74.88 75.24 75.80 75.81 74.94 74.25 74.81 73.84 74.51 73.70 74.62 75.84 75.92 75.80 75.54 74.39 75.35 75.38
73.52 74.48 75.67 76.20 76.02 76.13 77.23 76.87 77.18 77.22 77.11 77.17 76.98 76.93 76.84 76.72 76.64 76.70 77.29 76.42 75.74 75.74 75.32 75.18 74.90 75.08 75.66 76.02 75.54 74.53 74.52 75.33 73.37 74.85 74.30 75.04 76.55 75.77 75.67 75.41 75.44 74.97 75.22
72.72 74.12 75.13 75.50 75.40 76.00 76.76 77.37 77.18 77.32 77.42 77.45 77.06 77.16 77.25 76.31 76.92 77.03 76.86 76.39 75.99 75.71 75.37 75.23 75.27 75.69 76.06 76.19 76.02 75.80 75.72 73.08 73.60 72.51 73.84 75.80 76.32 75.43 75.47 75.30 75.12 75.04 75.08
71.62 73.02 74.07 75.55 75.58 75.01 75.99 77.53 77.63 77.06 76.96 77.58 77.24 77.92 76.61 78.27 76.89 76.34 76.62 76.32 75.95 75.91 75.74 75.48 75.42 75.14 74.81 74.62 75.37 75.71 75.30 73.14 72.57 73.64 74.12 76.17 75.50 75.54 75.23 74.98 75.12 74.91 74.80
72.04 72.73 73.30 75.20 75.09 75.61 75.63 76.55 75.26 76.62 76.38 77.26 77.63 77.96 76.87 76.16 76.73 75.51 75.80 75.95 76.21 76.38 75.57 75.56 75.26 74.86 74.63 74.27 74.32 73.87 74.08 73.89 72.45 74.13 75.57 76.33 75.33 74.47 74.82 74.79 74.98 74.95 74.75
71.83 72.60 73.46 75.27 75.78 76.75 75.35 75.31 75.45 75.12 76.01 75.66 76.72 78.95 77.07 76.61 77.69 75.47 75.08 76.53 77.39 76.07 76.61 77.18 74.81 76.08 75.56 74.00 72.23 73.98 74.41 73.86 73.01 74.09 75.27 74.90 75.18 75.16 75.11 75.14 74.61 74.29 74.62
71.67 72.46 73.65 75.06 76.18 76.83 76.90 75.73 75.31 75.22 74.95 76.23 76.42 77.31 77.11 76.58 76.71 77.32 78.50 76.22 76.03 76.67 76.19 75.89 75.68 75.65 75.65 74.76 75.11 74.42 73.57 73.25 73.10 73.99 74.39 74.84 75.30 74.19 73.70 73.23 72.90 73.04 73.74
71.96 72.34 74.08 74.73 76.09 76.49 76.88 77.15 76.08 75.45 77.27 75.55 76.35 76.95 78.23 78.20 77.65 77.96 77.05 76.06 76.24 75.10 75.36 76.33 76.43 72.88 74.18 74.40 74.37 73.04 72.17 73.66 73.96 75.39 73.65 74.60 75.14 74.95 74.39 73.76 73.51 72.68 72.32
71.51 72.40 73.97 74.62 75.45 76.32 76.85 76.40 76.16 76.91 75.32 76.25 76.61 78.21 78.41 78.20 78.24 78.10 77.96 76.17 76.29 77.10 77.84 77.11 76.67 76.37 75.84 72.32 71.86 74.06 73.96 74.79 73.72 73.94 74.54 74.09 74.88 75.34 75.36 74.58 73.42 74.11 73.92
71.60 72.29 74.26 74.02 74.83 75.80 76.57 76.29 76.06 75.95 76.16 75.86 76.25 77.81 78.43 77.80 78.18 78.18 77.09 76.71 77.28 76.64 74.37 75.99 75.14 69.99 74.29 70.74 72.41 70.74 75.41 74.84 74.09 74.52 73.70 75.17 75.00 75.36 74.92 75.14 74.93 74.57 74.22
71.98 72.80 73.65 74.05 73.83 75.36 76.65 76.32 76.82 77.89 77.10 75.65 77.18 75.89 78.55 78.91 77.67 77.97 77.31 76.86 78.31 76.19 77.60 74.88 72.54 71.70 73.81 72.14 72.59 73.31 74.02 73.01 73.04 73.28 74.22 74.58 74.31 75.18 75.38 75.73 76.00 75.50 75.30
72.15 73.28 73.85 73.82 76.04 77.29 75.99 76.42 76.01 75.93 76.14 77.17 76.31 77.28 78.51 78.50 78.30 78.31 77.19 77.56 77.48 76.82 74.72 75.30 77.64 73.36 69.58 71.75 70.16 72.48 72.24 74.08 72.31 72.38 73.09 73.98 73.89 73.94 74.12 74.89 75.71 74.62 75.91
72.13 72.96 73.46 75.00 77.75 75.59 74.24 73.37 74.18 73.48 75.48 75.52 75.94 77.99 78.64 78.45 78.37 78.02 77.27 77.64 77.18 75.88 73.36 76.54 75.34 74.42 71.76 72.85 70.55 71.72 70.97 71.64 72.45 72.04 72.68 73.39 73.31 73.66 74.07 74.24 74.43 76.05 75.03
71.83 72.93 74.64 75.80 77.30 75.94 74.43 75.43 75.52 75.89 74.66 75.44 76.13 77.97 78.38 78.15 78.85 78.12 78.39 76.94 76.87 76.04 76.62 76.08 74.94 73.09 73.22 72.94 70.25 71.86 66.74 68.25 70.63 71.69 72.79 72.83 73.40 74.00 73.93 74.63 74.86 74.66 74.92
71.65 72.85 74.46 76.42 77.07 76.55 76.59 75.72 75.95 76.59 76.68 74.70 76.52 76.23 77.57 77.99 78.41 78.53 78.40 74.86 77.43 77.07 75.48 76.88 76.33 76.62 70.61 71.46 74.71 71.56 67.84 65.98 70.19 70.95 72.37 72.70 73.92 73.25 74.08 74.49 74.70 75.63 76.12
71.84 73.03 75.42 75.78 77.11 76.76 77.74 74.98 76.83 73.81 72.61 73.84 75.56 75.52 77.05 77.88 77.88 78.28 78.03 78.27 78.63 76.06 77.80 77.00 76.98 77.50 76.65 71.49 70.45 72.01 73.21 73.34 68.57 69.75 71.24 72.48 73.65 73.20 74.19 73.89 74.49 75.60 76.25
72.67 72.45 73.63 76.32 77.08 76.98 77.11 77.18 75.22 75.65 73.99 74.17 74.08 78.87 81.04 80.16 78.15 77.24 78.58 78.21 78.23 77.01 78.05 77.58 77.26 77.65 75.33 74.24 70.33 70.31 73.40 71.83 73.97 70.06 69.60 70.17 72.33 72.93 73.67 74.60 74.07 74.41 76.01
73.60 72.89 73.22 76.01 76.78 77.30 77.34 76.51 77.85 76.58 76.72 73.12 74.74 74.96 75.04 76.14 76.84 78.13 77.90 78.47 79.31 78.65 77.92 77.64 78.01 77.68 78.34 77.26 74.79 72.90 70.87 70.13 70.94 70.39 69.80 70.91 70.63 72.15 73.24 73.46 74.05 74.34 74.79

GFSSE_sfc_wetblb_078.txt.gz
Wetbulb
73.49 74.78 75.95 76.22 75.98 76.67 76.85 77.32 77.97 78.30 77.57 76.66 77.07 76.72 76.36 76.33 76.52 76.78 76.06 76.01 76.07 76.04 76.72 77.05 76.65 76.61 77.06 77.12 77.44 77.54 77.63 77.83 77.62 77.38 77.08 77.24 76.50 76.56 76.95 76.88 77.12 74.69 76.31
73.82 74.68 76.97 77.17 76.85 76.43 76.85 77.41 78.25 78.02 77.49 77.73 77.12 76.69 76.20 76.61 76.78 76.20 76.11 75.99 75.34 75.80 75.89 76.13 76.71 76.32 76.55 77.06 77.44 77.33 77.28 77.45 77.55 76.88 76.75 77.03 76.58 76.78 76.85 76.78 75.78 75.07 76.11
73.84 74.73 75.25 76.84 77.04 77.01 77.36 77.21 77.75 77.01 77.52 76.96 76.64 76.45 76.78 76.86 76.48 76.26 76.55 76.35 75.03 75.48 75.84 75.89 76.03 75.83 76.17 76.69 76.87 77.32 77.16 76.70 76.16 76.64 77.42 74.19 75.34 76.79 76.59 76.46 76.64 75.99 75.85
73.88 74.35 74.99 77.45 77.90 77.47 77.46 78.06 77.78 76.95 76.76 76.61 77.15 77.34 77.05 76.67 75.75 76.56 76.57 75.89 75.25 75.06 75.31 76.29 76.17 76.08 76.14 76.47 76.32 76.31 76.63 76.47 76.30 77.07 74.71 73.76 73.98 76.35 76.40 76.37 75.49 75.04 75.75
74.12 75.30 76.05 78.29 78.24 77.62 77.48 77.98 77.77 77.54 77.31 77.02 76.95 76.89 77.06 75.83 76.57 76.30 76.40 76.44 76.32 75.23 75.23 75.72 76.36 76.08 76.05 76.18 75.49 75.35 75.38 74.81 74.95 77.02 74.20 74.15 73.84 75.36 75.74 75.84 75.59 76.20 75.31
74.41 75.44 76.94 78.50 78.10 78.00 77.46 77.61 77.59 76.96 76.97 77.12 76.74 76.76 76.71 76.30 76.93 76.63 76.55 76.22 76.17 75.94 75.89 75.72 75.39 75.45 75.03 75.33 75.06 74.40 73.94 75.11 75.83 74.65 73.55 74.59 74.63 76.21 76.19 76.04 74.78 75.53 75.60
73.56 74.93 76.22 78.26 78.19 78.01 77.94 77.65 77.38 77.19 77.14 77.40 77.27 77.07 76.87 76.91 76.72 76.53 76.31 76.14 76.06 75.84 75.81 75.48 75.50 75.61 75.45 75.14 74.20 74.28 75.06 76.52 74.89 74.33 73.69 74.27 74.66 76.58 76.20 74.91 74.15 74.12 74.77
73.04 73.68 75.31 77.70 77.87 77.41 76.65 76.38 76.65 77.03 76.94 77.46 77.43 77.17 77.45 76.99 76.85 76.39 75.78 75.75 75.97 75.72 75.81 75.59 75.84 75.70 75.34 75.17 74.76 74.34 74.95 76.52 74.96 73.96 73.90 74.24 75.91 76.21 75.87 74.18 74.74 74.47 73.57
72.88 74.46 75.58 76.03 76.67 77.31 77.19 77.36 77.39 76.99 77.16 77.47 76.92 76.84 76.92 76.71 77.02 76.74 76.61 76.20 75.83 75.83 75.69 75.42 75.53 75.70 75.48 75.39 74.98 74.95 74.69 75.77 73.79 73.50 73.72 74.10 76.62 76.09 75.73 74.44 75.69 75.48 75.17
73.31 74.42 75.60 76.56 75.50 76.25 76.11 77.10 77.05 77.07 77.27 77.14 76.92 77.15 77.01 77.16 77.11 76.81 77.55 77.11 76.31 75.71 75.54 75.38 75.44 76.23 76.32 75.77 75.42 75.00 75.05 76.19 73.02 73.64 73.59 74.88 76.23 76.12 75.69 75.42 75.21 75.66 75.66
72.21 73.63 73.56 74.36 75.13 76.41 76.57 76.48 77.11 77.25 77.42 77.36 76.93 77.20 77.31 75.75 76.30 76.07 77.36 76.73 76.03 75.88 75.69 75.36 75.56 75.50 75.31 75.75 75.95 75.70 75.83 72.42 72.26 72.82 73.36 75.91 76.16 76.00 75.53 75.44 75.51 75.35 75.18
71.50 73.10 73.67 73.36 73.89 75.75 75.23 76.65 77.06 76.45 76.17 76.84 76.89 76.27 74.23 74.90 78.27 75.31 76.55 77.09 76.36 76.17 75.91 75.84 74.30 72.92 74.19 73.59 73.89 75.56 74.47 72.31 72.60 72.50 74.11 76.09 76.48 75.53 75.39 75.24 75.08 75.19 74.64
71.59 72.61 73.31 74.30 75.44 74.71 75.67 76.62 76.85 75.57 77.14 77.42 77.92 76.98 76.99 76.36 74.59 74.89 76.17 75.15 75.53 76.23 74.42 74.72 73.25 72.65 73.47 74.01 73.09 75.02 73.11 72.30 72.98 72.57 75.17 76.18 75.87 74.99 74.99 74.98 75.04 74.88 74.75
71.66 72.55 72.37 75.00 74.60 76.78 76.20 76.64 74.32 75.38 76.62 75.43 77.23 80.06 74.40 77.14 72.54 72.83 74.23 76.79 75.66 74.58 74.08 73.46 72.94 73.74 74.72 73.37 74.47 71.96 72.43 71.40 73.26 73.37 75.25 76.24 76.13 75.36 75.11 75.27 74.64 74.72 74.72
71.68 72.20 73.74 75.49 72.84 72.53 79.00 75.16 74.31 75.27 75.25 76.44 76.70 74.50 73.24 74.76 75.43 75.51 76.34 73.06 73.68 74.10 72.97 72.16 73.84 73.36 73.04 73.81 74.22 71.74 73.33 72.99 73.27 73.21 73.32 76.49 75.97 75.71 75.19 74.48 73.81 74.19 74.13
71.79 72.41 74.29 74.67 77.15 78.35 77.51 79.24 76.53 77.29 74.91 76.44 76.48 76.09 75.51 75.76 77.16 77.97 76.26 74.08 73.09 74.55 74.00 73.09 72.15 73.57 73.97 74.77 72.89 73.35 73.04 73.14 74.16 72.67 72.99 74.62 76.23 75.43 74.75 73.40 72.96 72.68 72.29
72.12 73.21 73.79 74.35 75.94 77.60 77.12 79.27 79.55 72.33 76.16 76.25 77.79 77.34 75.11 74.98 78.39 76.47 76.54 76.80 74.10 74.27 77.14 76.20 73.34 73.37 73.26 70.83 74.38 74.80 74.81 73.05 73.26 73.03 72.68 73.10 74.82 76.35 76.09 75.44 74.86 74.27 74.08
72.02 73.10 73.94 73.26 74.72 76.31 78.57 78.50 78.17 73.85 78.65 75.54 75.80 76.84 73.97 76.06 79.66 77.96 77.62 77.56 77.83 73.98 75.84 75.45 72.93 71.95 73.35 69.95 71.69 69.91 74.39 73.40 73.73 74.31 74.60 72.93 72.99 73.14 76.01 76.43 75.71 75.68 74.93
72.58 73.08 73.63 74.60 74.15 75.37 77.73 77.08 77.75 76.42 77.24 78.74 74.67 73.86 79.32 79.34 79.53 79.47 75.68 78.31 79.83 76.63 76.91 76.05 70.71 70.09 74.09 72.38 71.45 73.87 73.03 72.34 71.58 72.64 73.38 74.13 74.69 73.82 73.18 75.82 76.12 76.00 75.38
72.50 73.43 74.52 74.79 75.54 76.50 76.24 78.15 77.14 77.60 75.06 74.55 75.40 76.08 78.68 79.01 79.24 79.52 77.89 78.94 78.93 76.09 75.64 73.40 73.38 74.37 70.68 71.39 69.80 71.01 70.56 73.74 72.61 72.39 72.86 72.78 73.45 73.63 74.78 72.98 74.40 74.80 76.27
71.67 72.99 74.79 75.07 75.64 75.28 74.78 74.16 75.08 74.64 76.85 75.06 75.63 78.68 79.58 79.01 79.10 79.21 78.33 79.02 78.96 71.82 73.85 77.05 77.29 76.09 73.81 70.25 69.79 72.06 72.26 70.95 71.14 72.05 72.89 71.35 72.49 72.64 74.09 74.92 74.99 74.27 73.78
71.17 72.83 73.88 74.87 75.54 74.89 75.46 75.42 76.54 76.60 76.41 78.26 78.53 78.90 78.63 79.54 79.61 77.97 75.79 78.38 78.94 76.43 78.01 76.00 73.42 72.80 74.39 73.36 71.16 71.04 67.39 69.55 70.53 70.90 72.24 72.67 72.57 72.93 72.94 73.89 74.07 74.06 74.28
71.32 72.83 73.08 75.34 75.55 75.42 76.75 75.72 77.20 77.21 77.03 76.84 76.61 77.13 78.66 79.22 79.47 76.38 78.41 78.91 79.18 78.51 76.26 78.02 77.28 74.73 73.39 72.68 73.82 71.69 65.27 65.86 69.01 71.62 71.73 72.17 72.88 72.46 73.52 74.00 74.50 75.28 74.76
71.82 73.67 73.96 75.30 75.88 75.09 77.13 75.03 76.18 74.04 74.09 75.52 71.58 76.64 77.66 79.32 79.00 79.36 79.25 78.91 79.92 77.75 76.01 76.55 77.22 72.42 73.56 72.38 71.76 72.51 74.04 72.58 67.41 67.48 71.97 72.56 72.46 72.89 72.58 73.26 73.77 74.99 75.96
72.60 73.05 74.11 74.47 75.91 74.72 74.97 76.59 75.17 75.01 74.41 77.03 76.21 76.44 77.54 80.11 80.09 77.75 78.96 79.75 79.89 78.50 77.95 77.69 78.03 76.42 73.37 74.46 71.10 71.73 73.46 72.98 71.53 69.03 66.70 70.22 72.03 72.62 73.74 73.95 73.64 74.45 75.39
72.97 72.86 74.03 73.82 74.69 74.90 74.68 75.27 75.78 74.34 76.61 75.54 76.55 75.08 76.17 76.69 78.44 79.82 78.77 79.57 79.68 77.09 78.64 78.53 79.03 78.32 78.46 77.65 76.70 73.57 71.75 70.85 69.82 69.14 68.07 69.95 70.34 72.00 72.64 73.83 74.43 73.28 74.78

GFSSE_sfc_wetblb_081.txt.gz
Wetbulb
70.86 71.60 75.61 75.75 76.38 76.81 77.25 77.67 77.99 77.31 77.14 76.97 77.04 76.46 76.30 77.02 76.48 76.72 76.81 76.02 76.21 76.93 76.89 76.79 77.17 77.18 77.15 77.67 77.36 77.47 77.52 77.86 77.84 77.53 76.91 76.42 76.22 76.64 77.27 77.17 76.07 74.54 76.38
72.37 73.48 76.43 76.94 76.71 76.94 77.15 78.06 77.90 77.38 77.38 76.98 76.57 76.39 76.81 77.14 75.96 76.65 76.39 75.54 75.92 76.31 76.68 76.77 76.74 76.83 77.36 77.32 77.55 77.27 76.83 77.21 76.77 77.62 77.07 77.12 76.61 76.68 76.92 76.51 75.74 75.34 75.94
72.66 74.63 75.31 77.35 76.79 76.85 77.46 78.05 77.60 77.43 77.33 76.60 76.47 76.77 77.13 76.40 76.87 76.66 75.79 75.10 76.07 75.79 75.66 76.48 75.76 76.51 76.81 77.07 77.66 77.09 76.71 77.19 76.94 77.63 77.11 74.51 74.63 76.40 76.58 76.12 76.11 75.82 75.39
72.98 73.32 74.52 77.21 77.52 77.11 77.45 77.68 77.49 77.46 77.15 76.89 77.03 77.31 76.83 76.11 76.66 76.72 75.93 75.10 75.35 75.87 76.31 75.82 76.45 76.44 76.76 76.55 76.63 76.59 76.40 76.11 76.09 76.71 73.40 72.94 73.88 76.40 75.91 75.26 76.00 75.53 74.92
72.29 73.62 74.82 77.70 78.22 77.58 77.71 77.95 77.79 77.30 76.89 76.99 76.76 77.01 76.06 76.68 76.59 76.64 76.50 75.82 75.10 75.60 76.26 76.12 76.09 76.25 76.00 75.75 75.77 75.79 75.70 75.98 76.82 75.48 72.58 72.22 72.69 75.50 76.51 76.59 75.57 74.68 75.37
73.54 74.72 77.16 78.23 77.50 77.72 77.76 77.66 77.62 77.32 77.00 76.87 76.79 77.05 76.23 76.80 76.51 76.73 76.24 76.40 76.07 75.88 75.96 75.68 75.35 74.99 75.24 75.19 75.40 75.41 75.35 75.19 75.79 73.47 74.21 74.72 73.02 76.47 75.74 75.55 75.69 75.30 75.51
72.69 74.62 76.44 78.14 78.36 77.74 77.54 77.46 77.14 76.92 76.98 77.19 77.12 76.81 77.00 76.81 76.54 76.57 76.38 76.07 76.16 75.77 75.66 75.88 75.49 75.30 75.02 74.84 74.99 75.02 76.65 77.10 73.46 73.34 73.15 73.12 74.22 76.24 74.57 74.13 74.97 75.44 75.30
72.44 74.83 75.19 78.00 78.30 78.07 77.54 77.16 77.16 77.09 77.15 76.89 77.64 77.04 76.90 77.13 76.81 76.04 76.05 76.30 76.07 75.96 75.82 75.91 75.49 75.27 74.93 75.21 74.71 75.43 76.37 77.16 74.08 72.97 73.05 73.22 75.75 75.62 74.55 74.46 73.88 73.28 73.34
72.98 73.43 74.86 75.43 76.11 76.44 76.84 76.58 76.81 77.27 77.16 77.10 77.25 77.15 76.65 76.78 76.75 76.29 75.99 75.91 76.04 75.99 75.79 75.38 75.21 75.29 75.07 74.80 75.18 76.02 76.39 76.21 72.92 72.89 73.54 73.86 76.52 75.11 74.87 75.41 75.64 75.56 75.32
72.90 73.14 73.79 73.35 74.03 74.46 75.04 77.53 77.21 77.10 77.31 76.92 76.65 76.90 76.97 77.01 76.82 76.65 77.30 76.86 75.88 75.87 75.54 75.49 75.32 76.09 75.31 75.53 75.77 76.31 76.46 76.37 72.45 73.07 73.67 74.42 76.04 75.83 74.97 75.91 75.81 75.52 75.15
72.45 72.79 73.42 72.57 73.27 73.47 74.29 75.89 77.10 77.32 77.24 77.09 76.83 77.13 77.17 73.36 74.16 74.77 76.54 77.15 76.10 75.87 75.46 75.74 75.99 75.74 75.04 74.38 75.62 75.96 75.71 72.66 72.05 72.38 73.26 75.17 76.04 75.88 75.70 75.36 75.10 74.93 75.23
70.11 71.38 72.85 71.84 72.85 73.68 75.16 74.26 74.07 75.25 74.74 74.87 74.66 72.57 68.13 71.97 73.61 74.55 75.91 77.18 76.24 75.96 75.82 76.04 74.65 74.53 68.62 69.95 72.00 73.31 73.19 70.63 71.35 72.50 73.60 76.07 76.28 75.63 75.42 75.15 75.18 75.14 73.93
70.11 70.65 71.51 71.64 73.38 72.13 73.11 73.96 74.17 73.79 73.83 74.31 73.47 71.96 71.49 73.54 71.29 72.99 72.59 73.32 72.97 75.47 72.73 73.30 71.88 70.81 70.53 70.17 71.77 71.82 72.96 70.32 71.23 71.91 74.79 76.39 76.03 75.28 75.24 75.11 74.88 75.13 74.90
70.00 70.26 70.96 71.85 72.21 71.69 73.36 74.03 73.94 73.28 74.13 73.64 73.78 73.48 73.56 72.06 67.25 70.27 71.35 72.82 73.17 72.47 70.56 67.75 70.01 71.59 72.17 73.13 71.97 72.56 71.72 71.25 71.59 72.52 74.50 75.77 75.83 75.52 75.25 74.88 74.60 74.60 74.09
69.51 70.99 71.61 72.47 71.55 71.96 73.02 73.78 73.28 72.91 74.21 72.15 73.07 71.28 72.20 71.97 70.16 71.49 71.75 71.92 71.34 71.78 71.72 70.71 71.11 72.14 72.94 71.99 72.28 71.14 69.84 71.49 71.59 72.48 72.35 76.11 76.23 75.96 75.42 74.30 73.89 74.42 73.91
70.43 71.04 71.19 70.98 70.65 70.82 74.20 73.91 72.95 72.92 73.64 73.53 72.30 72.53 73.17 71.75 72.53 72.85 73.02 71.51 71.33 68.74 71.12 71.65 70.26 71.37 71.13 71.86 70.60 70.55 70.90 71.04 71.29 71.43 72.51 73.40 76.23 76.02 75.59 73.74 73.47 73.60 73.46
70.93 71.86 71.58 72.33 72.99 72.31 72.88 73.44 72.32 73.57 75.66 74.15 74.02 73.08 72.91 71.38 73.45 72.88 71.64 70.86 71.39 70.66 71.27 71.84 70.15 70.85 68.66 70.68 70.26 70.72 70.54 71.04 70.70 70.78 71.91 72.54 74.06 75.65 75.15 74.59 74.53 74.18 73.28
70.65 70.12 71.38 73.55 72.64 71.50 72.65 72.49 71.82 72.79 73.77 74.06 74.49 72.87 71.47 69.87 73.84 74.47 74.16 72.35 73.50 72.91 72.21 71.33 70.19 69.39 69.67 68.37 68.55 68.51 70.54 69.14 69.95 70.35 71.29 72.37 72.87 73.44 75.59 76.00 75.99 75.65 75.01
70.31 69.92 69.48 71.06 71.79 71.35 72.81 71.96 72.96 73.48 72.71 73.46 74.11 73.38 72.11 74.26 75.57 75.67 74.58 73.40 74.44 72.05 72.65 71.64 68.41 68.87 68.89 68.79 68.78 69.26 70.44 70.25 69.79 72.37 70.87 70.81 71.50 71.72 72.95 75.87 75.85 76.03 75.24
70.67 70.29 70.03 71.57 71.54 71.53 71.93 71.39 72.88 71.27 72.89 73.22 72.75 72.28 75.14 74.97 74.88 74.62 74.17 73.74 73.24 71.83 72.03 71.31 69.00 69.70 67.68 69.44 69.97 68.94 68.62 69.12 68.14 69.05 71.09 72.00 71.24 71.56 71.26 71.59 73.98 74.19 76.33
70.42 69.95 70.02 70.41 71.29 72.98 71.17 70.89 70.68 70.48 71.62 70.73 73.27 73.53 75.29 75.63 74.56 74.12 74.19 73.37 73.15 69.20 69.99 72.38 72.09 70.70 70.21 68.25 65.22 67.03 66.90 68.12 69.67 68.14 68.76 68.70 70.17 71.99 72.15 70.42 71.36 72.23 73.45
68.91 70.38 69.93 71.39 71.53 72.41 71.07 71.19 71.10 70.61 72.16 72.05 73.92 75.49 75.02 75.33 74.71 74.34 71.94 73.48 72.41 71.28 71.74 69.94 70.19 68.96 69.51 68.11 66.48 67.19 63.53 64.09 65.04 67.95 68.33 68.66 67.97 70.49 72.25 72.31 72.46 71.91 71.29
68.32 69.67 70.90 71.71 71.47 72.21 71.09 71.16 71.58 72.21 71.27 72.30 71.90 73.75 73.63 75.75 75.40 73.83 74.02 73.49 73.35 73.36 71.13 72.11 71.12 69.84 67.51 68.86 67.81 66.88 62.56 62.46 63.74 66.73 65.82 67.52 67.96 67.81 69.43 70.10 71.06 71.75 72.01
68.84 70.08 71.57 72.09 71.70 71.39 72.06 69.77 69.50 69.88 68.98 71.05 72.76 72.68 74.15 74.46 74.74 74.99 73.82 74.14 74.09 73.27 71.25 71.52 73.27 70.17 68.75 67.33 66.68 67.12 67.92 66.78 63.51 62.04 67.15 67.87 67.79 68.10 68.30 69.92 70.67 71.48 71.32
69.82 69.62 71.63 72.53 71.83 71.35 72.13 70.10 70.03 69.54 70.28 71.10 69.94 71.84 73.09 74.01 75.21 75.39 74.64 74.34 74.19 73.20 72.82 72.78 72.61 71.49 70.45 69.29 67.52 65.27 66.67 66.83 66.01 64.42 61.63 65.41 68.05 68.23 69.06 68.11 70.04 70.86 72.19
70.20 70.15 70.26 72.24 70.90 70.67 70.97 72.04 70.11 69.33 70.06 71.65 70.60 71.93 72.87 73.84 74.67 73.85 74.42 74.87 75.08 73.93 73.06 73.02 72.88 72.38 72.78 72.42 71.65 68.61 65.05 64.70 64.38 65.36 64.27 64.56 65.32 67.30 69.34 69.72 69.36 70.24 72.43

GFSSE_sfc_wetblb_084.txt.gz
Wetbulb
69.66 70.70 75.29 76.17 76.58 76.62 76.72 77.26 76.90 77.13 77.10 76.86 76.64 76.45 76.85 76.10 75.79 75.74 75.94 76.88 76.94 76.90 76.82 77.11 77.17 77.37 77.58 77.55 77.43 77.49 77.08 77.43 76.85 76.77 76.44 75.97 75.98 76.24 76.36 76.13 75.80 74.39 75.82
70.12 72.26 76.25 77.08 76.72 76.97 77.25 77.51 77.08 77.14 76.94 76.26 76.15 76.86 76.62 76.08 76.07 75.54 75.66 75.44 76.76 76.78 76.62 76.90 76.96 77.21 77.36 77.55 77.16 77.06 76.88 77.35 77.74 77.03 76.81 76.59 76.33 76.04 75.81 75.44 76.09 74.58 75.49
70.69 74.34 76.02 77.53 77.02 77.18 77.96 77.72 77.33 77.33 76.61 76.37 76.88 77.05 76.34 76.63 76.43 74.98 75.45 75.95 75.40 75.97 76.25 75.98 76.39 76.59 76.87 77.25 76.35 76.32 76.17 76.10 76.80 76.85 76.62 73.74 74.25 76.17 75.26 76.11 74.90 74.56 74.61
73.07 73.84 75.16 77.35 77.59 77.35 77.55 77.54 77.37 77.17 76.68 76.56 77.02 76.85 76.34 76.37 76.46 75.49 75.07 75.10 75.99 75.71 76.06 75.82 76.39 76.57 76.86 76.45 76.10 75.98 75.67 75.60 76.60 76.36 72.80 72.66 73.22 75.55 76.01 75.18 75.78 75.45 75.97
72.63 73.64 74.42 77.57 77.98 76.71 76.97 77.39 77.46 77.09 76.58 76.97 76.88 76.08 76.47 76.34 76.53 75.63 74.94 75.43 76.18 75.92 76.05 76.25 76.22 75.91 76.02 75.95 75.54 75.42 75.97 76.15 76.60 73.99 71.66 71.80 72.73 75.34 76.00 75.03 74.21 75.41 75.34
72.60 73.87 76.44 77.19 77.14 77.63 77.54 77.19 77.23 77.13 77.17 77.06 76.94 75.95 76.61 76.46 76.78 76.35 76.12 75.41 75.68 75.99 75.77 75.40 75.92 75.65 75.26 75.10 75.01 75.48 76.30 77.03 75.81 73.73 73.30 74.32 72.92 75.46 76.09 74.63 75.27 74.77 74.42
72.92 74.77 76.33 78.25 78.25 77.95 77.62 77.54 77.38 77.14 76.91 76.99 76.74 76.56 77.00 76.56 76.43 76.45 76.15 75.96 75.52 75.41 75.52 75.30 75.30 75.27 74.88 75.52 75.51 77.44 77.08 76.46 73.29 72.81 72.59 73.09 73.25 75.00 74.52 75.48 75.53 75.49 74.17
73.68 74.96 75.66 77.94 78.18 77.95 77.40 77.35 77.19 77.03 77.16 77.18 77.17 77.11 76.90 76.57 76.23 76.59 76.15 76.27 75.99 75.77 75.68 75.38 75.40 75.23 74.89 75.40 75.89 77.17 77.10 76.06 73.52 72.37 72.75 73.29 74.94 74.50 73.89 74.28 73.17 72.57 72.87
74.79 74.01 74.64 75.04 76.58 77.50 77.11 77.35 77.31 77.19 77.19 77.32 77.16 76.89 76.82 76.50 76.18 75.99 76.16 75.99 75.82 75.68 75.49 75.19 74.96 75.23 75.45 75.48 76.04 77.41 76.34 75.49 72.20 72.64 73.71 73.51 75.36 75.00 74.65 73.64 74.25 74.74 74.12
73.07 74.12 73.88 73.34 73.11 73.43 74.09 77.19 77.38 77.21 77.34 77.35 77.24 76.81 77.07 76.89 76.65 76.26 76.82 76.64 75.74 75.32 75.29 75.35 75.02 75.45 75.56 76.46 76.27 76.16 76.86 75.55 72.01 72.91 73.48 73.66 75.26 75.57 75.82 75.53 75.19 74.86 74.72
72.18 72.80 72.42 72.35 72.87 73.48 74.32 75.43 77.08 77.43 77.27 77.03 76.57 76.61 75.74 73.47 73.59 74.34 75.93 76.21 75.68 75.24 75.18 75.46 75.60 75.53 75.59 75.79 76.14 76.43 75.38 72.15 72.10 72.54 72.76 74.97 75.95 75.21 75.45 75.35 75.07 74.80 74.35
70.66 71.75 71.62 71.98 72.16 73.20 75.30 74.21 73.93 75.11 74.75 74.27 74.06 72.45 69.87 71.69 73.11 74.33 75.40 76.13 75.71 75.38 75.24 74.38 74.27 73.86 70.16 70.74 71.60 73.67 71.37 70.94 71.62 72.62 73.16 76.04 76.10 75.29 75.74 75.17 75.41 74.52 73.14
70.77 71.59 71.37 71.54 72.53 72.40 73.58 73.25 73.29 73.64 73.79 73.72 73.01 67.56 70.68 71.67 70.87 72.92 73.28 73.36 72.92 74.52 72.23 71.19 71.08 69.99 70.64 70.04 71.23 71.07 70.38 70.53 71.30 71.81 74.46 76.42 76.17 75.14 75.07 75.06 74.63 73.96 74.45
70.07 71.27 70.76 71.30 72.23 70.62 72.42 73.22 73.06 73.10 72.84 72.83 72.63 71.43 72.21 70.31 68.19 69.94 72.12 72.55 72.02 71.26 69.07 68.38 69.31 70.98 70.65 71.42 71.49 70.92 70.43 70.36 70.29 72.07 74.28 76.06 75.87 75.25 74.88 74.97 74.92 74.09 73.90
68.81 70.07 70.10 71.25 71.29 71.42 72.40 72.65 72.24 71.86 73.01 72.62 72.00 72.51 71.53 71.06 70.39 70.70 71.22 71.14 71.57 70.90 70.35 70.13 69.91 70.47 71.24 71.52 71.02 70.30 70.00 70.53 71.39 72.40 71.89 74.97 76.13 75.93 74.79 74.50 74.76 74.71 73.70
68.81 69.19 70.22 71.03 71.32 71.88 72.32 72.52 72.00 71.80 72.56 72.20 70.74 70.66 72.53 71.10 70.72 67.79 70.59 70.77 70.09 69.19 69.52 70.92 69.42 69.92 70.93 70.96 70.91 69.29 70.08 70.21 70.98 71.91 72.05 73.13 75.70 75.98 75.32 73.92 73.86 74.17 73.96
69.18 70.36 70.45 70.56 70.33 70.99 71.84 72.98 71.47 71.71 72.43 71.78 71.61 71.24 72.04 72.39 70.91 71.11 69.98 70.32 69.75 68.04 69.27 70.21 69.52 69.83 69.12 69.27 68.70 69.09 69.89 70.06 70.39 70.95 72.11 71.97 73.96 75.64 75.13 73.95 74.02 73.64 72.94
69.95 69.65 70.44 71.82 71.08 70.98 71.07 71.76 70.28 72.61 73.27 72.84 72.77 72.59 71.52 71.58 72.44 71.24 70.61 69.93 70.63 69.69 69.61 69.89 68.90 68.93 67.75 67.20 67.11 68.29 68.69 69.11 69.24 69.75 71.50 71.87 72.15 72.43 74.19 75.10 75.07 74.60 74.17
70.16 70.01 70.52 71.31 70.26 71.19 70.58 71.71 71.62 72.36 73.02 73.40 72.36 71.61 68.91 72.97 74.69 73.01 72.87 70.61 71.73 70.12 70.10 70.11 68.94 67.70 67.32 66.89 67.33 68.30 69.24 67.70 68.33 70.24 69.97 70.97 71.37 72.06 72.16 74.74 75.94 75.87 75.47
70.13 70.33 69.67 70.96 69.63 71.59 70.14 70.44 71.77 70.62 72.12 72.74 72.00 72.25 73.31 74.36 74.21 74.12 72.15 72.00 72.57 70.78 70.73 69.79 67.63 68.33 68.18 67.33 68.68 67.97 68.02 68.14 68.11 69.19 69.38 70.69 70.50 71.02 71.23 72.03 73.60 73.80 75.89
69.68 68.89 69.61 69.46 68.63 70.62 69.26 68.66 70.02 68.71 70.40 70.57 71.45 72.85 74.19 73.79 74.06 73.46 72.83 72.75 71.22 69.55 70.33 70.06 69.46 67.82 68.41 66.86 64.10 65.31 66.00 66.37 66.77 67.34 69.26 69.38 70.12 70.55 70.36 70.11 71.13 72.14 72.56
68.55 68.56 69.42 69.73 68.91 70.43 69.89 69.50 69.80 69.92 71.04 70.46 72.30 72.52 74.34 74.54 73.47 72.69 72.56 70.65 69.88 68.40 70.09 69.10 68.83 67.93 68.33 66.93 65.59 64.40 61.06 61.99 63.36 66.39 66.70 67.75 69.08 70.21 70.99 71.00 69.79 70.57 70.89
68.29 68.28 69.32 69.74 69.92 70.35 69.84 70.07 70.22 70.73 70.49 70.13 70.86 72.91 73.49 74.37 73.77 71.69 73.00 72.41 72.34 71.40 70.01 70.07 69.83 68.53 65.96 67.84 66.64 65.06 60.41 59.37 61.61 64.84 64.97 66.10 66.39 67.36 70.62 71.18 70.95 71.15 71.03
68.73 69.33 70.04 70.29 70.42 70.70 69.50 69.33 68.70 68.89 67.35 70.33 70.47 71.96 72.43 74.44 73.40 73.21 72.80 72.91 72.36 72.16 70.45 70.86 71.08 68.49 67.60 66.36 67.03 65.39 66.35 64.87 60.66 60.59 64.55 65.92 66.64 66.17 67.61 68.31 69.84 70.48 71.12
69.11 69.42 70.64 70.38 70.53 70.97 69.96 69.10 68.70 67.95 68.25 70.43 71.13 71.33 72.05 72.73 73.10 73.56 72.50 73.06 72.63 71.44 70.97 71.50 71.82 70.52 69.37 68.09 67.17 63.73 64.55 65.38 64.31 62.34 60.40 63.91 66.52 67.41 66.79 67.49 68.53 68.96 70.01
68.50 69.92 70.68 69.87 70.03 70.97 70.35 68.13 68.30 67.87 68.29 69.18 68.81 70.00 71.01 71.90 72.98 73.26 73.47 72.94 72.85 72.29 71.74 71.44 71.59 70.94 71.78 71.16 70.30 66.80 63.95 64.18 62.99 63.40 62.21 62.73 63.89 65.82 67.33 68.12 67.32 68.32 69.81

GFSSE_sfc_wetblb_087.txt.gz
Wetbulb
68.60 69.81 75.16 76.26 76.36 76.81 77.21 76.82 76.79 76.76 76.39 76.14 76.19 76.30 75.89 75.63 75.67 76.48 76.99 76.74 76.80 76.68 77.07 77.35 77.39 77.15 77.41 77.15 77.04 77.23 77.20 76.80 76.64 76.24 76.17 75.86 76.17 75.89 75.78 75.81 75.43 73.63 75.57
69.41 72.19 76.10 76.87 76.53 76.85 77.07 76.82 77.00 76.59 76.06 76.06 76.88 76.13 75.66 75.44 75.45 75.37 76.00 76.49 76.31 76.49 76.73 76.92 77.12 77.41 76.99 76.98 77.03 76.89 76.89 76.63 77.16 76.82 76.41 76.54 76.16 75.43 75.37 75.61 75.72 74.01 74.59
69.49 73.39 75.28 77.52 76.87 77.11 77.37 76.41 76.97 76.38 76.05 76.51 76.42 76.10 76.25 75.96 75.13 75.25 75.33 75.60 76.36 76.28 76.27 76.46 76.78 76.97 76.98 76.26 76.12 76.39 76.86 76.97 76.94 76.59 76.19 73.41 73.61 74.90 75.23 74.43 74.51 74.85 75.06
71.08 73.71 75.08 77.42 77.12 77.52 77.50 77.01 77.15 76.51 76.30 76.35 76.58 76.09 76.06 76.07 74.98 75.25 75.48 75.32 75.26 76.27 75.34 75.97 76.46 76.92 76.37 75.77 75.83 75.87 76.14 76.46 76.41 75.72 72.46 72.76 72.78 75.44 75.52 74.90 75.07 75.26 74.97
72.79 73.68 74.73 76.87 77.64 77.40 77.25 77.29 77.11 76.52 76.39 76.21 76.39 76.21 76.21 75.99 75.20 74.74 75.12 76.10 75.80 75.26 75.83 76.21 76.31 75.95 75.53 75.76 75.73 75.47 75.89 76.29 75.71 73.69 71.99 71.68 71.54 74.67 74.64 74.17 75.03 75.17 73.32
72.28 73.33 76.31 76.60 76.44 77.03 77.45 77.49 76.99 76.41 76.66 76.38 75.79 76.22 75.97 76.17 75.81 74.74 75.09 76.04 75.92 75.94 75.93 75.86 75.61 75.38 75.49 75.07 75.37 76.25 76.00 75.99 75.16 73.18 73.09 73.78 72.17 75.07 74.18 75.44 74.90 74.54 73.99
71.56 73.49 74.48 77.61 77.34 77.28 77.00 76.89 76.96 76.95 76.81 76.36 76.22 76.40 76.06 76.14 75.80 76.04 75.43 75.79 75.70 75.35 74.90 74.96 75.07 75.01 75.07 75.45 75.78 76.06 76.29 76.08 73.01 72.38 72.56 72.20 72.24 75.61 74.46 75.26 74.46 74.49 75.18
73.31 74.42 75.54 77.26 77.12 77.61 77.57 77.25 76.96 76.91 76.98 76.34 76.76 76.48 76.15 76.33 75.96 75.61 75.64 75.65 75.76 75.59 75.37 74.98 74.76 74.85 75.26 75.75 77.37 76.55 76.33 75.61 73.18 72.43 72.68 71.73 74.21 74.17 75.07 74.66 72.94 72.64 73.42
74.11 74.09 74.62 74.91 76.07 77.33 77.04 77.24 77.22 77.02 77.14 77.01 76.36 76.25 76.37 75.92 76.16 76.00 76.03 75.96 75.82 75.65 75.29 74.88 74.90 75.39 75.37 75.78 76.68 76.27 75.85 75.19 71.75 72.48 73.01 71.50 75.34 73.96 73.47 72.64 73.72 73.32 73.23
72.76 73.85 73.52 73.55 73.66 73.36 74.85 77.44 77.11 77.13 77.31 76.99 76.86 76.66 76.27 76.08 75.82 76.06 76.51 76.63 75.82 75.71 75.32 75.10 75.34 74.96 75.56 76.70 76.79 76.11 75.55 75.10 71.68 72.76 72.73 72.30 75.33 75.24 75.00 75.31 75.10 75.03 74.36
72.61 72.22 72.25 72.04 71.90 72.54 73.22 75.73 76.87 77.28 77.21 77.13 76.31 76.67 76.16 73.67 73.66 73.81 74.97 76.12 75.96 75.82 75.73 75.37 75.12 75.65 76.30 75.87 76.80 76.35 75.15 71.80 72.20 72.15 72.41 74.58 75.41 75.59 75.51 75.34 74.48 74.20 74.20
71.13 71.63 71.47 71.55 71.96 72.88 74.88 73.74 73.91 74.85 74.24 73.92 73.73 72.23 71.07 72.25 73.15 74.01 75.01 75.93 75.82 75.76 75.96 75.05 75.25 71.76 71.87 70.51 71.66 74.81 70.66 71.47 71.65 72.07 72.62 75.35 76.13 74.85 74.83 74.14 75.02 73.59 72.67
70.92 71.97 70.85 71.51 71.94 72.55 73.30 72.83 73.28 73.53 73.18 73.14 72.44 69.05 70.69 72.14 72.27 72.69 72.95 72.99 72.19 74.20 70.64 68.76 69.72 69.55 69.81 70.73 70.99 70.85 69.96 70.74 71.41 72.07 73.99 75.90 76.04 74.97 74.77 75.14 73.91 73.23 73.18
69.93 70.82 70.37 71.23 71.62 71.00 72.33 72.27 72.62 72.71 72.80 72.32 70.70 68.92 71.04 68.36 69.51 70.27 71.06 71.34 71.37 70.86 68.13 67.45 68.78 69.94 70.07 70.37 70.84 70.17 69.35 70.44 70.09 71.42 73.55 75.85 75.96 74.98 74.68 74.71 74.50 74.49 73.76
68.86 70.03 69.60 70.48 70.89 70.37 71.58 71.74 71.86 71.67 72.27 72.17 71.41 70.92 71.49 68.40 68.87 70.07 70.29 70.02 70.27 69.89 69.03 68.93 69.41 69.73 70.23 70.89 70.55 70.03 68.92 69.97 70.59 71.88 71.86 74.94 75.85 75.41 74.50 74.67 74.46 73.93 73.57
69.02 69.37 69.36 70.12 70.87 70.76 71.05 71.44 71.55 71.46 72.30 71.91 71.70 71.78 70.99 69.89 69.89 69.64 69.96 69.48 69.53 69.39 68.65 69.73 69.05 69.19 69.95 70.79 69.39 68.93 69.24 70.15 71.00 71.64 71.37 71.88 75.36 75.43 74.88 74.12 74.22 74.59 73.66
68.68 69.08 68.69 69.81 70.62 70.79 70.76 71.62 71.44 71.42 72.15 71.22 70.74 69.89 71.82 70.42 70.09 67.41 69.67 69.49 69.12 67.66 68.76 69.52 68.70 69.29 69.03 69.52 67.45 68.78 69.36 69.53 70.21 70.99 71.56 71.62 72.92 75.02 75.29 74.29 73.81 74.12 73.92
68.39 68.33 68.85 71.66 70.96 70.26 70.30 71.44 71.29 71.34 71.28 71.20 70.97 70.77 71.62 71.91 70.54 69.25 69.12 69.35 69.62 67.89 68.47 69.19 68.17 67.52 66.71 66.63 66.65 67.64 68.46 68.64 68.99 69.81 71.14 71.30 71.49 72.49 74.10 74.97 74.80 74.18 73.43
68.32 68.76 68.99 69.67 69.91 70.05 70.45 71.01 70.37 71.47 71.86 71.47 71.96 71.55 70.53 71.40 72.69 70.81 70.03 69.37 69.88 68.79 68.20 69.03 68.51 67.27 66.21 65.88 66.36 67.21 68.01 67.76 68.27 69.73 69.71 70.91 70.86 71.64 70.81 73.35 75.43 75.65 74.58
69.26 69.31 69.26 69.61 69.76 70.23 70.07 70.31 70.93 70.92 71.73 72.12 71.45 70.83 68.67 72.16 73.65 72.25 71.52 69.90 70.72 68.99 68.72 68.88 66.75 66.59 67.15 66.28 67.72 66.43 66.98 67.52 67.49 67.72 68.17 69.88 70.04 70.83 70.75 71.32 71.52 73.67 75.83
69.23 68.95 69.33 69.37 68.70 69.88 68.18 68.75 68.71 68.87 70.35 70.72 71.11 71.90 72.69 72.61 72.90 72.36 71.32 70.79 71.38 69.73 69.74 68.94 67.72 66.14 67.32 65.93 63.53 64.05 65.06 65.99 66.50 66.80 68.32 68.53 69.01 69.95 70.04 69.95 70.13 71.41 72.12
68.49 68.96 69.68 69.51 68.71 70.10 68.54 68.44 69.72 68.95 69.79 70.16 71.08 71.48 73.26 73.29 72.97 72.59 71.74 70.89 69.35 68.74 69.24 69.15 68.04 66.84 67.52 66.09 63.27 62.85 60.08 61.18 62.29 65.04 66.04 67.78 68.21 69.46 70.08 70.20 69.55 69.69 70.57
68.17 68.14 69.13 69.23 68.64 69.85 69.03 68.80 69.74 69.32 69.89 69.14 70.34 70.93 72.60 73.79 72.97 72.48 71.98 69.96 68.82 69.67 68.05 68.34 69.27 67.28 64.84 66.52 65.64 63.59 59.04 58.10 60.39 63.09 64.04 65.19 66.05 66.10 68.58 69.94 70.12 69.95 69.65
68.00 68.88 69.42 68.78 68.51 69.45 69.11 68.25 68.36 68.45 67.11 68.90 70.10 70.68 72.38 73.58 72.75 71.45 72.50 72.09 70.97 70.35 69.55 69.79 70.02 67.52 66.50 64.88 66.21 64.80 65.00 63.50 59.58 59.48 62.97 64.77 65.27 65.37 65.52 68.10 69.75 70.33 70.32
68.52 68.32 69.16 68.94 68.56 68.59 69.25 68.70 68.21 67.76 67.73 69.06 69.57 70.14 71.18 72.37 72.73 72.98 71.84 71.72 71.41 71.29 69.96 70.71 70.31 69.51 68.87 67.11 66.67 63.16 63.75 64.56 63.04 61.02 59.71 62.25 65.20 66.26 65.93 66.22 67.61 68.23 68.69
68.51 68.54 69.11 68.66 68.52 68.86 68.89 67.76 67.86 67.66 67.76 68.14 68.85 69.32 70.25 71.14 71.90 72.01 71.99 72.03 71.78 70.58 70.71 70.81 71.00 69.73 70.26 70.15 69.37 65.92 63.31 63.17 62.47 62.69 61.13 61.56 63.28 65.11 66.33 66.63 66.65 66.67 67.84

GFSSE_sfc_wetblb_093.txt.gz
Wetbulb
71.32 74.05 75.25 75.79 76.37 76.33 76.05 76.10 76.31 76.30 76.40 76.34 76.23 76.47 76.97 76.92 76.60 76.41 76.48 76.73 76.90 77.64 77.36 77.46 77.45 77.18 77.46 77.42 77.19 77.28 76.88 76.67 76.84 76.71 76.54 76.56 76.26 76.05 75.91 75.58 76.28 74.25 75.41
72.22 74.43 76.37 76.43 76.74 76.60 76.24 76.25 76.03 76.08 76.11 75.97 75.75 75.54 75.60 76.10 76.89 76.72 76.77 76.71 76.94 76.80 77.05 77.19 77.31 77.22 77.31 77.29 77.15 76.91 76.34 76.38 76.69 76.76 76.06 76.36 76.19 75.94 75.36 74.81 75.39 75.67 74.58
72.40 74.81 74.79 76.50 76.60 76.72 76.80 76.44 76.00 75.79 76.42 76.19 75.57 75.50 75.28 75.29 75.47 76.46 76.31 76.47 76.67 76.81 77.03 76.86 76.71 76.75 76.82 77.01 77.16 76.78 76.85 76.69 75.96 76.04 74.33 75.41 74.37 75.09 75.33 75.77 75.53 74.28 75.13
73.22 75.04 75.49 77.12 77.34 76.77 76.98 76.49 75.91 76.04 76.69 76.45 76.21 76.11 75.21 75.32 75.46 75.39 75.89 75.94 75.67 76.51 76.64 76.83 76.47 76.39 76.55 76.89 77.03 77.00 76.91 76.51 76.25 75.06 75.80 74.27 73.27 75.30 75.93 75.78 75.48 75.53 75.05
74.11 75.62 76.38 76.88 77.27 76.85 76.98 76.65 76.13 76.36 75.97 76.17 75.93 75.98 75.27 75.03 75.39 75.14 75.31 75.68 75.64 76.24 76.49 76.54 76.41 76.10 76.16 75.85 76.40 76.88 76.02 75.75 75.33 74.52 75.64 75.14 74.80 75.92 75.83 74.72 73.51 74.05 73.87
74.60 75.56 76.80 77.29 77.21 77.02 76.94 76.86 76.10 76.56 76.32 75.88 75.72 75.36 75.73 74.76 75.55 74.91 75.33 75.75 75.79 75.92 76.18 76.02 76.10 75.92 75.83 75.84 75.88 76.18 76.16 75.60 74.84 75.42 75.51 74.25 74.05 75.65 75.78 74.59 73.90 73.81 73.87
73.90 75.66 76.84 77.68 77.75 77.28 76.97 76.93 76.32 76.44 76.24 75.91 75.83 75.62 75.78 75.12 75.58 75.38 75.86 75.75 75.63 75.86 75.75 75.69 75.64 75.75 75.85 75.97 76.51 76.32 75.80 75.41 75.49 75.15 75.42 74.72 75.44 75.62 74.36 75.63 74.91 73.52 73.82
74.06 75.10 75.72 76.93 77.09 77.20 77.18 76.30 76.41 76.48 75.98 76.24 76.10 76.06 75.86 75.71 75.83 75.66 75.39 75.50 75.36 75.39 75.67 75.39 75.83 76.05 76.33 76.24 76.58 76.32 75.76 75.30 75.34 74.80 74.27 73.97 75.47 76.10 74.41 74.65 74.68 73.18 73.36
74.69 75.18 75.74 76.24 76.89 76.71 76.41 76.62 76.30 76.77 76.25 76.26 76.19 76.08 75.85 75.69 75.48 76.05 75.58 75.89 75.45 75.48 75.06 75.64 75.82 76.07 76.62 76.44 76.54 76.34 75.89 75.39 75.02 73.91 72.01 72.74 75.51 74.00 72.91 72.94 73.13 73.58 73.40
74.25 74.99 76.17 76.92 77.12 76.96 77.06 76.71 76.40 76.61 76.33 76.43 76.07 75.96 76.01 76.10 75.85 75.80 75.48 75.69 75.39 75.14 75.34 75.42 75.69 76.04 76.18 76.73 76.21 75.76 75.65 74.87 74.94 73.69 73.08 73.01 74.66 73.13 74.76 74.36 74.22 74.13 73.93
73.45 74.48 75.51 75.84 76.33 76.70 76.33 77.03 76.73 76.55 76.68 76.66 75.92 76.08 76.37 76.44 76.28 75.84 75.81 76.09 75.39 75.08 75.25 75.00 75.64 75.77 75.94 76.39 76.26 75.68 74.12 74.86 74.65 73.89 73.74 74.45 74.58 74.79 75.29 74.44 74.42 74.20 74.20
71.93 74.12 75.33 75.73 75.78 76.35 76.31 77.09 77.25 77.17 77.22 77.25 76.98 77.17 76.97 76.94 76.21 75.68 75.94 76.09 75.89 75.02 75.19 74.97 75.49 74.35 74.77 75.57 76.55 75.17 75.24 74.40 74.37 74.70 74.22 73.93 74.92 75.31 75.32 74.21 73.94 73.27 72.93
72.25 73.90 74.76 75.39 75.53 75.80 75.87 76.49 76.65 76.57 76.76 77.41 77.13 76.56 76.71 76.31 76.27 76.13 76.38 75.96 75.67 73.69 75.32 73.57 73.83 74.39 74.92 75.61 75.78 75.72 75.10 74.41 74.06 75.18 75.05 74.53 74.39 74.89 74.02 74.72 73.58 72.16 72.55
71.84 73.17 74.26 75.05 74.86 75.84 76.73 75.99 75.93 75.61 75.88 75.58 75.84 75.55 76.46 75.73 75.83 76.27 75.94 76.34 76.16 73.76 73.51 74.56 74.16 75.05 75.13 75.54 75.23 75.01 74.97 74.30 73.92 74.95 75.05 74.70 74.45 73.95 73.72 74.46 73.26 73.56 73.57
70.45 72.33 73.68 74.13 74.96 75.81 76.11 75.86 75.68 75.19 75.56 75.93 75.10 75.42 76.53 75.41 75.16 75.87 75.90 75.55 75.56 75.28 74.07 74.95 75.40 75.72 75.91 75.57 75.99 75.53 74.90 74.47 73.96 74.42 75.04 74.52 74.52 74.49 73.85 74.06 74.02 73.82 73.42
71.24 72.33 73.82 73.16 75.28 75.78 75.53 76.01 75.73 75.58 75.76 75.42 75.08 75.84 75.13 75.53 74.92 74.65 74.75 74.63 75.47 75.83 75.57 76.10 75.93 76.12 75.72 75.39 74.88 75.28 74.86 75.16 74.44 74.31 75.12 75.40 74.39 74.88 74.83 74.25 73.92 74.03 74.57
71.37 72.82 72.93 72.91 74.40 75.21 75.31 75.69 75.59 75.45 75.44 75.73 76.67 76.32 76.09 75.57 75.38 75.24 74.05 73.97 75.11 75.52 74.78 76.11 76.11 76.30 75.83 74.49 74.64 74.76 75.28 75.21 74.43 74.50 75.23 74.86 75.42 74.79 75.12 75.14 74.53 73.96 73.89
70.90 72.22 72.88 72.52 73.63 74.68 74.93 75.25 75.16 75.58 76.21 77.06 76.78 76.62 76.03 75.97 75.57 74.88 75.09 74.55 74.76 74.00 74.99 75.15 75.64 74.72 74.25 73.83 74.44 74.81 75.57 75.51 74.28 74.25 74.50 74.49 75.14 75.10 75.15 75.02 75.57 75.16 74.50
71.20 72.20 72.17 73.03 73.70 74.28 75.15 74.73 75.39 76.30 76.21 77.40 77.23 76.50 75.39 76.03 75.58 74.51 74.75 75.03 74.39 74.05 74.64 75.15 75.27 74.65 73.78 73.50 73.71 75.13 75.53 74.90 74.59 74.06 74.18 74.22 74.70 74.61 75.28 75.62 73.89 74.37 74.84
71.49 72.42 72.77 72.94 74.36 75.10 74.83 74.75 75.10 75.78 76.23 76.77 76.81 76.94 75.64 76.42 76.10 75.28 74.62 75.09 74.70 73.61 74.10 75.43 75.25 74.70 74.27 73.88 72.69 73.30 73.75 74.52 74.91 74.81 74.47 74.53 74.51 75.13 75.41 75.66 75.58 75.77 74.59
71.64 71.68 72.69 73.02 74.50 74.45 73.75 73.18 73.60 74.03 75.20 76.94 76.59 76.53 76.02 75.50 76.70 76.53 75.37 74.95 74.89 74.16 74.57 75.53 75.00 73.94 74.25 74.72 72.65 72.94 73.60 73.87 73.93 74.48 74.87 74.54 74.56 74.95 75.35 75.51 75.89 75.71 75.90
71.30 71.38 72.71 73.26 74.50 74.59 74.37 74.97 75.58 75.61 75.85 76.71 76.42 76.62 76.05 76.31 77.67 77.10 76.34 75.75 75.79 74.52 76.00 75.45 75.58 74.02 74.75 74.20 71.44 71.59 68.48 70.76 72.79 72.91 73.62 73.61 74.12 74.70 74.47 75.56 75.95 76.27 76.41
71.24 71.53 72.28 73.47 74.03 74.78 75.41 75.15 75.07 75.34 75.54 75.11 75.31 75.72 76.87 76.51 76.99 77.52 76.73 76.56 76.69 75.99 74.92 76.05 75.25 74.47 72.78 73.87 72.89 71.55 68.68 67.03 69.71 73.09 73.46 74.13 74.39 74.21 74.58 74.91 75.32 75.99 76.64
71.12 72.40 73.04 73.62 73.96 74.37 75.39 74.95 75.34 73.90 75.11 74.54 75.45 75.96 76.16 77.39 77.09 77.16 77.06 77.01 76.48 76.42 75.89 75.64 75.61 75.63 74.51 72.34 73.85 73.24 73.59 72.33 68.51 68.68 73.35 73.99 74.80 74.03 75.11 75.40 75.00 75.48 76.35
71.41 71.88 72.55 73.60 73.96 74.40 74.77 75.77 74.81 74.73 74.62 75.12 75.23 76.15 76.79 77.63 77.79 76.36 77.56 76.89 76.33 75.74 76.47 76.22 76.21 75.74 75.72 74.47 73.87 73.37 73.21 73.37 72.97 70.85 68.36 70.63 74.52 74.59 74.83 75.03 75.55 75.55 76.13
71.55 71.81 72.09 72.99 74.00 74.24 74.37 74.58 75.13 75.26 74.80 74.24 74.77 74.60 75.12 77.53 76.82 77.89 77.00 77.26 77.46 76.62 76.56 76.60 77.33 76.39 76.59 77.06 76.46 75.30 73.25 72.59 71.71 71.52 70.68 71.01 71.24 73.02 74.41 75.39 76.02 76.73 77.42

GFSSE_sfc_wetblb_096.txt.gz
Wetbulb
73.31 74.62 75.12 76.46 76.48 76.31 76.66 76.76 76.80 76.85 76.75 76.73 77.00 77.44 76.79 76.57 76.82 76.80 76.91 77.85 77.98 77.60 77.64 77.76 77.63 77.63 77.67 77.57 77.27 77.14 77.00 77.03 76.93 76.48 76.71 76.48 76.20 76.21 75.66 75.90 76.96 75.96 75.66
74.12 75.04 76.57 76.54 76.62 76.48 76.57 76.48 76.45 76.53 76.23 76.10 75.94 76.05 76.51 77.21 77.07 76.80 76.91 76.88 76.94 77.44 77.54 77.66 77.63 77.69 77.56 77.40 76.97 77.02 76.88 76.62 76.22 76.76 76.56 76.50 76.14 75.70 76.19 76.19 75.78 75.15 75.54
74.09 75.28 76.08 77.52 77.07 76.72 76.65 76.32 75.89 76.70 76.43 75.83 75.76 75.60 75.38 75.73 76.65 76.67 76.44 76.60 77.07 77.24 77.10 77.06 77.03 77.24 77.45 77.27 77.16 76.91 76.63 77.05 75.40 74.21 76.48 73.93 74.99 76.49 75.70 74.62 75.97 75.75 74.49
74.54 75.48 75.60 77.27 77.44 77.17 76.79 76.00 75.82 76.72 76.44 76.29 76.53 75.52 75.66 75.31 75.96 76.37 76.05 76.35 76.77 77.03 77.02 76.70 76.84 76.89 77.07 77.49 77.25 77.09 76.97 76.00 74.95 75.52 74.61 73.62 75.65 76.16 76.31 76.05 75.84 74.67 73.71
75.12 76.29 76.91 76.83 77.24 77.02 76.81 76.28 76.06 76.69 76.53 76.50 76.26 75.53 75.58 76.12 75.51 75.78 76.14 76.03 76.52 76.79 76.72 76.84 76.29 76.33 76.36 76.89 76.86 76.25 76.30 75.53 73.76 76.27 74.71 75.16 75.81 76.10 74.21 74.34 74.21 74.09 74.87
75.21 76.18 76.59 76.92 77.32 77.08 77.13 76.50 76.47 76.51 76.37 75.90 75.76 75.97 74.95 75.98 75.66 76.47 76.03 76.14 76.38 76.30 76.31 76.36 76.34 76.23 76.35 76.22 76.48 76.45 75.96 74.61 76.50 75.09 73.02 75.30 75.83 75.67 74.46 74.21 74.23 74.57 74.82
74.81 76.46 76.99 77.65 77.03 77.02 76.84 76.59 76.45 76.61 76.26 75.99 75.94 76.00 75.12 76.03 75.89 76.10 76.22 76.22 76.42 76.12 76.17 76.04 75.86 76.09 76.36 76.77 76.64 76.29 75.67 74.99 74.71 74.38 74.27 76.03 74.72 75.20 75.97 75.31 73.74 73.92 74.59
74.71 76.18 77.09 77.19 77.19 77.03 76.99 76.64 76.39 76.51 76.26 76.39 76.18 75.74 76.17 76.25 75.89 76.09 75.84 75.92 75.98 76.20 75.90 75.87 76.40 76.72 76.52 76.66 76.75 76.17 75.55 74.92 75.13 73.69 73.90 76.31 75.75 74.80 75.47 75.16 73.49 73.81 73.96
75.23 76.04 76.59 77.06 77.70 77.21 76.90 76.61 76.42 76.38 76.52 76.42 76.38 76.23 75.90 75.89 76.20 75.87 75.45 75.78 75.92 75.76 75.75 76.12 76.45 76.69 76.66 76.71 76.69 75.96 75.47 74.54 74.31 72.80 72.63 75.06 74.89 73.40 73.43 73.65 74.06 73.89 73.94
75.21 75.98 76.09 76.59 76.92 77.45 77.29 76.80 76.68 76.48 76.56 76.48 76.60 75.89 75.96 76.44 75.98 75.70 76.12 76.26 75.81 75.87 75.84 76.29 76.34 76.56 76.80 76.64 75.95 75.74 75.27 75.31 74.19 73.33 72.62 73.14 74.25 75.02 75.25 74.86 74.71 74.82 74.17
74.57 75.20 75.84 76.77 77.13 76.74 77.03 77.14 76.81 76.73 76.68 76.31 76.34 76.05 76.14 77.08 75.71 75.84 76.56 75.70 75.72 75.73 75.53 76.06 76.25 76.41 76.76 76.53 76.00 75.15 75.65 74.40 74.02 73.85 75.43 74.94 74.82 75.46 75.31 74.35 74.38 75.07 73.49
73.20 73.79 75.66 75.84 76.29 76.60 76.18 77.67 77.64 76.90 77.28 77.48 77.30 76.99 76.60 77.19 76.62 75.85 76.54 75.90 75.61 75.41 75.75 75.73 74.84 74.75 76.82 75.80 76.10 75.68 73.92 73.86 73.85 74.02 74.56 75.23 75.53 75.67 75.09 74.58 73.74 72.88 72.36
72.99 73.73 74.94 76.24 76.14 76.07 77.94 76.92 76.81 76.54 76.43 77.04 77.32 76.73 76.59 75.95 76.16 76.33 76.13 74.98 75.21 76.04 75.19 75.55 75.78 76.15 76.29 75.76 75.48 73.53 73.70 73.10 73.74 74.54 75.26 74.81 75.14 75.05 74.39 75.15 73.37 72.85 73.24
72.60 73.87 75.39 75.74 76.52 76.43 76.83 76.04 75.72 75.97 76.06 75.75 76.61 77.22 75.98 75.45 75.86 75.73 74.52 75.03 74.55 75.37 75.55 76.95 75.67 76.65 76.77 76.72 75.13 73.86 73.16 72.48 72.69 73.85 74.65 75.00 74.59 74.33 73.98 74.56 73.74 73.67 73.56
72.70 73.57 74.60 75.19 75.31 77.18 77.03 75.76 76.05 75.98 76.38 76.66 76.30 76.93 76.43 74.98 75.26 75.30 75.55 75.02 74.83 75.05 75.54 76.77 76.62 76.46 76.92 75.88 75.85 75.03 74.27 73.69 73.38 74.03 74.71 74.55 74.30 74.36 73.84 73.88 73.62 73.66 73.52
72.10 73.30 74.40 74.06 75.67 76.37 76.62 76.80 76.08 76.81 77.04 76.51 76.32 77.07 77.03 75.90 75.47 75.35 75.32 75.12 75.30 75.97 76.18 77.41 77.35 76.72 76.25 75.97 75.16 75.42 75.32 74.73 74.95 75.65 75.06 75.69 74.61 74.53 74.78 74.32 73.75 73.65 73.87
72.23 73.61 74.02 73.74 75.96 76.21 76.62 76.64 76.67 76.80 76.66 76.51 78.16 77.44 77.34 76.71 76.73 76.33 75.26 75.43 75.50 76.27 77.03 77.22 77.54 77.65 76.08 75.07 74.91 75.17 75.50 75.68 75.40 76.10 77.17 75.89 75.73 74.45 74.87 74.81 74.90 74.44 74.12
72.14 73.33 73.98 73.51 75.21 76.14 76.26 76.20 76.00 76.92 77.52 78.23 78.63 77.32 77.59 77.82 77.46 76.91 76.00 75.48 76.22 75.94 76.89 76.59 76.72 76.06 74.41 73.31 73.88 74.81 75.33 76.44 76.14 76.85 77.35 76.49 76.96 76.43 75.65 75.02 75.34 75.59 75.23
72.31 73.34 73.62 74.18 74.39 75.57 76.88 76.89 77.06 77.92 76.89 76.90 79.09 77.29 77.97 77.90 77.56 76.67 76.13 76.84 76.72 75.85 75.84 76.02 76.13 76.47 73.79 74.07 73.30 74.75 76.23 76.53 76.55 75.89 76.74 77.11 77.44 76.93 76.66 76.33 74.74 74.37 74.65
72.20 73.30 73.95 74.38 75.48 76.20 76.34 76.55 76.39 77.09 79.05 77.27 77.35 78.12 77.66 77.92 77.95 76.43 76.31 76.76 76.05 75.45 75.38 76.62 76.77 75.57 74.96 74.28 72.81 73.39 75.73 76.53 77.13 76.99 76.71 76.24 77.31 76.75 77.13 77.60 77.49 77.49 75.49
71.84 72.79 73.65 74.47 76.38 75.91 75.15 74.48 75.11 75.04 77.98 76.73 77.08 78.11 78.06 77.55 77.85 77.93 76.06 76.77 76.19 75.24 76.36 76.71 75.47 74.89 73.41 75.79 72.85 71.92 73.12 74.13 74.91 75.80 76.67 76.72 76.01 76.94 76.93 77.48 77.49 77.25 77.46
71.92 73.09 73.97 74.86 76.60 76.63 76.04 76.48 76.59 75.96 76.51 76.56 77.45 78.02 77.54 77.54 77.91 77.28 77.62 76.13 76.55 75.49 76.99 76.71 76.81 73.32 74.31 75.19 71.59 71.58 69.60 70.07 72.55 73.93 75.41 75.43 75.31 76.46 76.89 77.18 78.02 78.35 77.96
72.18 72.78 74.06 75.12 76.49 77.06 77.25 77.42 78.07 78.59 78.74 77.02 77.53 76.37 77.11 77.61 77.31 77.19 77.06 77.19 77.52 77.53 74.75 76.75 76.55 76.16 71.94 74.82 75.32 72.51 69.07 67.48 71.02 72.65 73.71 74.79 76.59 76.11 76.48 77.53 77.81 78.21 78.24
73.11 73.56 74.19 75.62 76.39 76.88 77.92 77.14 77.00 74.31 73.30 75.09 76.24 76.70 76.51 76.92 77.44 77.07 77.06 77.35 77.38 76.96 76.91 76.76 76.99 76.72 75.99 72.28 74.76 74.80 74.83 74.27 69.76 68.84 72.53 74.07 75.49 75.86 77.05 77.24 76.65 77.83 78.73
73.92 73.77 74.09 75.48 76.32 76.83 77.59 77.62 76.72 75.71 74.12 74.86 76.21 78.80 77.29 77.32 77.50 77.23 77.34 77.59 78.27 77.01 77.47 77.38 77.51 77.74 75.73 74.59 73.61 74.53 75.09 75.49 75.30 71.58 69.16 71.52 74.01 75.07 75.65 76.32 77.35 77.53 78.54
73.79 74.16 74.28 75.13 76.12 77.00 76.98 77.25 77.34 76.45 76.01 75.54 75.72 79.07 77.55 76.22 76.42 77.61 78.36 78.37 79.09 77.86 77.93 77.73 78.16 77.94 77.91 76.98 75.62 75.20 73.91 73.32 72.45 72.81 72.06 72.73 72.70 73.57 75.36 76.39 77.13 77.64 78.30

GFSSE_sfc_wetblb_102.txt.gz
Wetbulb
72.73 74.25 77.09 76.39 76.37 76.61 76.80 76.79 77.20 77.55 77.77 77.65 77.42 77.54 77.70 77.90 77.84 78.37 78.10 78.18 78.47 78.26 78.15 77.44 77.32 77.32 77.40 77.26 77.39 77.20 77.24 77.73 77.98 77.09 76.40 76.44 76.10 76.36 76.85 76.67 76.27 74.27 75.81
73.53 74.62 77.78 77.51 77.27 77.23 76.93 76.88 76.65 76.60 76.73 76.81 77.30 77.55 77.67 77.74 78.51 78.34 78.43 77.96 78.30 77.58 78.12 77.40 77.20 77.31 77.34 77.22 76.99 76.78 76.60 77.85 77.92 77.73 76.77 76.16 75.93 76.26 76.11 76.18 76.21 74.78 75.38
73.50 75.01 75.47 77.37 77.31 76.83 76.51 76.15 76.16 75.88 75.78 75.75 76.05 76.70 77.08 77.07 77.58 77.96 78.04 78.21 78.20 78.13 77.61 77.58 77.53 77.45 77.57 76.73 76.54 75.85 75.76 76.79 76.52 77.05 77.01 72.34 74.60 76.14 74.41 75.04 76.16 75.97 75.60
73.09 74.16 74.58 77.19 77.41 76.81 76.27 76.92 76.41 76.38 76.19 75.84 75.73 75.68 76.85 76.61 77.10 77.14 77.50 77.58 78.17 77.87 77.89 77.45 77.56 77.60 77.37 76.90 76.09 75.87 75.64 75.24 74.88 75.29 73.85 72.37 73.45 75.49 75.24 75.44 75.68 75.72 75.77
73.65 75.18 76.40 77.59 77.67 76.87 76.79 76.74 76.66 76.39 76.31 75.76 76.46 76.66 76.07 76.83 76.75 76.90 77.14 77.22 77.45 77.38 77.16 76.81 77.11 76.75 76.48 75.95 75.81 76.00 76.18 77.06 75.19 75.36 72.53 71.04 72.21 74.57 74.96 75.68 75.94 75.28 74.56
74.64 75.49 77.45 77.89 77.24 76.82 76.99 76.29 76.66 76.46 75.94 75.84 75.98 75.93 76.37 76.13 76.45 76.73 76.92 77.04 77.17 77.14 77.04 76.73 76.81 76.86 76.49 76.08 75.88 76.02 76.56 77.51 75.77 73.50 73.25 74.62 73.23 74.10 74.57 75.55 75.92 75.85 73.98
73.94 75.14 76.22 78.03 77.70 76.88 76.70 76.48 76.58 76.34 76.00 76.31 76.04 76.26 76.26 76.43 76.37 76.57 76.96 76.82 76.85 76.88 76.60 77.04 77.11 77.11 76.59 75.92 75.58 76.00 76.78 79.22 72.36 71.72 72.35 74.20 74.47 74.72 74.27 74.40 75.13 75.48 73.92
73.20 74.71 75.74 77.50 77.45 76.97 76.43 76.80 76.41 76.31 76.55 76.30 76.53 76.59 76.31 76.84 76.59 76.78 76.71 76.88 76.80 77.02 77.13 77.15 77.11 76.98 76.80 75.77 75.50 75.98 76.54 77.85 74.85 73.77 72.29 71.86 75.44 74.78 74.30 74.35 74.48 74.86 75.29
74.48 75.01 75.59 75.90 76.65 77.13 76.76 77.13 76.79 76.67 76.57 76.32 76.55 76.94 76.88 76.67 76.60 76.49 76.82 76.71 76.80 76.99 77.07 76.90 76.96 77.13 76.34 75.53 74.44 74.77 75.57 77.69 72.01 73.15 71.07 72.48 75.58 75.10 74.83 74.26 74.31 74.38 74.58
73.66 74.30 75.66 76.06 76.14 75.79 75.87 76.88 76.88 76.87 76.57 76.67 76.20 76.56 76.52 76.62 76.46 76.46 77.44 77.30 76.91 76.91 76.63 76.65 76.99 76.92 76.02 75.48 74.69 74.68 75.68 76.96 71.44 71.92 72.87 74.55 76.21 75.09 75.08 75.53 74.67 72.73 74.47
73.37 73.84 74.36 75.06 75.94 76.58 75.89 76.13 76.65 76.99 76.77 76.44 76.00 76.26 76.71 75.45 75.18 75.49 77.33 77.29 76.43 76.57 76.43 76.63 76.65 76.63 76.00 75.79 76.23 75.49 75.88 74.73 73.65 73.48 73.92 75.90 76.50 74.57 74.32 74.91 74.54 72.75 73.29
71.62 72.62 74.73 74.99 74.95 75.94 74.39 76.59 76.40 75.79 76.24 77.38 75.70 76.22 74.07 74.54 74.58 74.91 76.15 76.74 75.95 75.90 75.79 76.24 76.80 76.98 76.52 74.62 74.87 76.13 74.96 72.42 73.35 74.00 74.76 76.45 76.26 74.92 74.76 73.36 72.76 72.99 72.70
72.79 73.07 73.65 75.21 75.96 75.71 74.89 75.34 76.07 75.97 75.92 76.19 73.91 77.38 77.27 75.90 73.66 73.20 74.96 74.47 75.43 75.71 74.95 74.50 76.02 75.58 76.28 75.02 74.76 73.56 71.95 71.85 71.75 72.37 75.02 76.65 76.02 74.76 75.15 73.50 73.25 73.48 73.05
72.59 73.22 74.95 76.15 77.95 77.11 71.80 74.22 75.83 74.71 76.42 74.95 75.60 77.86 76.97 75.71 74.73 76.05 74.94 75.45 73.68 77.21 72.63 76.01 71.64 72.73 75.20 73.50 72.36 71.66 71.28 71.92 71.28 72.13 74.80 75.99 76.00 74.57 74.89 73.83 73.95 73.33 72.84
70.93 74.30 75.11 76.49 76.46 76.80 72.90 73.54 71.97 73.60 74.80 74.53 77.41 76.42 77.37 72.70 77.11 75.71 75.68 74.90 73.61 76.65 74.43 75.01 73.93 76.04 75.18 73.95 74.61 73.40 72.37 73.45 72.34 71.98 72.73 76.18 75.81 74.82 74.08 73.69 73.39 73.31 73.66
72.97 72.96 74.72 75.87 76.46 77.97 75.92 73.48 71.74 73.11 73.58 74.50 76.21 78.48 76.16 76.15 74.30 75.94 76.98 75.50 76.27 74.61 75.13 74.12 72.86 74.02 72.21 74.56 74.54 74.51 74.70 74.10 75.45 73.88 72.35 74.24 76.26 75.75 75.12 74.27 74.05 73.77 73.58
72.14 73.58 73.59 74.66 76.14 77.24 78.59 75.93 73.55 73.84 74.10 76.39 75.41 79.44 78.79 77.55 78.13 72.51 75.94 74.38 76.35 77.46 76.80 77.56 75.52 77.65 74.32 74.26 74.20 75.16 74.38 75.39 74.92 74.95 74.02 73.34 74.36 76.41 76.46 75.64 75.27 74.97 74.62
72.59 73.78 74.23 73.51 74.91 76.86 78.84 76.99 73.07 74.36 70.64 71.05 75.68 76.29 78.76 79.23 79.19 78.78 77.30 74.54 77.53 77.52 72.78 76.22 75.26 74.00 75.32 73.72 74.08 72.20 74.20 74.22 75.08 75.35 75.19 75.48 74.20 74.11 75.94 76.67 76.77 76.52 75.77
73.42 74.11 73.86 74.95 74.47 76.31 78.36 76.88 75.57 73.69 74.45 75.51 76.67 78.20 77.69 78.77 78.71 77.66 77.27 77.84 78.25 75.78 75.53 72.59 71.34 74.79 74.84 71.59 72.71 73.41 73.60 74.42 73.64 74.26 74.58 75.08 74.33 75.50 75.10 76.20 76.79 76.88 76.73
73.51 74.54 75.80 75.37 76.56 78.62 77.34 79.87 76.43 78.65 75.40 75.56 73.97 76.40 77.53 77.18 77.55 75.02 77.48 77.91 78.61 76.94 73.84 72.09 75.27 74.74 75.24 70.01 71.85 72.40 74.38 74.64 74.39 74.48 74.00 74.91 74.27 74.69 75.79 76.08 75.73 75.83 76.99
73.14 73.98 75.33 76.46 77.57 76.82 76.33 76.04 77.06 76.46 78.14 76.88 74.03 76.55 76.31 78.07 78.05 76.05 75.70 77.72 78.75 72.53 75.13 76.59 75.87 75.73 75.29 75.44 75.05 73.72 73.21 73.08 73.34 74.05 74.62 74.07 74.30 75.29 74.87 76.24 76.49 76.42 75.49
72.46 73.97 74.96 76.38 77.17 77.72 76.62 76.33 75.49 72.56 76.36 77.23 76.97 78.22 78.46 78.43 78.77 77.01 77.31 77.10 77.17 76.17 77.79 77.30 78.08 74.20 74.52 74.82 73.27 73.47 69.53 70.71 72.25 72.30 73.22 73.88 73.09 74.38 75.08 76.11 76.90 76.83 77.11
71.99 73.41 74.68 76.62 76.73 77.62 78.88 76.40 72.34 74.20 76.90 76.89 75.51 76.85 77.45 78.00 78.14 78.61 78.11 78.52 74.43 77.26 76.46 78.18 77.77 76.77 73.75 73.58 75.75 74.02 69.17 67.48 69.73 71.92 72.94 72.94 74.07 75.01 75.74 76.02 76.72 77.60 77.44
71.57 73.37 75.34 77.27 76.69 77.21 75.44 78.26 77.66 76.24 71.92 76.86 76.44 76.73 77.22 77.18 78.57 78.33 78.68 79.14 78.59 77.43 77.72 78.22 75.48 76.46 77.71 74.01 73.88 73.56 73.88 74.60 70.18 69.12 72.42 72.74 74.79 74.74 75.14 75.48 77.00 77.54 77.85
71.95 72.73 74.63 76.62 77.07 78.03 78.48 78.08 76.83 71.07 66.17 73.12 72.09 78.40 78.20 78.22 76.81 77.67 79.11 79.08 78.36 72.92 74.97 78.77 78.44 78.49 76.90 74.21 74.35 74.08 74.63 74.61 75.01 72.62 69.06 71.66 73.93 75.20 76.30 75.35 76.51 77.19 78.17
71.85 72.43 74.16 75.49 76.89 77.77 78.24 77.22 77.43 72.71 70.48 72.53 72.97 77.13 76.65 77.33 77.77 77.91 78.15 79.34 78.50 74.37 77.29 78.75 79.03 79.06 78.20 76.75 76.64 76.17 73.36 73.34 70.93 72.32 70.74 71.78 70.97 72.97 74.36 75.99 75.58 76.18 77.58

GFSSE_sfc_wetblb_105.txt.gz
Wetbulb
71.15 74.58 77.14 76.95 76.77 76.95 76.58 76.55 76.39 76.79 77.74 77.82 78.10 78.20 78.30 78.23 78.49 78.34 78.39 78.03 78.22 78.40 78.39 78.32 78.22 77.71 77.61 77.31 77.40 77.47 77.70 77.32 77.76 76.99 76.10 76.09 75.68 76.19 77.09 75.97 75.44 72.85 75.71
72.93 74.90 77.51 77.37 77.28 77.16 77.02 76.88 76.72 76.99 77.20 77.46 78.10 77.77 77.91 77.86 78.28 78.38 78.26 77.79 78.30 78.45 77.76 77.52 77.47 77.49 77.06 77.03 76.86 76.85 76.77 77.52 77.63 77.54 76.50 75.89 76.05 75.99 76.37 76.16 75.51 73.48 75.81
73.54 75.14 76.02 77.68 77.01 76.85 76.14 76.15 76.00 75.84 76.11 76.68 77.25 77.68 77.37 77.38 78.06 78.21 77.83 77.47 77.81 78.40 77.78 77.48 77.49 76.77 76.87 76.90 76.36 76.01 75.96 76.61 77.19 76.89 76.12 73.72 71.77 75.58 76.28 76.03 76.04 74.79 74.78
73.45 73.37 75.10 77.37 77.40 76.28 77.04 76.66 76.29 76.01 75.95 75.73 76.56 77.00 76.88 77.27 78.19 77.80 77.56 77.49 78.20 78.07 77.48 77.75 77.54 77.15 76.25 76.62 76.20 76.02 75.83 75.83 76.11 76.25 72.58 71.99 72.46 75.84 76.42 76.08 75.90 76.09 75.76
72.28 73.22 75.00 77.53 77.28 77.07 76.66 76.95 76.58 76.61 75.87 76.54 76.09 76.44 76.91 76.68 77.48 77.37 77.75 77.41 77.31 77.14 77.31 77.22 76.44 76.17 76.03 76.24 76.44 77.13 75.86 77.03 76.67 72.71 70.89 70.26 71.59 74.53 76.15 75.70 74.27 75.10 75.91
73.28 74.86 76.92 77.62 76.71 77.22 76.59 76.76 76.59 76.55 75.76 76.07 75.99 76.35 76.46 76.62 77.04 77.24 77.27 77.62 77.29 77.24 76.93 77.13 76.74 76.35 76.13 76.11 76.71 77.24 76.57 76.58 75.22 72.86 72.58 72.61 70.14 74.86 76.04 76.04 74.58 74.45 75.50
73.65 75.04 75.50 77.95 77.40 77.03 76.81 76.63 76.70 76.21 75.80 76.63 76.34 76.42 76.70 76.80 77.05 77.27 76.97 77.19 76.94 76.91 77.22 77.01 76.90 76.18 76.02 75.82 76.09 76.47 77.79 76.21 72.41 72.97 72.99 72.55 71.79 75.02 74.85 75.67 75.39 74.13 74.40
73.17 74.32 74.93 77.44 77.57 77.01 76.99 76.44 76.42 76.39 76.15 76.71 77.16 76.48 77.22 77.06 77.03 77.78 76.95 76.92 77.28 77.28 77.28 76.99 76.86 76.28 75.51 75.00 75.58 76.85 77.22 76.70 72.16 70.40 71.44 72.02 74.74 74.51 74.64 74.62 75.01 75.27 74.06
73.54 73.65 74.40 74.95 75.69 76.69 77.13 76.86 76.75 76.53 76.72 76.72 76.70 76.59 77.24 76.65 76.65 77.18 76.94 77.03 77.56 77.17 76.92 76.65 76.66 76.08 75.46 74.67 75.11 76.53 77.69 76.14 70.18 69.89 71.32 71.98 75.74 75.15 74.49 74.21 74.44 74.62 74.91
72.91 73.22 73.70 74.07 74.12 73.77 74.51 77.00 76.91 76.78 76.80 76.61 76.43 76.51 76.96 76.44 76.67 77.02 77.57 77.78 77.12 77.03 76.72 76.76 76.53 75.77 75.36 75.44 75.67 75.86 77.94 74.62 71.50 72.45 73.17 73.99 75.69 75.14 75.76 74.71 72.88 74.61 74.26
72.46 73.01 73.38 73.37 73.05 73.22 73.77 75.41 76.37 76.70 76.67 76.36 76.35 75.92 76.52 72.65 73.02 74.63 76.51 77.24 76.92 76.73 76.42 76.36 76.15 75.41 75.08 75.34 76.46 76.67 76.42 71.34 71.82 72.59 73.19 75.42 75.30 74.11 74.72 74.96 72.87 72.81 73.76
69.98 71.97 72.89 72.85 73.22 73.38 74.59 73.57 73.40 74.56 73.52 73.23 73.02 72.70 72.33 72.19 71.67 74.27 75.50 76.61 76.53 76.47 76.39 76.14 76.08 76.00 76.08 72.96 72.58 76.10 73.56 72.33 72.64 73.07 74.20 76.34 75.80 74.91 73.89 72.68 72.73 72.70 72.51
71.04 71.44 72.56 72.27 72.95 72.29 73.67 73.55 73.13 72.76 72.98 72.98 72.74 72.06 71.88 71.37 72.37 72.51 72.81 72.85 72.28 75.37 73.22 75.41 75.08 74.68 74.38 73.95 73.62 72.72 71.02 72.08 71.38 71.44 74.19 75.52 76.02 75.47 74.52 73.39 73.37 73.34 72.83
70.44 70.54 71.73 73.34 70.22 69.24 70.21 71.99 72.36 72.87 71.89 72.00 71.47 73.26 70.58 71.73 70.64 70.52 71.74 71.79 71.85 72.67 70.20 71.66 69.59 70.50 71.48 73.59 72.24 68.20 69.64 69.34 70.06 72.36 74.64 76.74 76.04 76.25 75.05 74.01 73.81 73.35 72.81
70.96 71.82 71.88 70.26 69.46 68.13 66.14 70.07 71.45 71.30 72.03 71.92 72.71 72.93 72.36 71.89 70.04 71.12 70.95 71.88 70.77 71.34 70.61 69.87 72.34 70.45 70.05 70.83 71.02 68.86 69.62 68.74 69.45 71.12 71.92 75.68 76.28 76.02 74.70 73.95 74.13 73.83 74.15
70.88 72.19 72.76 69.11 69.30 68.39 66.17 70.19 69.20 71.49 71.58 72.01 72.06 73.92 73.45 71.50 71.29 71.68 71.54 71.50 71.95 72.92 72.78 69.70 70.55 70.75 70.86 70.06 69.52 70.85 69.89 70.62 69.72 69.67 71.22 72.69 76.30 75.89 75.49 74.68 74.52 74.27 74.22
71.72 72.46 72.17 70.74 69.89 68.19 68.54 71.75 69.97 70.92 71.92 72.36 72.74 74.12 72.86 72.48 72.13 70.67 71.44 72.82 72.73 72.21 70.56 69.99 70.18 73.22 72.08 70.82 69.78 70.11 70.43 70.81 70.86 69.60 70.69 71.49 73.89 76.64 75.88 75.75 76.00 75.76 74.83
70.10 70.17 71.59 74.33 72.13 72.02 71.34 70.57 68.66 70.16 70.00 69.68 73.98 73.08 74.17 74.12 74.13 72.20 72.98 72.05 71.54 71.36 69.99 71.69 69.82 68.25 70.75 71.08 68.49 69.33 70.04 71.20 70.88 71.16 71.61 71.23 71.62 72.08 75.57 76.72 76.93 76.90 75.84
70.07 69.55 69.47 72.26 71.78 72.46 71.22 70.74 68.18 68.72 70.78 70.71 73.77 73.96 73.61 73.60 74.23 72.90 72.85 73.42 72.33 72.79 71.58 69.71 70.33 69.45 69.77 69.21 69.40 69.21 69.58 69.85 70.67 72.53 70.47 71.78 71.50 72.35 72.31 75.16 76.59 76.79 76.76
70.14 69.39 70.64 70.97 72.24 71.37 72.90 71.99 71.46 71.37 71.87 72.26 72.40 73.63 73.73 74.52 74.29 71.73 73.62 72.25 73.15 70.94 69.96 69.44 69.43 72.92 71.15 68.14 71.02 69.22 68.74 70.31 70.37 70.01 70.61 72.08 71.42 72.90 72.85 72.95 73.69 74.92 77.12
70.31 69.06 71.96 71.10 72.80 71.22 72.08 71.87 72.17 71.81 72.20 71.44 70.92 74.24 74.06 74.14 73.63 71.26 71.46 72.37 71.81 71.37 70.97 69.28 71.34 70.85 70.86 70.78 68.76 68.90 67.94 67.52 68.05 69.97 69.83 70.97 70.72 72.43 73.10 73.45 73.09 74.24 74.24
69.64 70.04 71.79 72.65 72.33 70.88 72.44 72.97 72.74 70.72 72.87 72.90 73.45 73.84 74.27 74.11 73.99 73.07 72.15 72.03 73.34 71.55 71.17 71.47 72.08 70.81 70.81 69.11 67.19 68.28 63.66 65.40 67.87 68.84 67.92 70.09 69.48 71.00 71.94 72.87 73.28 73.58 73.48
69.42 70.71 72.08 72.35 72.60 73.07 72.27 71.32 70.38 70.49 72.17 72.11 72.40 72.90 73.97 74.16 74.31 74.22 74.07 73.19 71.63 72.88 71.21 71.88 71.38 70.48 68.37 68.96 68.81 68.48 64.14 63.19 64.15 66.33 66.98 68.46 68.74 70.42 71.27 72.69 73.24 73.98 73.92
69.81 71.59 72.80 72.70 72.06 73.42 73.77 71.27 67.41 69.21 68.97 70.68 72.24 73.52 73.72 74.36 74.39 73.48 74.11 73.32 73.42 71.72 71.71 72.28 73.79 72.73 71.77 69.67 70.16 69.49 69.05 68.76 65.60 62.76 67.51 68.67 70.07 70.25 70.53 72.19 73.06 74.00 74.06
70.40 71.06 73.27 72.78 72.24 72.42 73.64 72.40 71.36 68.24 66.44 69.37 70.99 72.28 73.10 73.82 74.39 74.12 73.78 73.51 72.98 71.15 71.15 71.42 72.65 72.25 72.78 71.95 70.41 70.94 68.52 70.80 70.21 66.76 66.42 68.68 69.91 70.97 71.40 71.45 73.62 73.62 75.39
70.12 71.30 72.62 73.07 72.52 73.48 72.82 72.62 70.94 65.30 64.45 68.40 70.18 71.67 72.17 72.71 72.77 73.96 74.16 73.22 72.82 72.84 71.73 72.90 72.75 72.97 72.66 72.76 73.41 71.44 70.71 67.78 67.42 64.19 67.48 67.79 67.50 68.66 70.55 71.69 70.73 72.21 74.89

GFSSE_sfc_wetblb_108.txt.gz
Wetbulb
71.21 74.15 76.60 76.55 76.62 76.43 76.63 76.61 76.50 76.86 77.36 77.65 77.14 77.20 77.14 77.68 77.56 77.43 77.39 77.40 77.27 77.33 77.72 77.34 77.67 77.38 76.94 76.53 76.68 76.54 76.58 76.70 76.41 76.03 75.74 75.08 75.93 76.02 75.47 74.60 75.22 74.27 75.86
73.36 74.72 77.47 77.62 76.79 76.97 76.90 76.61 76.62 76.89 76.87 76.82 77.48 77.11 77.88 77.44 77.56 77.33 77.24 77.26 77.10 77.46 77.44 77.20 76.78 76.84 76.61 76.88 76.37 76.07 76.54 77.41 77.56 76.35 76.43 76.32 76.28 75.97 75.13 74.30 75.65 74.71 75.83
73.38 75.05 76.25 77.45 77.18 76.85 76.56 76.34 76.50 76.85 76.77 76.66 77.33 77.51 77.76 77.25 77.49 77.61 77.44 77.44 77.49 77.55 77.27 76.88 76.95 76.84 76.47 76.27 75.96 75.52 76.23 77.36 75.98 75.71 74.25 71.01 73.83 75.94 76.17 74.66 74.56 74.97 75.61
74.18 74.40 75.32 77.21 77.00 76.27 75.92 75.85 75.75 75.69 76.43 77.08 76.69 77.21 77.62 77.54 77.77 77.57 77.57 77.49 77.43 77.76 77.37 76.92 76.76 76.51 75.94 75.66 75.46 75.41 77.27 77.50 76.40 75.00 71.26 71.86 73.94 75.87 75.72 75.86 75.31 74.81 75.21
72.89 74.12 74.70 77.16 76.82 76.79 76.49 76.85 76.32 75.59 75.59 76.48 76.95 76.79 77.04 77.52 77.52 77.47 77.36 77.13 77.17 77.84 76.65 76.77 76.62 76.34 75.91 75.66 75.81 75.94 75.85 76.02 74.55 72.64 70.66 70.49 71.37 75.35 74.91 74.04 75.10 75.05 74.10
72.54 74.12 76.58 76.63 76.84 76.63 76.82 76.69 76.52 76.04 76.86 76.09 76.45 76.80 76.95 77.28 77.44 77.35 77.45 77.28 77.11 77.03 76.71 76.13 76.16 76.40 76.62 76.76 76.42 76.95 76.95 75.35 74.16 70.87 70.36 71.55 70.71 75.62 75.41 73.86 75.08 75.19 73.85
73.31 74.52 74.74 77.61 77.06 76.83 76.54 76.59 76.53 75.46 76.00 76.19 76.23 76.31 76.84 76.96 77.35 77.15 77.13 77.13 77.07 76.90 76.76 76.41 76.41 76.36 76.23 76.48 76.78 76.81 76.20 75.25 72.46 71.43 70.74 70.31 71.97 75.31 75.29 73.90 74.43 73.86 73.28
73.73 74.40 75.09 76.91 77.02 77.04 76.62 76.48 76.24 75.89 76.76 76.38 76.46 76.83 76.78 77.10 77.36 77.03 76.85 77.08 77.16 77.05 76.71 76.43 76.02 75.81 75.60 76.69 77.99 77.24 76.38 75.65 73.34 72.26 71.38 71.01 74.44 74.55 74.66 74.99 74.54 73.64 73.42
74.12 73.78 74.17 74.37 75.83 76.77 76.71 76.66 76.35 76.53 76.54 76.32 76.27 76.61 77.01 77.00 76.96 76.90 77.30 77.35 77.05 76.86 76.41 75.96 75.52 75.23 75.60 76.09 77.13 78.12 75.71 74.28 69.20 70.21 71.57 71.93 75.37 74.07 73.93 74.17 74.65 74.78 73.69
73.23 73.88 73.62 73.29 73.23 73.62 74.15 76.71 76.52 76.62 76.50 76.31 76.37 76.59 76.62 77.18 76.72 76.82 77.67 78.05 76.75 76.44 76.24 75.74 75.24 74.96 75.02 75.87 76.62 78.03 75.16 73.29 69.76 71.15 71.91 72.93 75.64 75.70 74.54 72.54 74.57 74.15 74.10
72.14 72.58 73.13 72.78 72.79 72.96 73.62 75.06 76.28 76.74 76.25 75.92 76.45 76.32 75.29 72.18 73.71 74.37 76.54 77.60 76.50 76.36 76.24 75.99 75.38 74.64 74.75 75.25 75.66 76.93 74.80 70.64 71.48 72.29 72.82 74.88 74.97 75.13 75.28 72.97 72.61 73.49 73.66
70.43 71.88 72.60 72.73 72.16 72.86 74.78 73.37 73.01 74.50 72.88 72.59 72.38 72.61 71.88 71.11 72.30 73.94 75.63 77.19 76.64 76.44 76.27 75.86 75.50 75.44 75.24 73.35 71.64 75.05 71.14 71.24 71.64 72.45 73.10 75.18 75.44 73.74 73.30 72.53 72.46 72.35 72.65
71.18 71.70 72.31 72.13 72.26 72.06 72.89 72.43 72.84 72.73 71.97 71.85 71.65 71.08 71.09 71.28 72.44 72.06 72.69 72.95 72.25 75.39 73.03 74.50 73.70 73.73 73.48 73.46 72.99 71.76 71.15 71.50 71.51 72.79 74.53 76.15 75.69 74.74 73.46 73.04 73.12 73.12 72.74
70.20 71.37 71.90 71.69 70.60 69.04 71.49 71.58 71.45 71.48 72.06 71.64 71.63 70.96 69.42 70.02 70.24 70.89 71.10 71.16 70.91 71.53 70.05 71.69 70.06 71.04 70.47 71.09 71.42 70.66 69.80 69.65 69.66 71.05 72.96 75.80 76.09 75.49 74.30 73.67 73.78 73.97 73.35
69.36 70.92 70.89 70.59 67.71 66.07 68.73 70.12 70.26 71.02 71.22 71.08 70.59 72.12 70.91 70.45 68.89 69.98 70.79 70.81 70.48 69.76 69.81 69.47 70.25 69.40 69.30 68.49 67.84 68.51 68.18 68.77 69.78 71.87 72.46 75.62 75.72 76.15 75.25 74.41 74.52 74.23 73.99
70.17 70.21 69.89 69.91 68.98 65.60 66.11 69.16 68.14 69.96 70.91 71.31 71.60 71.61 71.47 70.59 69.10 69.79 69.71 70.25 70.10 71.35 70.79 69.04 69.47 70.40 70.07 68.11 68.25 68.16 67.85 68.04 68.77 70.03 70.69 72.27 75.83 75.74 75.02 74.34 74.48 74.34 74.37
70.90 70.52 69.03 68.71 69.20 65.98 66.82 69.45 69.29 71.29 70.76 71.25 72.05 72.45 71.51 70.13 70.45 70.23 70.32 70.34 70.72 70.26 68.16 68.47 70.94 69.95 70.27 70.23 68.19 68.76 68.75 68.93 68.46 68.92 69.78 70.68 72.75 75.71 74.94 75.13 75.73 75.65 75.01
70.92 70.57 70.21 71.20 68.26 66.25 68.45 70.14 68.33 69.40 70.07 69.70 71.60 71.72 71.64 71.06 70.34 71.58 71.08 70.21 70.33 70.56 69.49 71.01 68.38 67.59 69.81 69.78 67.54 68.02 68.91 69.55 69.15 68.35 69.36 69.83 70.96 72.09 74.24 76.47 76.76 76.69 75.91
70.92 70.87 70.08 69.93 69.81 69.86 70.75 69.27 67.26 68.91 68.94 69.74 72.08 72.76 72.40 73.10 73.53 71.84 72.26 71.04 71.38 71.24 69.80 68.73 69.26 68.39 68.37 67.42 67.61 68.18 68.58 69.13 69.12 71.16 70.15 70.10 69.73 70.71 70.54 73.44 76.38 76.76 76.84
70.28 68.57 71.46 70.63 70.59 70.57 70.69 69.47 69.36 69.76 70.03 71.49 72.01 72.21 73.14 73.42 72.34 71.65 73.41 71.56 71.31 69.65 68.91 68.53 68.70 70.52 69.27 67.63 69.65 68.20 68.15 68.47 69.10 69.31 69.72 70.68 70.79 71.13 71.25 71.17 71.69 74.40 76.66
68.36 69.02 69.22 69.69 70.14 70.77 70.00 69.11 68.98 68.55 70.26 70.35 70.54 73.08 72.64 73.38 71.95 71.04 71.39 71.31 70.77 69.66 68.89 70.17 71.81 69.48 69.20 69.29 67.03 67.69 66.32 67.00 67.41 68.61 69.37 69.47 69.86 71.17 71.87 71.91 71.76 72.26 73.21
67.43 69.67 69.63 70.57 69.70 69.90 71.74 71.43 71.69 71.27 71.32 70.84 70.63 72.85 73.30 73.50 71.87 71.08 70.70 70.92 71.46 70.22 70.11 70.07 70.93 70.04 68.64 67.59 66.61 66.24 62.30 63.87 66.07 67.10 67.74 68.90 68.97 69.65 72.12 72.40 72.48 72.83 73.09
68.55 70.00 71.03 70.87 69.32 70.10 71.47 71.27 70.12 70.52 71.01 70.86 71.39 71.30 72.70 73.13 73.23 73.18 72.18 71.46 71.30 71.10 69.79 70.18 70.70 70.53 68.52 68.80 68.34 66.66 62.77 61.07 62.89 64.85 65.65 67.33 67.09 68.70 70.44 71.55 72.19 72.88 72.45
69.26 70.83 71.28 71.18 70.84 71.73 71.16 69.11 68.35 69.02 68.12 69.85 70.25 71.30 72.27 72.71 72.96 73.48 72.98 72.04 71.66 70.91 70.52 71.28 73.09 71.25 70.18 69.48 69.38 69.86 67.51 67.51 63.17 61.93 66.25 68.34 68.85 70.06 69.03 69.89 71.34 71.72 72.85
70.14 71.01 70.99 71.01 70.47 72.14 72.11 69.75 68.81 68.06 68.50 69.29 70.52 71.58 71.75 72.07 72.79 72.90 72.99 72.82 71.05 70.07 70.34 71.10 71.86 70.77 71.84 71.06 70.03 69.33 68.43 67.32 66.52 65.46 64.00 66.87 68.65 69.00 70.15 70.07 70.89 71.93 73.49
70.12 71.45 70.92 69.99 69.86 71.16 71.60 71.27 69.28 65.93 66.83 68.03 69.53 70.47 70.86 71.11 72.12 72.41 72.61 72.24 71.94 71.33 70.39 72.18 71.81 71.40 71.23 72.03 71.72 70.65 67.67 66.29 62.86 65.31 65.43 65.45 65.73 67.76 69.09 70.37 69.63 71.35 73.84

GFSSE_sfc_wetblb_111.txt.gz
Wetbulb
70.45 73.03 75.87 76.66 76.35 76.51 76.47 76.66 76.44 76.30 76.11 76.13 76.73 76.75 77.19 77.06 77.13 77.31 76.96 76.74 76.92 77.12 76.80 76.43 76.83 76.24 76.57 76.53 76.61 76.44 76.06 76.00 75.92 75.21 75.42 76.07 76.09 75.04 74.83 75.91 75.49 73.97 75.36
72.46 73.75 76.27 77.03 76.34 76.35 76.31 76.24 76.32 76.26 76.30 76.26 76.26 76.96 77.27 77.28 77.31 77.32 76.94 76.98 77.11 77.33 76.84 76.86 76.67 76.37 75.74 75.59 76.20 76.52 76.60 76.93 76.57 76.18 76.19 76.27 75.25 74.33 75.04 75.87 75.45 74.44 75.11
73.23 74.10 75.10 77.04 76.61 76.46 76.44 76.69 76.44 76.47 76.20 76.50 76.39 77.16 76.84 77.20 77.31 77.11 77.19 77.00 77.24 77.39 76.88 76.76 76.59 76.26 76.18 75.99 75.93 76.71 76.19 76.46 75.36 75.07 75.86 73.06 73.47 74.75 74.49 74.76 75.62 75.53 75.21
73.84 74.30 74.82 76.66 76.96 76.09 75.91 76.03 76.52 76.65 76.57 76.41 76.76 76.91 77.04 77.25 77.42 77.22 77.34 77.49 77.30 77.28 76.96 76.65 76.24 76.02 75.90 75.80 75.39 75.90 75.86 76.00 74.20 74.31 71.15 72.80 73.59 75.76 75.36 75.14 74.61 75.43 75.42
73.35 74.03 74.65 76.33 76.33 75.52 75.24 75.39 75.47 76.02 76.50 76.51 76.87 76.55 76.93 77.08 77.29 77.32 77.24 77.31 77.33 77.44 76.60 76.46 75.69 75.44 75.28 75.27 75.54 76.13 76.28 74.85 74.43 72.42 70.54 70.76 72.33 73.93 75.04 75.11 74.14 74.11 73.95
72.87 73.51 75.54 76.82 76.52 76.26 76.08 75.96 75.31 75.12 75.88 76.67 76.30 76.31 77.16 77.14 77.12 76.95 76.73 77.03 76.57 76.43 76.46 76.27 76.21 75.66 75.44 76.09 75.54 75.59 75.38 74.64 73.67 70.41 70.33 72.63 72.23 73.94 74.08 75.20 74.50 74.10 73.95
72.31 73.61 74.17 76.82 76.25 76.63 75.97 76.02 76.11 75.93 75.78 76.03 76.55 76.13 76.90 77.17 77.16 77.18 76.74 76.63 76.68 76.24 76.02 76.21 76.32 76.16 75.91 75.94 76.04 76.12 75.21 74.43 70.68 69.67 69.60 70.59 72.60 75.20 73.81 74.84 73.74 73.18 74.42
73.16 73.47 74.32 76.15 76.53 76.47 75.96 76.30 75.42 76.16 76.02 76.25 76.25 76.34 76.94 77.03 76.84 76.79 76.66 76.85 76.60 76.47 76.30 76.18 76.04 76.24 76.34 76.59 77.28 75.84 75.14 73.91 72.12 70.37 70.16 70.47 74.49 75.09 74.95 73.89 73.40 72.88 73.40
73.76 73.47 73.19 74.12 75.56 76.44 75.98 76.06 76.14 76.61 76.23 76.07 76.05 76.44 76.62 76.70 76.62 76.65 76.99 76.91 76.50 76.16 75.94 75.69 75.49 75.65 76.36 76.61 76.39 76.16 75.66 74.75 70.01 69.75 71.20 71.19 75.12 73.82 74.10 74.65 74.35 73.41 73.18
72.74 73.33 72.54 72.93 73.25 73.20 73.87 76.17 76.30 76.60 76.24 76.10 76.30 76.38 76.52 76.63 76.57 76.73 77.70 77.41 76.30 75.83 75.55 75.41 75.35 75.54 75.49 76.09 77.45 75.02 74.48 74.39 68.46 69.83 71.09 71.96 75.16 74.27 72.71 72.58 75.39 73.67 72.66
72.47 71.89 71.93 72.11 72.42 72.63 73.28 74.72 75.96 76.34 76.11 76.27 75.77 76.28 75.01 72.45 73.44 74.10 76.32 76.80 76.11 75.72 75.58 75.52 75.11 75.33 75.36 75.39 76.70 75.52 73.87 70.07 70.61 71.53 71.69 74.42 75.44 75.76 73.43 72.21 72.65 74.03 73.37
70.44 71.45 71.63 71.63 71.89 72.38 74.60 72.82 72.73 73.63 72.25 72.58 72.30 71.69 71.14 71.46 72.13 73.92 74.92 76.02 75.97 75.83 75.69 75.41 75.00 75.08 75.17 71.77 70.96 74.94 69.56 70.49 71.12 71.85 72.27 74.95 74.60 74.35 74.17 72.10 72.09 72.02 72.50
70.79 71.59 71.51 71.15 71.79 71.80 72.41 71.77 72.16 71.56 71.13 71.16 71.34 70.70 70.79 71.15 71.73 72.16 71.85 71.99 72.15 74.39 72.26 73.28 72.68 72.68 73.01 72.74 72.79 71.55 70.00 70.45 70.96 72.23 73.21 75.27 74.59 73.60 72.76 72.47 72.69 72.49 72.26
70.37 70.94 71.39 71.34 71.10 71.55 71.82 71.28 71.25 71.14 70.77 70.47 70.45 70.00 69.70 69.66 70.38 70.70 70.77 70.81 70.51 70.84 69.94 70.80 69.55 70.16 70.08 71.60 71.89 70.66 70.10 70.54 70.58 70.96 72.13 75.22 75.13 75.18 73.97 73.02 73.30 73.72 73.66
69.50 70.75 70.86 70.82 69.08 69.98 70.03 70.26 70.09 70.88 71.16 70.59 70.59 70.32 69.59 69.49 68.77 69.59 70.00 69.93 70.11 69.15 69.22 68.97 69.29 70.33 67.75 66.64 69.05 70.42 69.09 68.95 69.57 70.64 71.16 74.70 75.00 75.81 74.89 74.41 74.21 74.44 74.13
69.80 70.48 70.39 69.35 67.22 67.45 68.20 69.19 68.61 69.71 70.37 70.72 69.76 70.84 69.81 69.80 68.09 68.76 69.38 69.53 69.51 69.99 69.85 68.29 69.05 70.52 67.32 67.08 66.89 68.15 68.09 67.85 68.51 70.14 71.05 71.99 75.61 75.14 75.14 74.77 74.45 74.39 74.78
70.01 70.22 69.84 68.67 65.92 65.62 67.10 69.08 68.20 70.66 70.56 70.56 71.89 70.88 70.09 69.71 69.41 68.85 69.21 68.97 69.43 69.56 67.69 69.03 70.24 67.50 68.78 68.61 67.22 67.17 67.12 67.26 67.39 68.07 68.73 69.67 70.87 75.50 74.99 74.79 75.34 75.63 75.49
69.92 69.15 69.00 70.48 67.93 65.05 66.77 69.19 69.14 69.23 69.49 70.13 71.32 71.59 70.64 70.36 69.95 69.97 69.85 69.52 70.26 69.33 69.16 69.05 67.56 67.32 68.74 68.88 66.96 67.30 67.90 68.39 68.71 67.55 67.96 68.49 69.41 70.91 73.10 76.09 76.68 76.69 76.11
69.97 69.21 68.90 67.71 66.01 65.76 68.91 68.56 66.97 68.53 68.90 69.21 71.30 71.06 71.42 71.50 71.84 70.66 70.42 70.00 70.42 70.20 68.84 68.42 68.66 68.84 67.46 66.60 67.67 67.45 67.49 68.41 68.71 70.28 68.34 68.81 68.70 69.83 69.83 71.85 74.87 76.17 76.49
70.20 69.44 69.04 68.67 68.64 69.51 69.38 67.51 68.16 68.34 68.49 69.80 71.20 71.39 71.21 72.68 71.90 72.28 70.81 70.99 70.10 68.69 68.20 67.75 68.15 69.61 68.71 67.78 68.17 68.17 67.51 67.97 69.09 68.41 68.77 70.35 69.83 70.38 70.23 70.00 70.36 71.25 74.70
69.02 68.55 68.95 68.84 69.01 69.73 68.70 67.19 67.17 66.95 68.54 69.96 70.56 71.68 72.20 72.57 71.34 71.59 71.13 70.43 70.28 69.37 68.15 70.38 70.16 68.84 68.42 67.70 66.17 66.12 65.73 66.49 66.01 67.58 68.27 68.57 68.95 70.39 70.92 71.65 71.40 71.61 72.19
67.95 68.82 68.39 69.02 69.26 69.67 70.33 70.32 69.82 69.35 70.23 69.89 70.26 71.80 71.98 72.53 70.88 70.64 70.21 69.67 69.76 69.69 69.30 69.35 69.94 68.36 67.28 66.94 66.45 64.30 61.50 62.86 64.54 66.08 66.21 67.77 67.75 68.84 69.71 71.66 71.74 72.02 72.16
67.10 68.21 68.38 69.18 69.18 69.66 71.39 70.57 69.74 70.48 70.50 70.07 69.68 70.74 71.50 72.57 71.57 71.09 71.03 70.37 70.81 70.30 68.92 69.60 70.34 69.69 68.20 68.72 67.78 65.68 61.76 59.77 62.27 63.55 65.55 66.78 66.97 66.90 68.93 70.05 71.51 71.61 71.77
67.63 69.17 69.32 69.46 68.29 69.87 70.87 69.42 68.54 68.56 67.31 69.04 69.40 70.46 71.30 72.14 72.40 72.93 72.28 71.47 71.51 70.73 69.83 70.54 72.39 70.40 69.36 68.69 68.93 68.82 67.01 66.07 61.49 61.12 64.51 67.38 68.46 68.72 68.47 68.79 69.77 70.46 71.53
69.09 69.19 70.02 69.36 69.55 70.27 69.99 69.29 68.27 68.33 68.23 69.51 70.00 70.31 70.59 71.30 71.91 72.45 72.08 71.53 70.11 69.51 70.05 70.89 70.73 70.39 71.03 70.25 69.24 68.36 67.34 64.71 64.93 63.96 62.60 65.74 68.35 67.73 68.75 69.57 69.73 70.80 71.93
69.49 69.82 70.20 69.18 69.65 70.86 70.90 69.01 68.27 67.88 67.82 67.85 68.86 69.87 69.96 70.52 71.20 71.36 72.30 71.83 70.77 69.65 69.48 71.32 71.27 70.37 70.70 70.86 70.82 69.62 67.01 65.74 61.90 65.23 63.72 64.44 65.49 67.49 68.02 70.02 69.98 71.35 73.37

GFSSE_sfc_wetblb_114.txt.gz
Wetbulb
69.74 72.66 76.18 76.30 76.37 76.49 76.22 75.86 76.03 75.72 75.99 76.60 76.20 76.23 76.27 76.92 76.73 76.78 77.07 76.79 76.95 77.45 76.70 76.49 76.52 76.71 76.81 76.61 76.73 76.43 75.86 75.50 75.16 76.40 76.19 75.33 75.17 76.00 75.83 75.96 75.54 74.42 75.61
71.10 73.57 76.80 76.74 76.51 76.23 76.43 76.27 76.13 76.03 76.08 76.26 76.84 76.67 76.65 76.94 76.84 76.58 76.90 76.73 76.77 76.69 76.81 76.52 75.99 75.98 76.55 76.46 76.33 76.36 76.30 76.60 76.20 76.42 75.72 74.75 74.80 75.96 75.92 75.93 75.66 74.93 75.57
72.44 73.89 74.87 76.89 76.30 76.09 76.06 75.89 75.85 75.86 75.87 76.43 77.12 77.00 76.91 76.99 76.96 77.05 77.01 77.33 77.44 77.10 76.69 76.76 76.43 76.19 76.29 76.61 76.52 76.42 76.24 75.58 75.84 76.05 76.01 74.22 73.30 74.83 75.28 76.19 75.79 75.72 75.22
73.13 73.70 74.29 76.53 76.50 76.20 76.15 76.03 76.25 76.19 75.97 76.69 76.58 76.74 76.38 76.83 76.78 76.89 77.05 76.90 76.95 76.84 76.71 76.57 76.21 76.13 75.64 75.85 75.79 75.84 75.11 74.20 75.29 74.93 73.67 74.22 74.56 75.76 75.06 75.29 75.75 75.65 75.29
73.31 74.00 74.51 76.31 76.03 75.81 75.67 75.97 75.99 76.22 76.21 76.52 76.54 76.79 76.76 77.31 77.40 77.32 77.13 77.23 76.90 77.18 76.47 76.16 75.97 75.69 75.74 75.72 76.44 75.89 75.01 74.41 74.48 73.17 73.22 73.72 73.40 74.90 75.52 74.14 74.20 74.18 75.13
73.00 73.50 75.59 76.08 75.47 75.47 75.36 75.20 75.55 76.17 75.94 76.48 76.27 76.77 76.70 77.12 77.16 77.14 77.24 76.95 76.75 76.47 76.22 75.85 75.97 75.67 75.42 75.49 75.38 74.78 74.96 74.21 73.53 72.09 72.95 74.42 72.91 74.49 75.64 74.29 74.09 74.21 73.29
71.97 73.17 74.77 76.96 76.32 76.13 76.18 75.18 75.21 75.24 76.19 76.09 76.28 76.53 76.78 76.19 76.82 76.70 76.96 76.64 76.28 76.27 76.24 76.11 76.13 75.89 75.58 75.88 75.54 76.12 74.74 73.99 70.90 71.27 72.13 73.57 74.12 74.19 74.92 73.88 73.03 74.58 73.89
72.43 72.95 74.32 75.84 76.42 76.21 75.94 75.61 75.30 75.84 75.64 76.19 76.16 76.42 77.03 76.30 76.81 76.44 76.90 76.61 76.22 76.22 76.06 76.05 75.89 76.01 75.91 75.88 75.87 75.28 73.95 73.01 71.59 71.15 71.67 72.78 75.14 74.92 73.67 73.36 72.89 73.39 73.71
73.23 72.76 73.52 73.89 75.23 76.10 75.91 75.24 75.61 75.59 76.05 76.15 76.34 76.57 76.94 76.45 76.76 76.93 76.87 76.49 76.42 76.14 75.69 75.58 75.83 76.34 76.34 76.28 76.11 75.64 74.80 73.67 70.90 71.25 72.02 72.87 75.09 73.98 74.34 74.80 73.44 73.14 72.78
72.66 72.54 72.99 73.30 73.30 73.27 73.82 75.88 75.46 75.59 75.92 76.06 76.42 76.29 76.29 76.15 76.58 76.37 76.99 76.75 76.14 75.83 75.50 75.53 75.66 75.66 76.04 76.07 75.79 74.91 75.29 73.90 70.39 71.54 72.58 73.09 75.24 72.69 72.68 74.06 74.23 72.86 72.45
72.37 71.70 71.90 72.20 72.35 73.29 73.41 74.75 75.57 76.00 75.84 76.16 76.21 76.37 74.51 73.67 74.39 74.94 76.88 76.41 76.08 75.67 75.50 75.42 75.20 75.22 75.42 75.46 75.81 73.65 73.44 70.56 71.09 72.23 72.70 73.59 74.89 74.41 71.89 72.02 72.35 74.09 73.03
70.94 71.49 71.30 71.86 71.98 72.96 74.59 73.17 73.06 73.92 72.90 73.18 72.93 72.28 72.39 72.98 73.67 74.81 75.68 76.39 76.19 75.94 75.50 75.39 75.13 74.80 74.39 72.73 72.59 74.91 71.59 71.67 72.28 72.80 73.13 74.24 73.88 74.50 73.83 71.84 71.77 72.07 72.51
70.88 71.59 71.21 71.62 71.88 72.58 72.38 72.28 72.23 71.52 71.48 71.84 71.66 71.84 72.09 71.89 72.71 73.06 73.11 73.34 73.18 74.20 72.56 73.18 72.72 72.70 73.26 73.82 74.26 73.25 71.24 71.67 72.35 73.17 73.82 74.42 74.08 73.49 72.82 72.33 72.68 72.82 72.94
70.24 71.04 71.20 71.40 71.32 71.75 72.19 71.78 71.48 71.17 71.14 70.78 71.28 71.37 70.92 70.80 71.70 71.81 71.17 71.44 72.07 71.83 71.38 72.20 70.80 71.69 71.35 72.00 73.38 72.75 71.41 72.01 72.04 72.95 73.16 74.84 74.76 75.15 74.79 73.63 73.54 73.76 74.24
69.57 70.59 70.80 71.00 70.53 70.99 70.85 70.88 71.01 71.37 71.31 71.12 71.24 71.08 71.37 70.86 70.61 71.04 71.33 71.29 71.38 71.11 71.32 71.08 71.12 71.91 69.61 69.06 71.20 72.86 71.31 71.85 71.69 72.28 72.28 73.95 74.77 75.15 75.97 74.90 74.80 74.68 74.87
69.89 70.27 70.72 70.58 69.78 70.30 69.88 70.20 70.06 71.12 71.42 71.35 71.07 71.64 71.19 70.76 70.20 71.16 71.08 70.82 71.77 71.58 71.40 71.09 71.82 71.43 70.04 69.90 69.71 71.67 71.20 70.75 70.58 71.19 72.21 72.85 75.24 75.60 75.04 75.20 75.49 75.24 75.25
69.84 70.53 70.02 69.10 67.92 68.76 69.19 69.83 69.46 71.56 71.49 71.03 71.20 71.70 70.81 71.51 71.00 70.83 71.10 70.74 72.03 71.67 71.24 72.34 70.99 71.05 71.76 70.65 70.13 69.91 69.94 69.86 69.44 70.06 70.70 70.94 71.69 73.15 74.95 75.41 75.75 76.06 75.93
70.02 69.77 70.20 70.25 65.91 67.17 68.05 69.80 70.11 70.89 71.03 71.75 72.53 72.08 71.71 71.63 72.11 71.61 71.51 71.48 72.32 72.10 71.33 70.62 71.08 70.97 70.87 71.12 70.35 70.40 70.60 70.41 70.69 70.81 70.27 70.49 71.01 71.15 72.29 73.81 74.76 76.58 76.26
69.97 69.42 69.35 68.86 66.29 65.35 67.93 69.58 69.24 70.38 70.72 71.04 72.40 72.12 72.23 72.06 72.31 72.45 71.66 72.08 72.84 72.11 71.71 70.60 71.48 71.63 70.53 69.54 70.21 70.27 70.46 70.79 71.20 71.43 71.35 71.34 71.13 71.89 71.85 72.41 73.88 74.73 75.50
69.73 69.24 69.23 68.16 66.56 66.99 69.07 67.79 68.42 69.63 69.84 70.97 72.71 72.42 72.83 73.23 73.17 72.79 72.37 73.01 72.08 71.61 70.34 71.05 71.85 71.69 71.27 70.17 69.81 69.93 70.15 70.94 71.70 71.33 71.14 71.67 72.30 72.96 73.35 73.03 73.21 73.38 74.43
69.61 68.82 68.25 67.41 67.67 69.12 68.19 66.78 67.36 67.99 69.22 71.06 72.07 72.85 72.68 73.23 73.12 72.96 72.03 72.49 71.98 72.03 71.73 72.65 72.23 71.25 71.00 69.75 70.24 69.29 69.25 69.29 69.87 70.04 71.19 71.18 71.78 72.29 73.24 74.62 74.15 73.91 74.20
68.70 68.88 68.31 68.52 68.88 69.77 69.39 69.11 69.31 69.22 70.71 71.31 71.77 72.92 72.98 73.12 72.52 72.56 72.04 71.99 71.90 72.26 71.93 72.23 72.33 71.34 71.10 70.23 70.08 67.46 65.76 67.44 68.66 68.94 69.13 69.92 70.60 71.17 71.99 73.18 73.92 75.03 74.92
68.06 68.42 68.61 69.03 69.34 69.83 70.78 70.76 70.45 71.21 71.35 70.84 71.01 72.26 73.30 73.48 72.51 72.75 72.39 72.03 73.16 72.89 71.61 72.42 72.70 72.22 71.00 71.50 70.27 69.19 66.55 64.93 65.55 68.08 70.09 70.85 71.33 71.07 72.30 72.98 73.59 74.26 75.22
68.00 68.90 69.08 69.23 69.18 70.13 71.13 70.30 70.00 69.51 68.87 70.01 70.06 71.91 72.62 73.53 73.21 72.87 73.37 72.80 73.47 72.97 72.76 73.39 73.84 72.83 72.42 70.87 71.56 70.45 69.89 69.36 66.88 65.80 70.27 71.64 72.75 72.03 72.07 73.32 73.54 74.03 74.97
68.41 68.51 69.21 69.19 68.91 70.27 71.17 70.58 69.73 69.46 69.80 70.49 71.12 71.41 72.15 73.11 73.11 73.70 73.47 72.88 72.83 72.74 73.00 73.81 73.27 73.06 73.51 72.43 71.15 70.64 70.13 67.05 67.86 67.79 67.73 69.70 72.90 72.05 72.20 72.67 73.51 75.39 76.70
67.95 68.89 69.38 68.66 68.78 70.13 70.49 70.03 69.35 69.05 69.23 70.13 70.29 70.68 71.28 72.52 72.67 72.58 73.02 73.17 72.78 72.45 72.44 73.68 73.49 73.44 73.63 72.92 73.44 71.65 70.59 69.54 68.71 69.56 67.00 68.35 68.64 71.06 72.29 73.80 74.71 75.34 76.31

GFSSE_sfc_wetblb_117.txt.gz
Wetbulb
72.05 74.35 75.65 75.98 76.27 75.98 76.00 75.93 75.75 76.32 76.66 76.82 76.56 76.81 77.05 76.90 76.74 76.77 76.73 77.08 76.85 77.28 76.94 77.19 76.96 76.53 76.71 76.35 76.19 76.49 75.21 75.97 76.15 75.65 75.40 76.12 76.06 76.24 75.99 75.75 76.22 75.60 75.98
72.96 74.64 76.12 75.60 76.72 76.47 76.17 76.19 76.18 76.40 76.45 76.77 76.92 77.04 77.20 76.72 76.65 76.75 76.69 76.64 76.22 77.35 76.54 76.48 76.75 76.82 76.58 76.46 76.43 76.24 76.38 76.07 76.47 75.39 74.49 76.16 76.41 76.43 76.29 75.86 76.40 76.04 76.14
73.05 75.07 75.41 76.15 76.40 76.41 76.07 75.98 76.00 76.04 76.73 77.17 77.00 77.12 77.21 76.97 77.06 76.76 76.57 77.17 76.83 77.37 76.71 76.63 76.60 76.74 76.82 76.44 76.23 76.22 75.76 76.41 76.27 76.26 74.89 74.19 74.57 76.13 76.42 75.98 75.71 75.65 75.32
73.76 75.26 75.74 75.93 76.77 76.27 76.24 76.18 75.98 76.14 76.86 77.01 76.81 76.80 77.00 76.88 77.06 76.56 77.08 76.98 77.03 77.15 76.60 76.49 76.16 76.27 76.24 76.20 76.68 75.08 74.97 75.67 75.96 75.37 75.58 75.13 75.27 75.23 75.29 75.94 75.63 75.62 74.91
74.34 75.43 76.08 76.43 76.48 76.26 76.23 76.34 76.39 76.32 76.78 76.81 76.94 76.67 76.87 77.01 76.96 76.88 77.31 76.97 76.90 76.90 76.57 76.30 76.21 76.21 76.35 76.75 75.94 75.20 74.76 75.14 75.30 75.28 74.96 73.94 75.74 75.83 74.11 73.98 74.06 75.44 75.59
74.60 75.43 76.48 76.13 75.80 75.64 75.74 76.18 76.28 76.02 76.54 76.50 76.87 76.55 76.69 77.37 76.94 76.87 77.01 76.99 76.79 76.32 76.04 76.27 76.44 76.02 75.77 75.89 75.57 75.42 74.58 74.45 74.30 75.67 75.47 73.55 74.44 75.39 74.66 74.46 75.57 73.95 74.03
74.55 74.94 75.66 76.22 75.91 75.56 75.40 75.04 75.56 76.01 76.08 76.33 76.54 76.31 76.71 76.80 77.02 76.91 76.77 76.74 76.48 76.49 76.35 76.20 76.36 76.02 76.26 76.28 76.58 75.83 74.58 73.77 74.14 75.00 75.80 75.11 74.12 74.71 74.11 73.53 75.16 74.95 73.55
73.10 74.97 75.85 75.98 76.21 76.07 75.48 75.62 75.16 75.61 76.29 76.33 76.33 76.66 76.68 76.59 76.81 77.43 76.83 76.47 76.47 76.30 76.14 76.41 76.51 76.02 75.99 76.06 75.91 74.62 73.34 72.55 71.81 72.81 74.68 75.04 75.61 75.20 74.61 73.82 73.41 73.53 73.34
73.97 75.36 75.63 75.92 76.30 75.61 75.56 75.77 75.78 75.32 75.70 76.19 76.73 76.86 76.58 76.40 76.49 76.77 77.07 76.69 76.02 75.97 76.03 76.33 76.81 76.86 76.26 76.19 76.14 75.04 75.00 72.70 71.87 72.68 72.01 73.39 74.56 74.25 75.20 75.09 74.14 73.71 73.72
74.25 74.75 75.00 75.72 75.97 76.08 75.40 75.76 76.12 76.00 75.71 76.33 76.57 76.64 76.91 76.51 76.84 76.90 77.34 77.21 76.33 76.05 75.91 76.02 76.10 76.01 76.07 75.79 75.68 75.16 75.03 72.14 72.10 72.82 74.12 74.80 74.85 73.55 72.93 75.49 74.44 74.21 73.24
73.39 74.35 74.86 74.82 75.43 75.83 75.83 75.83 75.77 75.83 76.09 76.28 76.64 76.60 76.85 77.24 76.64 75.93 77.13 76.47 76.00 76.00 75.69 75.41 75.16 74.97 75.72 76.32 75.08 73.64 73.14 73.20 73.34 73.20 73.86 74.07 74.81 75.31 73.22 72.60 72.80 73.87 73.56
71.73 73.20 74.76 74.60 75.11 75.37 75.39 76.41 76.63 76.36 76.50 77.10 76.99 77.05 76.60 77.06 76.75 76.12 76.84 76.44 76.22 75.77 75.57 75.05 75.19 75.08 74.87 75.48 76.11 75.84 76.53 74.67 74.41 74.62 74.28 73.97 73.90 74.22 74.07 73.12 72.59 72.77 72.92
72.02 73.12 74.19 74.85 75.48 75.74 75.77 76.16 75.49 75.74 75.43 76.00 76.46 76.39 76.22 76.00 76.41 76.54 76.25 76.06 76.06 75.02 75.65 75.62 75.41 75.52 75.11 76.13 77.50 76.76 76.54 75.32 74.05 74.45 74.45 73.89 73.96 74.54 74.20 73.42 73.30 73.50 73.92
71.93 72.71 74.09 74.76 75.52 76.17 75.81 74.77 74.67 74.52 74.66 74.15 74.99 75.89 75.28 74.84 75.44 75.24 74.81 75.84 75.98 75.42 75.73 75.86 75.52 75.61 74.82 75.39 76.46 76.54 76.09 75.07 73.90 73.97 74.40 74.09 74.98 75.11 75.71 75.36 74.40 74.55 74.79
71.67 72.60 73.81 74.83 75.29 75.60 75.46 74.67 74.61 74.58 74.30 74.28 74.75 75.10 75.34 74.71 74.60 74.64 75.41 75.13 75.22 75.94 75.45 75.31 75.49 74.98 74.04 73.85 75.91 76.62 75.48 75.51 73.81 74.46 74.30 72.82 74.30 74.82 74.79 75.71 75.72 75.81 75.52
71.81 72.46 73.72 74.17 75.05 75.01 74.50 75.33 74.81 75.35 75.11 75.00 75.02 75.21 75.28 74.92 74.86 75.06 75.28 75.09 75.71 76.01 75.80 75.79 75.42 75.57 74.88 74.62 74.51 76.29 75.83 75.62 74.38 74.18 74.82 75.34 73.48 75.45 75.41 75.00 75.31 75.82 76.07
72.14 72.92 73.07 73.44 73.98 74.12 75.04 74.66 74.91 75.64 75.28 74.87 74.96 75.33 75.02 75.54 75.94 75.53 75.34 75.50 75.99 76.43 76.25 75.93 75.42 76.18 75.51 74.62 74.31 75.21 75.55 74.99 74.55 74.75 75.08 75.00 75.46 73.61 73.58 74.92 75.80 76.25 76.48
72.72 72.93 73.37 73.20 72.93 73.70 74.55 74.46 74.63 75.52 75.51 75.78 75.92 74.95 74.64 75.90 76.30 76.19 76.16 76.17 77.02 76.62 75.93 75.45 75.64 75.66 75.26 75.85 75.26 75.48 75.46 75.30 75.70 75.87 75.90 75.51 75.64 75.39 76.56 74.67 74.38 74.96 75.79
73.22 73.47 73.33 73.64 72.08 72.93 73.67 74.38 74.63 75.31 75.49 76.07 76.83 76.30 76.03 75.80 75.97 77.28 76.26 76.54 77.39 77.06 75.61 75.52 76.09 75.84 74.82 74.67 74.33 75.46 75.86 75.43 75.46 75.44 75.79 75.74 76.28 76.24 76.27 76.95 74.77 74.67 75.35
73.63 74.00 74.04 73.51 71.98 71.51 73.39 73.71 74.23 74.77 74.83 75.99 77.02 76.35 76.25 76.18 76.73 76.94 76.13 77.00 76.92 76.18 75.70 76.39 76.55 75.76 74.76 73.88 73.50 74.36 75.76 75.97 75.90 75.74 75.20 75.46 75.87 76.15 76.51 77.30 77.23 77.21 76.14
73.41 73.45 73.70 73.44 72.70 71.09 71.85 71.64 72.40 72.85 73.95 75.05 76.65 76.16 76.61 76.66 76.77 77.24 76.57 76.85 76.91 76.11 76.39 77.04 76.86 75.57 74.95 75.50 75.01 74.07 74.49 74.65 75.29 75.58 75.52 75.45 75.72 75.91 76.44 76.91 77.33 77.27 77.46
72.96 73.33 73.29 73.27 72.97 72.00 72.08 72.27 73.10 73.77 74.33 75.21 75.72 76.22 76.71 76.61 76.41 77.13 76.88 76.55 76.80 76.49 76.58 77.22 77.08 75.55 75.45 75.39 73.78 73.61 70.12 71.91 73.84 73.45 74.74 74.55 75.12 75.38 76.46 77.31 77.74 78.45 78.32
72.46 73.00 73.30 73.35 72.35 72.73 73.88 73.07 73.83 74.23 75.27 73.95 74.41 75.22 75.96 76.77 76.17 76.39 76.66 76.62 77.36 77.17 75.71 76.82 77.03 76.74 74.37 75.34 75.61 73.06 70.43 68.45 71.75 73.94 74.45 75.12 76.33 76.16 76.72 77.56 78.41 78.88 79.75
72.55 73.37 73.48 73.52 72.48 73.83 75.06 73.27 73.62 72.22 72.08 75.08 75.71 76.02 76.69 76.88 76.66 76.09 76.41 76.36 77.67 77.16 76.94 77.88 77.44 77.11 76.91 74.50 76.22 74.88 74.90 74.46 71.72 69.74 74.12 75.50 76.20 76.05 77.02 77.30 78.51 79.42 79.73
72.59 72.75 73.13 73.74 73.84 74.20 74.94 74.85 73.67 74.83 75.85 74.41 75.25 75.95 76.67 77.10 77.00 76.35 76.75 76.83 77.33 77.16 77.36 77.95 77.42 77.66 76.66 75.04 74.63 75.50 74.81 72.55 74.42 72.50 70.52 72.75 76.11 76.20 76.79 77.82 78.60 78.22 78.71
72.50 72.57 72.95 73.32 73.84 74.43 74.60 74.77 75.23 75.14 75.28 75.74 74.66 73.95 75.62 75.37 75.75 76.67 77.03 77.03 77.24 77.00 76.78 77.88 77.61 77.00 76.83 76.65 75.80 76.03 74.81 73.60 72.47 71.94 71.57 73.08 73.30 75.02 77.07 77.85 77.74 78.04 77.94